[[{"header":{"parameterUnit":"m.s-1","parameterCategory":1,"la1":30.6,"la2":29.2853,"lo1":-89.7004,"lo2":-87.6739,"dy":0.0162,"dx":0.0183,"nx":112,"ny":82,"refTime":"2023-04-30T12:00:00:Z","depth":0,"parameterNumber":2,"parameterNumberName":"U-component_of_WINDS"},"data":[0.0,0.0,0.0,0.0,0.0,0.0,0.0,0.0,0.0,0.0,0.0,0.0,0.0,0.0,0.0,0.0,0.0,0.0,0.0,0.0,0.0,0.0,0.0,0.0,0.0,0.0,0.0,0.0,0.0,0.0,0.0,0.0,0.0,0.0,0.0,0.0,0.0,0.0,0.0,0.0,0.0,0.0,0.0,0.0,0.0,0.0,0.0,0.0,0.0,0.0,0.0,0.0,0.0,0.0,0.0,0.0,0.0,0.0,0.0,0.0,0.0,0.0,0.0,0.0,0.0,0.0,0.0,0.0,0.0,0.0,0.0,0.0,0.0,0.0,0.0,0.0,0.0,0.0,0.0,0.0,0.0,0.0,0.0,0.0,0.0,0.0,0.0,0.0,0.0,0.0,3.3576,3.8028,4.2646,4.4601,4.257,4.2357,4.0152,3.5104,0.0,0.0,0.0,0.0,0.0,0.0,0.0,0.0,0.0,0.0,0.0,0.0,0.0,0.0,0.0,0.0,0.0,0.0,0.0,0.0,0.0,0.0,0.0,0.0,0.0,0.0,0.0,0.0,0.0,0.0,0.0,0.0,0.0,0.0,0.0,0.0,0.0,0.0,0.0,0.0,0.0,0.0,0.0,0.0,0.0,0.0,0.0,0.0,0.0,0.0,0.0,0.0,0.0,0.0,0.0,0.0,0.0,0.0,0.0,0.0,0.0,0.0,0.0,0.0,0.0,0.0,0.0,0.0,0.0,0.0,0.0,0.0,0.0,0.0,0.0,0.0,0.0,0.0,0.0,0.0,0.0,0.0,0.0,0.0,0.0,0.0,0.0,0.0,0.0,0.0,0.0,0.0,0.0,0.0,0.0,0.0,0.0,0.0,0.0,0.0,0.0,0.0,0.0,0.0,3.4616,3.9837,4.2357,4.3827,4.4175,4.0307,3.7483,3.6574,0.0,0.0,0.0,0.0,0.0,0.0,0.0,0.0,0.0,0.0,0.0,0.0,0.0,0.0,0.0,0.0,0.0,0.0,0.0,0.0,0.0,0.0,0.0,0.0,0.0,0.0,0.0,0.0,0.0,0.0,0.0,0.0,0.0,0.0,0.0,0.0,0.0,0.0,0.0,0.0,0.0,0.0,0.0,0.0,0.0,0.0,0.0,0.0,0.0,0.0,0.0,0.0,0.0,0.0,0.0,0.0,0.0,0.0,0.0,0.0,0.0,0.0,0.0,0.0,0.0,0.0,0.0,0.0,0.0,0.0,0.0,0.0,0.0,0.0,0.0,0.0,0.0,0.0,0.0,0.0,0.0,0.0,0.0,0.0,0.0,0.0,0.0,0.0,0.0,0.0,0.0,0.0,0.0,0.0,0.0,0.0,0.0,0.0,0.0,0.0,0.0,0.0,0.0,3.3865,3.6633,4.0991,4.255,4.3266,4.3208,4.0191,3.7522,3.5665,3.4756,0.0,0.0,0.0,0.0,0.0,0.0,0.0,0.0,0.0,0.0,0.0,0.0,0.0,0.0,0.0,0.0,0.0,0.0,0.0,0.0,0.0,0.0,0.0,0.0,0.0,0.0,0.0,0.0,0.0,0.0,0.0,0.0,0.0,0.0,0.0,0.0,0.0,0.0,0.0,0.0,0.0,0.0,0.0,0.0,0.0,0.0,0.0,0.0,0.0,0.0,0.0,0.0,0.0,0.0,0.0,0.0,0.0,0.0,0.0,0.0,0.0,0.0,0.0,0.0,0.0,0.0,0.0,0.0,0.0,0.0,0.0,0.0,0.0,0.0,0.0,0.0,0.0,0.0,0.0,0.0,0.0,0.0,0.0,0.0,0.0,0.0,0.0,0.0,0.0,0.0,0.0,0.0,0.0,0.0,0.0,0.0,0.0,0.0,0.0,0.0,0.0,0.0,3.5856,3.8144,4.1641,4.2609,4.2647,4.1796,3.9978,3.7677,3.4872,3.3712,0.0,0.0,0.0,0.0,0.0,0.0,0.0,0.0,0.0,0.0,0.0,0.0,0.0,0.0,0.0,0.0,0.0,0.0,0.0,0.0,0.0,0.0,0.0,0.0,0.0,0.0,0.0,0.0,0.0,0.0,0.0,0.0,0.0,0.0,0.0,0.0,0.0,0.0,0.0,0.0,0.0,0.0,0.0,0.0,0.0,0.0,0.0,0.0,0.0,0.0,0.0,0.0,0.0,0.0,0.0,0.0,0.0,0.0,0.0,0.0,0.0,0.0,0.0,0.0,0.0,0.0,0.0,0.0,0.0,0.0,0.0,0.0,0.0,0.0,0.0,0.0,0.0,0.0,0.0,0.0,0.0,0.0,0.0,0.0,0.0,0.0,0.0,0.0,0.0,0.0,0.0,0.0,0.0,0.0,0.0,0.0,0.0,0.0,0.0,0.0,0.0,0.0,3.6235,3.8187,4.1622,4.2048,4.1757,4.0945,3.8547,3.6651,3.5665,3.404,0.0,0.0,0.0,0.0,0.0,0.0,0.0,0.0,0.0,0.0,0.0,0.0,0.0,0.0,0.0,0.0,0.0,0.0,0.0,0.0,0.0,0.0,0.0,0.0,0.0,0.0,0.0,0.0,0.0,0.0,0.0,0.0,0.0,0.0,0.0,0.0,0.0,0.0,0.0,0.0,0.0,0.0,0.0,0.0,0.0,0.0,0.0,0.0,0.0,0.0,0.0,0.0,0.0,0.0,0.0,0.0,0.0,0.0,0.0,0.0,0.0,0.0,0.0,0.0,0.0,0.0,0.0,0.0,0.0,0.0,0.0,0.0,0.0,0.0,0.0,0.0,0.0,0.0,0.0,0.0,0.0,0.0,0.0,0.0,0.0,0.0,0.0,0.0,0.0,0.0,0.0,0.0,0.0,0.0,0.0,0.0,0.0,0.0,0.0,0.0,0.0,0.0,3.6284,3.8179,0.0,4.157,4.0906,4.0055,3.8586,3.6903,3.5007,0.0,0.0,0.0,0.0,0.0,0.0,0.0,0.0,0.0,0.0,0.0,0.0,0.0,0.0,0.0,0.0,0.0,0.0,0.0,0.0,0.0,0.0,0.0,0.0,0.0,0.0,0.0,0.0,0.0,0.0,0.0,0.0,0.0,0.0,0.0,0.0,0.0,0.0,0.0,0.0,0.0,0.0,0.0,0.0,0.0,0.0,0.0,0.0,0.0,0.0,0.0,0.0,0.0,0.0,0.0,0.0,0.0,0.0,0.0,0.0,0.0,0.0,0.0,0.0,0.0,0.0,0.0,0.0,0.0,0.0,0.0,0.0,0.0,0.0,0.0,0.0,0.0,0.0,0.0,0.0,0.0,0.0,0.0,0.0,0.0,0.0,0.0,0.0,0.0,0.0,0.0,0.0,0.0,0.0,0.0,0.0,0.0,0.0,0.0,0.0,0.0,0.0,3.5256,3.6353,3.8128,0.0,4.116,4.0331,3.9166,3.8547,3.7232,3.4949,0.0,0.0,0.0,0.0,0.0,0.0,0.0,0.0,0.0,0.0,0.0,0.0,0.0,0.0,0.0,0.0,0.0,0.0,0.0,0.0,0.0,0.0,0.0,0.0,0.0,0.0,0.0,0.0,0.0,0.0,0.0,0.0,0.0,0.0,0.0,0.0,0.0,0.0,0.0,0.0,0.0,0.0,0.0,0.0,0.0,0.0,0.0,0.0,0.0,0.0,0.0,0.0,0.0,0.0,0.0,0.0,0.0,0.0,0.0,0.0,0.0,0.0,0.0,0.0,0.0,0.0,0.0,0.0,0.0,0.0,0.0,0.0,0.0,0.0,0.0,0.0,0.0,0.0,0.0,0.0,0.0,0.0,0.0,0.0,0.0,0.0,0.0,0.0,0.0,0.0,0.0,0.0,0.0,0.0,0.0,0.0,0.0,0.0,0.0,0.0,0.0,0.0,3.5287,3.6493,3.8054,4.0546,4.0807,4.0106,3.8353,3.8199,3.7483,0.0,0.0,0.0,0.0,0.0,0.0,0.0,0.0,0.0,0.0,0.0,0.0,0.0,0.0,0.0,0.0,0.0,0.0,0.0,0.0,0.0,0.0,0.0,0.0,0.0,0.0,0.0,0.0,0.0,0.0,0.0,0.0,0.0,0.0,0.0,0.0,0.0,0.0,0.0,0.0,0.0,0.0,0.0,0.0,0.0,0.0,0.0,0.0,0.0,0.0,0.0,0.0,0.0,0.0,0.0,0.0,0.0,0.0,0.0,0.0,0.0,0.0,0.0,0.0,0.0,0.0,0.0,0.0,0.0,0.0,0.0,0.0,0.0,0.0,0.0,0.0,0.0,0.0,0.0,0.0,0.0,0.0,0.0,0.0,0.0,0.0,0.0,0.0,0.0,0.0,0.0,0.0,0.0,0.0,0.0,0.0,0.0,0.0,0.0,0.0,0.0,0.0,0.0,3.5493,3.7078,3.8774,4.0721,4.0907,4.017,3.8421,3.8266,3.7547,3.58,0.0,0.0,0.0,0.0,0.0,0.0,0.0,0.0,0.0,0.0,0.0,0.0,0.0,0.0,0.0,0.0,0.0,0.0,0.0,0.0,0.0,0.0,0.0,0.0,0.0,0.0,0.0,0.0,0.0,0.0,0.0,0.0,0.0,0.0,0.0,0.0,0.0,0.0,0.0,0.0,0.0,0.0,0.0,0.0,0.0,0.0,0.0,0.0,0.0,0.0,0.0,0.0,0.0,0.0,0.0,0.0,0.0,0.0,0.0,0.0,0.0,0.0,0.0,0.0,0.0,0.0,0.0,0.0,0.0,0.0,0.0,0.0,0.0,0.0,0.0,0.0,0.0,0.0,0.0,0.0,0.0,0.0,0.0,0.0,0.0,0.0,0.0,0.0,0.0,0.0,0.0,0.0,0.0,0.0,0.0,0.0,0.0,0.0,0.0,0.0,0.0,0.0,3.5624,3.7364,3.9096,4.0777,4.0926,4.0315,3.8905,3.8468,3.7652,3.6265,0.0,0.0,0.0,0.0,0.0,0.0,0.0,0.0,0.0,0.0,0.0,0.0,0.0,0.0,0.0,0.0,0.0,0.0,0.0,0.0,0.0,0.0,0.0,0.0,0.0,0.0,0.0,0.0,0.0,0.0,0.0,0.0,0.0,0.0,0.0,0.0,0.0,0.0,0.0,0.0,0.0,0.0,0.0,0.0,0.0,0.0,0.0,0.0,0.0,0.0,0.0,0.0,0.0,0.0,0.0,0.0,0.0,0.0,0.0,0.0,0.0,0.0,0.0,0.0,0.0,0.0,0.0,0.0,0.0,0.0,0.0,0.0,0.0,0.0,0.0,0.0,0.0,0.0,0.0,0.0,0.0,0.0,0.0,0.0,0.0,0.0,0.0,0.0,0.0,0.0,0.0,0.0,0.0,0.0,0.0,0.0,0.0,0.0,0.0,0.0,0.0,0.0,3.5775,3.7469,3.9117,4.0751,4.0917,4.0529,3.9596,3.8713,3.7831,3.6961,0.0,0.0,0.0,0.0,0.0,0.0,0.0,0.0,0.0,0.0,0.0,0.0,0.0,0.0,0.0,0.0,0.0,0.0,0.0,0.0,0.0,0.0,0.0,0.0,0.0,0.0,0.0,0.0,0.0,0.0,0.0,0.0,0.0,0.0,0.0,0.0,0.0,0.0,0.0,0.0,0.0,0.0,0.0,0.0,0.0,0.0,0.0,0.0,0.0,0.0,0.0,0.0,0.0,0.0,0.0,0.0,0.0,0.0,0.0,0.0,3.5508,3.5901,0.0,0.0,0.0,0.0,0.0,0.0,0.0,0.0,0.0,0.0,0.0,0.0,0.0,0.0,0.0,0.0,0.0,0.0,0.0,0.0,0.0,0.0,0.0,0.0,0.0,0.0,0.0,0.0,0.0,0.0,0.0,0.0,0.0,0.0,0.0,0.0,0.0,0.0,0.0,0.0,3.6534,3.78,3.9143,4.0793,4.098,4.0595,3.9663,3.878,3.7876,3.6961,3.6149,0.0,0.0,0.0,0.0,0.0,0.0,0.0,0.0,0.0,0.0,0.0,0.0,0.0,0.0,0.0,0.0,0.0,0.0,0.0,0.0,0.0,0.0,0.0,0.0,0.0,0.0,0.0,0.0,0.0,0.0,0.0,0.0,0.0,0.0,0.0,0.0,0.0,0.0,0.0,0.0,0.0,0.0,0.0,0.0,0.0,0.0,0.0,0.0,0.0,0.0,0.0,0.0,0.0,0.0,0.0,0.0,0.0,0.0,0.0,3.648,3.6289,0.0,0.0,0.0,0.0,0.0,0.0,0.0,0.0,0.0,0.0,0.0,0.0,0.0,0.0,0.0,0.0,0.0,0.0,0.0,0.0,0.0,0.0,0.0,0.0,0.0,0.0,0.0,0.0,0.0,0.0,0.0,0.0,0.0,0.0,0.0,0.0,0.0,0.0,0.0,0.0,3.7488,3.8572,3.9773,4.1443,4.1232,4.0742,4.0216,3.9389,3.8485,3.758,3.7135,0.0,0.0,0.0,0.0,0.0,0.0,0.0,0.0,0.0,0.0,0.0,0.0,0.0,0.0,0.0,0.0,0.0,0.0,0.0,0.0,0.0,0.0,0.0,0.0,0.0,0.0,0.0,0.0,0.0,0.0,0.0,0.0,0.0,0.0,0.0,0.0,0.0,0.0,0.0,0.0,0.0,0.0,0.0,0.0,0.0,0.0,0.0,0.0,0.0,0.0,0.0,0.0,0.0,3.7555,3.8001,3.8837,3.8837,3.8838,3.8811,3.8319,3.7426,3.6469,3.8046,0.0,0.0,0.0,0.0,0.0,0.0,0.0,0.0,0.0,0.0,0.0,0.0,0.0,0.0,0.0,0.0,0.0,0.0,0.0,0.0,0.0,0.0,3.6532,3.7253,3.6999,3.6968,3.8354,0.0,0.0,0.0,0.0,0.0,0.0,0.0,0.0,0.0,0.0,0.0,3.85,3.9493,4.0552,4.1937,4.1527,4.1053,4.0818,4.0006,3.9197,3.847,3.8276,3.7889,0.0,0.0,0.0,0.0,0.0,0.0,0.0,0.0,0.0,0.0,0.0,0.0,0.0,0.0,0.0,0.0,0.0,0.0,0.0,0.0,0.0,0.0,0.0,0.0,0.0,0.0,0.0,0.0,0.0,0.0,0.0,0.0,3.5901,3.5901,0.0,0.0,0.0,0.0,0.0,0.0,0.0,0.0,0.0,0.0,0.0,0.0,0.0,3.7382,3.8157,3.8103,3.8511,3.9363,3.9369,3.9777,4.0582,4.0582,4.0574,4.0604,4.1322,0.0,3.8151,3.9149,0.0,0.0,0.0,0.0,0.0,0.0,0.0,0.0,0.0,0.0,0.0,0.0,0.0,0.0,0.0,0.0,0.0,0.0,0.0,0.0,0.0,0.0,3.8188,3.8305,3.8811,3.9357,3.9559,3.9013,3.8702,3.9461,3.8825,3.7909,0.0,0.0,0.0,0.0,0.0,0.0,3.9396,4.039,4.1,4.1151,4.1746,4.1751,4.0876,4.0051,3.9506,3.9352,3.8624,3.816,3.8025,3.8141,0.0,0.0,0.0,0.0,0.0,0.0,0.0,0.0,0.0,0.0,0.0,0.0,0.0,0.0,0.0,0.0,0.0,0.0,0.0,0.0,0.0,0.0,0.0,0.0,0.0,0.0,0.0,0.0,0.0,3.5897,3.5894,3.5894,3.5898,3.5918,0.0,0.0,0.0,0.0,0.0,0.0,0.0,0.0,0.0,3.7926,3.8413,3.884,3.9237,3.9643,4.0292,4.1149,4.1127,4.1548,4.2364,4.2364,4.2364,4.2384,4.2791,4.2313,4.121,4.0657,3.9647,3.8474,0.0,0.0,0.0,0.0,3.9246,3.8756,4.05,4.0604,4.0019,4.0407,0.0,0.0,0.0,0.0,0.0,0.0,0.0,3.7915,3.8519,3.8578,3.8617,3.9104,3.9143,3.9201,3.9688,3.9493,3.9201,3.9084,3.8753,3.8383,3.7993,3.7603,0.0,0.0,0.0,3.9279,4.0994,4.1539,4.2137,4.3097,4.3055,4.2613,4.1723,4.1256,4.038,3.8914,3.8899,3.8702,3.8218,3.8199,3.8431,0.0,0.0,0.0,0.0,0.0,0.0,0.0,0.0,0.0,0.0,0.0,0.0,0.0,0.0,0.0,0.0,0.0,0.0,0.0,0.0,0.0,0.0,0.0,0.0,0.0,0.0,0.0,0.0,3.6072,3.6129,3.5916,3.6092,3.6152,0.0,0.0,0.0,0.0,0.0,0.0,3.7604,3.8424,3.9077,3.9453,4.0309,4.0969,4.1429,4.1793,4.2415,4.329,4.3019,4.3342,4.4171,4.4171,4.4161,4.4132,4.4132,4.4015,4.3714,4.226,4.0886,3.9731,3.9735,3.9354,3.8984,4.0292,4.0351,4.0,4.1288,4.1758,4.1776,4.1774,4.1619,4.1385,4.1166,0.0,0.0,0.0,0.0,3.9084,4.0156,4.0117,3.9902,4.0351,4.0117,3.9922,4.0351,4.0448,4.0195,3.9337,3.8987,3.8831,3.8831,3.8831,0.0,3.9123,0.0,4.0974,4.2435,4.2825,4.339,4.4442,4.4148,4.3522,4.2688,4.2306,4.1216,3.9062,3.9278,3.9108,3.8237,3.8199,3.8508,3.9146,0.0,0.0,0.0,0.0,0.0,0.0,0.0,0.0,0.0,0.0,0.0,0.0,0.0,0.0,0.0,0.0,0.0,0.0,0.0,0.0,0.0,0.0,0.0,0.0,0.0,0.0,0.0,0.0,0.0,3.5991,3.6638,0.0,0.0,0.0,0.0,3.7223,3.8046,3.8504,3.8437,3.9277,4.0468,4.2056,4.289,4.4139,4.586,4.503,4.5084,4.5991,4.5168,4.5202,4.5974,4.5974,4.5935,4.5861,4.5861,4.5433,4.4656,4.3761,4.3371,4.3338,4.3336,4.3312,4.328,4.3388,4.3381,4.3364,4.3444,4.353,4.3574,4.3569,4.3007,4.219,4.1347,4.1574,0.0,0.0,4.2669,4.3111,4.2377,4.2767,4.315,4.2357,4.2767,4.3137,4.2338,4.2182,4.1948,4.113,4.0292,3.9727,3.9727,0.0,4.0019,4.0838,4.1656,4.2494,4.3422,4.4267,4.4481,4.3741,4.4364,4.4448,4.3533,4.2665,4.1762,4.074,3.9948,3.9108,3.8237,3.8199,3.8218,3.8257,3.8276,0.0,0.0,0.0,0.0,0.0,0.0,0.0,0.0,0.0,0.0,0.0,0.0,0.0,0.0,0.0,0.0,0.0,0.0,0.0,0.0,0.0,0.0,0.0,0.0,0.0,0.0,0.0,0.0,3.6835,3.7539,0.0,3.7668,3.8412,3.9133,3.9705,4.1064,4.2122,4.2644,4.2976,4.3427,4.402,4.4316,4.4785,4.5426,4.5603,4.587,4.6208,4.5883,4.5882,4.6158,4.6158,4.6147,4.6131,4.6131,4.5975,4.5682,4.5362,4.427,4.2705,4.2139,4.1945,4.2069,4.2615,4.283,4.291,4.3476,4.3671,4.3708,4.3704,4.3453,4.3119,4.2807,4.2529,4.2416,4.2981,4.2961,4.2825,4.3072,4.3364,4.352,4.3208,4.3364,4.35,4.3189,4.313,4.3059,4.2767,4.2007,4.1071,4.0,4.1169,4.1987,4.1227,4.1773,4.2611,4.3481,4.3877,4.4364,4.5183,4.5553,4.5377,4.4487,4.3566,4.2422,4.0946,3.9475,3.8528,3.8218,3.7154,3.7096,3.8179,3.8199,3.8199,0.0,0.0,0.0,0.0,0.0,0.0,0.0,0.0,0.0,0.0,0.0,0.0,0.0,0.0,0.0,0.0,0.0,0.0,0.0,0.0,0.0,0.0,0.0,0.0,0.0,0.0,3.8416,3.8163,3.939,4.0037,3.949,4.0459,4.1222,4.1521,4.3152,4.4267,4.4543,4.4836,4.5129,4.5421,4.6,4.6273,4.628,4.6814,4.6933,4.6676,4.6367,4.6381,4.6649,4.6649,4.6625,4.6593,4.6593,4.6456,4.6202,4.6195,4.5174,4.3556,4.2971,4.2785,4.2887,4.3475,4.3671,4.3769,4.4347,4.4549,4.4501,4.4208,4.4075,4.3977,4.3685,4.3395,4.3293,4.3877,4.3838,4.376,4.4325,4.4481,4.4481,4.4481,4.4481,4.4481,4.4481,4.4481,4.4384,4.4111,4.2883,4.1637,4.0799,4.1831,4.2572,4.2026,4.265,4.3487,4.4364,4.4481,4.4929,4.6079,4.6196,4.5962,4.5397,4.447,4.317,4.1441,3.9924,3.8818,3.8218,3.7135,3.7077,3.8179,3.8199,3.8199,3.8199,0.0,0.0,0.0,0.0,0.0,0.0,0.0,0.0,0.0,0.0,0.0,0.0,0.0,0.0,0.0,0.0,0.0,0.0,0.0,0.0,0.0,0.0,0.0,3.7419,3.9546,4.0819,4.0018,4.2163,4.3044,4.1345,4.2728,4.3411,4.263,4.4153,4.4777,4.3977,4.4719,4.5558,4.6397,4.7966,4.8786,4.8759,4.8786,4.8395,4.7588,4.6768,4.6786,4.7539,4.7539,4.7517,4.7439,4.7419,4.6967,4.6248,4.6209,4.6191,4.6191,4.6208,4.6205,4.6205,4.6205,4.6205,4.6209,4.6198,4.6192,4.6059,4.5222,4.4929,4.4773,4.3936,4.4267,4.4929,4.4929,4.5553,4.6196,4.6196,4.6196,4.6196,4.6196,4.6196,4.6196,4.6196,4.6196,4.5942,4.5105,4.2922,4.1461,4.2221,4.1734,4.1792,4.3364,4.4345,0.0,4.604,4.6157,4.6157,4.6157,4.6157,4.6157,4.6118,4.5209,4.3928,4.2296,4.13,3.9997,3.8315,3.8218,3.8218,3.8237,3.8237,3.8257,3.8276,0.0,0.0,0.0,0.0,0.0,0.0,0.0,0.0,0.0,0.0,0.0,0.0,0.0,0.0,0.0,0.0,0.0,0.0,0.0,0.0,0.0,0.0,3.8668,3.9878,4.0667,4.149,4.2516,4.3264,4.3518,4.3024,4.3997,4.507,4.6085,4.7159,4.8193,4.9228,4.8915,4.8818,4.9052,4.8886,4.8516,4.7939,4.8516,4.8398,4.7608,4.7959,4.8239,4.844,4.844,4.8426,4.8371,4.7805,4.7415,4.7161,4.6532,4.6276,4.6276,4.6278,4.628,4.6278,4.6228,4.6195,4.6201,4.6195,4.6196,4.6157,4.5923,4.5845,4.5806,4.5553,4.565,4.5845,4.5845,4.602,4.6196,4.6196,4.6196,4.6196,4.6196,4.6196,4.6196,4.6196,4.6196,4.6137,4.5884,4.4773,4.3721,4.3312,4.4111,4.454,4.3721,4.4345,4.4988,4.5222,4.526,4.526,4.526,4.526,4.5007,4.4364,4.3483,4.2732,4.2238,4.077,3.9688,3.9146,3.8547,3.8508,3.9127,3.9127,3.9456,0.0,0.0,0.0,0.0,0.0,0.0,0.0,0.0,0.0,0.0,0.0,0.0,0.0,0.0,0.0,0.0,0.0,0.0,0.0,0.0,0.0,0.0,3.9259,4.0503,4.2942,4.2962,4.3255,4.4621,4.5109,4.546,4.5792,4.628,4.7002,4.8037,4.8876,4.9638,5.0282,4.9833,4.9716,5.0087,4.9618,4.913,4.8642,4.9111,4.8935,4.8115,4.8584,4.8993,4.9345,4.9345,4.9345,4.9325,4.8857,4.8252,4.7569,4.7042,4.6632,4.6339,0.0,0.0,0.0,0.0,4.6231,4.6248,4.6248,4.6222,4.6209,4.6209,4.6203,4.6196,4.6196,4.6196,4.6196,4.6196,4.6196,4.6274,4.6644,4.6468,4.6293,4.6663,4.6468,4.6196,4.6196,4.6196,4.6196,4.6196,4.5787,0.0,4.4773,4.5222,4.5436,4.4793,4.5124,4.5436,4.5436,4.5436,4.5436,4.5436,4.5436,4.5085,4.4228,4.3646,0.0,0.0,0.0,4.0474,4.0068,3.9553,0.0,0.0,0.0,4.0288,4.079,4.0288,0.0,0.0,3.9282,3.9282,0.0,0.0,0.0,0.0,0.0,0.0,0.0,0.0,0.0,0.0,0.0,0.0,0.0,0.0,0.0,0.0,4.1319,4.2572,4.5968,4.5773,4.5617,4.6475,4.7256,4.8017,4.872,4.8798,4.8837,4.8935,4.9657,4.9852,4.9267,4.9247,0.0,0.0,0.0,5.036,5.0243,5.0243,4.9813,4.8954,4.9052,4.9501,5.0243,5.0243,5.0243,5.0243,5.0145,4.9267,4.7881,4.7783,4.7334,4.6788,4.7256,4.7042,4.6417,4.6339,4.6292,4.6303,4.6401,0.0,0.0,4.6462,4.6489,4.6495,4.6495,4.6495,4.6488,4.6488,4.6488,4.6644,4.7326,4.6936,4.6527,4.7189,4.6761,4.6196,4.6196,4.6196,4.6196,4.6196,4.6196,4.6196,4.6196,4.5553,4.5299,4.6079,4.6196,4.6196,4.6196,4.6196,4.6157,4.6059,4.604,0.0,4.4695,4.4647,4.4,4.2397,4.2267,4.1908,4.1112,4.1081,4.1042,4.0945,4.1023,4.1023,4.0945,4.1023,4.1081,4.1081,4.0887,4.079,0.0,0.0,0.0,0.0,0.0,0.0,0.0,0.0,0.0,0.0,0.0,0.0,0.0,0.0,0.0,4.161,4.2621,4.4172,4.6963,4.7198,4.7393,4.8213,4.8466,4.8623,4.8779,4.8798,4.9091,4.9794,5.0008,5.0633,5.1882,5.1941,5.2351,5.3229,5.2565,5.1863,5.116,5.116,5.0711,4.9852,5.0555,0.0,5.116,5.116,5.116,5.1102,5.0418,4.993,4.956,4.8857,4.8876,4.9189,4.7295,4.6843,4.7186,4.6542,4.626,4.6328,4.703,4.7259,4.7351,4.8078,4.8301,4.8301,4.8301,4.8295,0.0,4.83,4.83,4.8164,4.7637,4.7365,4.7111,4.6585,4.6313,4.6196,4.6196,4.6196,4.6196,4.6196,4.6196,4.6196,4.6196,4.6059,4.6001,4.6176,4.6196,4.6196,4.6196,4.6196,4.5923,4.5222,4.5144,4.4501,4.2942,4.3442,4.3381,4.2358,4.283,4.3051,4.2821,4.2821,4.2492,4.1777,4.2454,4.2473,4.1777,4.2473,4.2821,4.2783,4.1429,4.079,0.0,0.0,0.0,0.0,0.0,0.0,0.0,0.0,0.0,0.0,0.0,3.8975,0.0,0.0,4.1438,4.3266,4.4733,4.6241,4.7959,4.8954,4.9657,5.0048,4.9716,4.9618,5.0067,5.0106,5.0282,5.0711,5.116,5.1785,5.2644,5.3112,5.3756,5.4615,5.3385,5.2702,5.2702,5.2273,5.1824,5.1414,5.2273,5.2468,5.2058,5.2058,5.1804,5.1375,5.0945,5.0496,5.0028,4.9169,4.9306,4.993,4.8213,4.8053,4.8693,4.7854,4.7537,4.7552,4.8001,4.8152,4.8226,4.8655,4.8806,4.8808,4.8808,4.8795,4.8801,4.8801,4.8794,4.869,4.8261,4.7832,4.7384,4.6956,4.6527,4.6196,4.6196,4.6196,4.6196,4.6196,4.6196,4.6196,4.6196,4.6196,4.6196,4.6196,4.6196,4.6196,4.6196,4.6196,4.602,4.5592,4.5553,4.5027,4.3702,4.3604,4.3389,4.2922,4.3238,4.3427,4.3337,4.3318,4.3092,4.2667,4.3073,4.3092,4.2647,4.3092,4.3305,4.3285,4.2434,4.2048,0.0,0.0,0.0,0.0,0.0,0.0,0.0,0.0,3.7899,3.9354,3.9895,4.0546,4.2042,4.2597,4.3458,4.5376,4.6991,4.8421,4.9601,5.0698,5.1499,5.1863,5.0984,5.0692,5.157,5.1648,5.1648,5.1648,5.2468,5.2956,5.2956,5.3776,5.4498,5.5025,5.3678,5.321,5.3737,5.3053,5.2702,5.2702,5.3405,5.3385,5.2683,5.2526,5.2058,5.1394,5.1394,5.1004,5.0301,4.9599,4.9716,5.0282,4.9579,4.9735,5.0223,4.9189,4.8798,4.8818,4.8993,4.9048,4.9079,4.925,4.9304,4.9307,4.9288,4.9295,4.9296,4.9296,4.9289,4.9216,4.8884,4.828,4.7676,4.7326,4.6702,4.6196,4.6196,4.6196,4.6196,4.6196,4.6196,4.6196,4.6196,4.6196,4.6196,4.6196,4.6196,4.6196,4.6196,4.6196,4.6196,4.6196,4.6196,4.5923,4.5202,4.4345,4.3895,4.3992,4.3986,4.3956,4.3901,4.3828,4.3711,4.3556,4.3711,4.3711,4.3556,4.3711,4.3788,4.3788,4.3788,4.3614,3.5033,3.4571,3.5157,3.7539,3.7517,3.7549,0.0,0.0,4.0301,4.0514,4.1831,4.2962,4.3066,4.4378,4.6046,4.7814,4.8863,5.0344,5.2879,5.2088,5.1837,5.3518,5.2253,5.1609,5.2468,5.2546,5.2546,5.2546,5.3366,5.3854,5.3854,5.4674,5.483,5.4166,5.3951,5.3522,5.2858,5.2741,5.2702,5.2702,5.28,5.278,5.2663,5.1902,5.1492,5.1394,5.1394,5.1336,5.1258,5.1141,5.118,5.1238,5.1141,5.118,5.1063,4.9403,4.8798,4.8915,4.9696,4.9946,5.0083,5.0855,5.1113,5.1102,5.1044,5.103,5.1008,5.1008,5.1028,5.0677,4.9196,4.8729,4.8261,4.6702,4.6274,4.6196,4.6196,4.6196,4.6196,4.6196,4.6196,4.6196,4.6196,4.6196,4.6196,4.6196,4.6196,4.6196,4.6196,4.6196,4.6196,4.6196,4.6196,4.6157,4.6059,4.526,4.5051,4.5771,4.5755,4.5684,4.5626,4.5551,4.5181,4.4465,4.5162,4.5162,4.4465,4.5162,4.551,4.551,4.551,4.4717,3.5593,3.6324,3.758,0.0,3.9174,4.0228,4.1382,4.149,4.1658,4.2741,4.3486,4.4253,4.5343,4.6067,4.7126,0.0,5.0324,5.1819,5.3563,5.2734,5.2648,5.4533,5.1863,5.0633,5.2526,5.3151,5.3463,5.3463,5.4264,5.4752,5.4752,5.5103,5.5123,5.4771,5.4264,5.358,5.2702,5.3717,5.3951,5.3463,5.3971,5.3951,5.3424,5.2546,5.1882,5.1394,5.1394,5.1394,5.1394,5.1394,5.1394,5.1394,5.1394,5.1394,5.1316,5.0575,4.9989,4.9677,5.0555,5.0516,5.0239,5.1117,5.1406,5.1396,5.1366,5.1369,5.1349,5.1303,5.1289,5.1028,4.98,4.9157,4.8495,4.7248,4.6566,4.6196,4.6196,4.6196,4.6196,4.6196,4.6605,4.68,4.6293,4.6624,4.678,4.6274,4.6196,4.6196,4.6196,4.6196,4.6196,4.6196,4.6196,4.6196,4.6196,4.5864,4.5799,4.6135,4.6093,4.6027,4.5964,4.5886,4.5667,4.5316,4.5626,4.5626,4.5297,4.5645,4.58,4.58,4.58,4.5413,3.6566,0.0,0.0,3.9707,4.1118,4.2527,4.2989,4.298,4.3227,4.4602,4.4791,4.5137,4.6545,4.6919,4.7652,4.9685,5.1263,5.2608,5.3604,5.3223,5.3194,5.4123,5.1433,5.036,5.2487,5.3053,5.3385,5.362,5.4674,5.5201,5.4947,5.5162,5.5181,5.4947,5.4108,5.3444,5.3053,5.4068,5.4381,5.401,5.44,5.4244,5.362,5.2741,5.1999,5.1394,5.1394,5.1394,5.1394,5.1394,5.1394,5.1394,5.1394,5.1394,5.1394,5.1394,5.0848,5.0184,5.0828,5.0633,5.02,5.0844,5.1195,5.1406,5.1396,5.138,5.1369,5.1317,5.1296,5.1106,5.0229,4.9566,4.8865,4.7754,4.7189,4.678,4.6293,4.6585,4.6761,4.6293,4.7092,4.7579,4.6702,4.7072,4.7287,4.6644,4.6352,4.6196,4.6196,4.6196,4.6196,4.6196,4.6196,4.6196,4.6196,4.6196,4.6196,4.6196,4.6138,4.6084,4.6027,4.5953,4.5893,4.5841,4.5814,4.58,4.58,4.58,4.58,4.58,4.58,4.58,0.0,0.0,3.898,4.2463,4.3257,4.3587,4.5225,4.553,4.5507,4.5565,4.5677,4.5761,4.5833,4.6477,4.7835,5.0368,5.1505,5.2472,5.3469,5.3711,5.3201,5.1703,5.1394,5.1687,0.0,5.196,5.1824,5.2683,5.4322,5.4927,5.4088,5.483,5.4908,5.4068,5.319,5.3132,5.3951,5.3171,5.319,5.399,5.3171,5.2761,5.2702,5.1843,5.1433,5.1394,5.1394,5.1394,5.1394,5.1394,5.1394,5.1394,5.1394,5.1394,5.1394,5.1394,5.0848,5.0106,5.0126,5.0126,5.0102,5.0133,5.0713,5.1396,5.14,5.1343,5.1291,5.1291,5.1296,5.1106,5.0229,4.9976,4.9547,4.7891,4.8125,4.8261,4.6566,4.7521,4.8222,4.6527,4.7579,4.8475,4.7618,4.7482,4.7482,4.7462,4.6741,4.6196,4.6196,4.6196,4.6196,4.6196,4.6196,4.6196,4.6196,4.6196,4.6196,4.6196,4.6138,4.6093,4.6093,4.5975,4.5905,4.5905,4.5822,4.58,4.58,4.58,4.58,4.58,4.58,4.58,3.8012,0.0,4.2759,4.3889,4.5376,4.6723,4.7171,4.6852,4.6487,4.6526,4.5179,4.4388,4.5573,4.5943,4.6904,4.9467,5.1134,5.2249,5.2693,5.2358,5.1908,5.1449,4.9911,0.0,0.0,0.0,0.0,5.3502,5.4635,5.5162,5.4888,5.4596,5.4303,5.401,5.3151,5.2565,5.2273,5.3132,5.3424,5.3132,5.2839,5.239,5.1824,5.1531,5.1394,5.1394,5.1394,5.1394,5.1394,5.1394,5.1394,5.1394,5.1394,5.1394,5.1336,5.075,5.036,5.0184,5.077,5.0575,5.02,5.0766,5.1156,5.1406,5.1396,5.138,5.1362,5.1317,5.1296,5.1222,5.095,5.0424,4.9859,4.9294,4.8982,4.8631,4.8047,4.8397,4.8631,4.8047,4.8826,4.9333,4.8514,4.8806,4.8787,4.7676,4.6761,4.6196,4.6196,4.6196,4.6196,4.6196,4.6196,4.6196,4.6196,4.6196,4.6196,4.6196,4.6189,4.6146,4.6093,4.6066,4.5997,4.5886,4.5893,4.5835,4.58,4.58,4.58,4.58,4.58,4.58,4.0122,4.2691,4.5235,4.6114,4.7523,4.8593,4.8182,4.7702,4.7083,4.6201,4.4707,4.3792,4.4654,4.4765,4.5432,4.7682,4.907,5.0095,5.0848,5.085,5.0803,5.0922,5.0048,4.9716,0.0,0.0,0.0,5.2605,5.399,5.4693,5.4381,5.4147,5.401,5.401,5.2858,5.2429,5.278,5.2975,5.278,5.2234,5.2234,5.1941,5.1394,5.1394,5.1394,5.1394,5.1394,5.1394,5.1394,5.1394,5.1394,5.1394,5.1394,5.1394,5.1336,5.077,5.0555,5.0555,5.0496,5.0301,5.0184,5.075,5.116,5.1394,5.1406,5.1396,5.138,5.1343,5.133,5.1289,5.13,5.0872,5.0385,5.0073,4.9839,4.9527,4.8923,4.9274,4.9527,4.8923,4.9703,5.0209,4.9372,4.9664,4.9547,4.8164,4.7209,4.6546,4.6235,4.6196,4.6196,4.6196,4.6196,4.6196,4.6196,4.6196,4.6196,4.6196,4.6196,4.6189,4.6138,4.6102,4.6056,4.5941,4.5898,4.588,4.58,4.58,4.58,4.58,4.58,4.58,4.3807,4.5291,4.6463,4.8968,4.956,4.9298,4.8375,4.8105,4.7336,4.4874,4.422,4.3893,0.0,0.0,4.3643,4.5276,4.5804,4.6597,4.8327,4.9467,5.0134,0.0,0.0,0.0,0.0,0.0,0.0,5.0223,0.0,5.3561,5.2741,5.3483,5.3932,5.3932,5.2292,5.2585,5.5083,5.2644,5.1394,5.1394,5.1394,5.1394,5.1394,5.1394,5.1394,5.1394,5.1394,5.1394,5.1394,5.1394,5.1394,5.1394,5.1355,5.1355,5.1394,5.1297,5.1316,5.116,4.9462,4.9442,5.0165,5.0165,5.0731,5.1394,5.1394,5.1406,5.1396,5.14,5.1343,5.131,5.1308,5.13,5.1086,5.0268,5.0696,5.0852,4.9274,5.017,5.0833,4.9235,5.0209,5.1047,5.0209,5.0034,4.9742,4.8982,4.8125,4.7248,4.6371,4.6235,4.6196,4.6196,4.6196,4.6196,4.6196,4.6196,4.6196,4.6196,4.6196,4.6196,4.6196,4.6138,4.6075,4.6007,4.5941,4.5861,4.5814,4.58,4.58,4.58,4.58,4.58,4.5149,4.7527,4.9591,4.9483,5.0356,5.0875,4.9394,4.8105,4.6836,4.5528,4.3239,4.1604,0.0,0.0,0.0,4.4607,4.6946,0.0,4.9449,5.0883,0.0,5.1137,0.0,5.1394,5.0516,5.0633,0.0,0.0,5.1921,5.2936,5.2702,5.2917,5.3034,5.3034,5.196,5.1726,5.239,5.1726,5.1394,5.1394,5.1394,5.1394,5.1394,5.1394,5.1394,5.1394,5.1394,5.1394,5.1394,5.1394,5.1394,5.1336,5.0692,5.0828,5.1238,4.993,5.0282,5.1238,5.0145,5.034,5.1063,5.1063,5.1219,5.1394,5.1394,5.1406,5.1396,5.14,5.1343,5.131,5.1308,5.13,5.1242,5.1028,5.1145,5.1183,5.0755,5.1008,5.1164,5.0755,5.1008,5.1222,5.1008,5.0424,4.9937,4.9722,4.8982,4.8144,4.7287,4.6605,4.6196,4.6196,4.6196,4.6196,4.6196,4.6196,4.6196,4.6196,4.6196,4.6196,4.6196,4.6189,4.6146,4.6075,4.6007,4.5953,4.5861,4.5808,4.58,4.58,4.5692,4.5645,4.7863,5.0067,5.1828,5.0844,5.099,5.0721,4.8279,4.699,4.5759,4.3758,4.2143,0.0,4.12,4.1994,0.0,0.0,0.0,0.0,4.8624,4.9632,5.0537,0.0,5.1746,0.0,5.077,5.1023,5.1082,0.0,5.1921,5.2526,5.2156,5.2487,5.2702,5.2702,5.1843,5.1394,5.1394,5.1785,5.1785,5.1394,5.1394,5.1394,5.1394,5.1394,5.1394,5.1394,5.1394,5.1394,5.1394,5.1394,5.1394,5.1355,5.0867,5.0965,5.1277,5.0301,5.0555,5.1336,5.0848,5.0984,5.1394,5.1394,5.1394,5.1394,5.1394,5.139,5.1401,5.1411,5.1375,5.1336,5.1323,5.1308,5.13,5.13,5.13,5.13,5.13,5.13,5.13,5.13,5.13,5.13,5.13,5.0891,5.0579,5.0579,4.9859,4.9021,4.8183,4.7306,4.6624,4.6235,4.6196,4.6196,4.6196,4.6196,4.6196,4.6196,4.6196,4.6196,4.6196,4.6196,4.6181,4.6093,4.6066,4.5975,4.5802,4.5761,4.5723,4.5629,4.5545,4.551,5.1051,5.2554,5.3371,5.2365,5.1423,4.9817,4.6408,4.5447,4.4369,4.1158,0.0,4.1354,4.0489,4.1224,4.199,4.2008,0.0,4.4657,4.7379,4.7834,4.8821,5.1273,5.2234,5.2351,5.1472,5.2195,5.2331,5.1472,5.2214,5.2312,5.1453,5.2234,5.2702,5.2702,5.196,5.1511,5.1394,5.2156,5.2156,5.1394,5.1394,5.1394,5.1394,5.1394,5.1394,5.1394,5.1394,5.1394,5.1394,5.1394,5.1394,5.1394,5.1277,5.1297,5.1394,5.1277,5.1297,5.1394,5.1394,5.1394,5.1394,5.1394,5.1394,5.1394,5.1394,5.139,5.1406,5.1396,5.1386,5.1369,5.131,5.1296,5.13,5.13,5.13,5.13,5.13,5.13,5.13,5.13,5.13,5.13,5.13,5.13,5.13,5.13,5.0657,4.9878,4.906,4.8105,4.717,4.6293,4.6196,4.6196,4.6196,4.6196,4.6196,4.6196,4.6196,4.6196,4.6196,4.6196,4.6162,4.6102,4.6084,4.5956,4.5733,4.5688,4.5577,4.5419,4.5381,4.5381,5.2894,5.3982,5.4272,5.2654,5.1509,4.9898,4.6525,4.4655,0.0,0.0,4.0623,4.0469,3.9662,4.0789,4.1895,4.2052,4.3928,4.6383,4.924,5.0153,5.1018,0.0,5.2605,5.2351,5.1472,5.2195,0.0,0.0,5.2214,5.2312,5.1453,5.2234,5.2702,5.2702,5.2546,5.2136,5.1414,5.155,5.155,5.1394,5.1394,5.1394,5.1394,5.1394,5.1394,5.1394,5.1394,5.1394,5.1394,5.1394,5.1394,5.1336,5.0614,5.077,5.1316,5.0594,5.0789,5.1394,5.1394,5.1394,5.1394,5.1394,5.141,5.1401,5.139,5.1401,5.14,5.14,5.1369,5.131,5.1289,5.13,5.13,5.13,5.13,5.13,5.13,5.13,5.13,5.13,5.13,5.13,5.13,5.13,5.13,5.13,5.1164,5.0755,4.9898,4.8456,4.717,4.6293,4.6196,4.6196,4.6196,4.6196,4.6196,4.6196,4.6196,4.6196,4.6196,4.6196,4.6196,4.6189,4.6017,4.591,4.5861,4.5645,4.5531,4.5476,4.53,4.5216,5.4117,5.5088,5.5102,5.2933,5.1338,4.9155,4.4802,0.0,0.0,0.0,3.9546,3.9892,3.9912,4.1007,0.0,4.2028,4.3509,4.5598,4.8307,4.9054,0.0,5.1804,5.2019,5.1863,0.0,5.1785,5.1843,5.1433,5.1785,5.2038,5.2078,5.2897,5.3385,5.3385,5.2936,5.2507,5.2078,5.1629,5.1394,5.1394,5.1394,5.1394,5.1394,5.1394,5.1394,5.1394,5.1394,5.1394,5.1394,5.1394,5.1394,5.1355,5.0945,5.1023,5.1355,5.0926,5.1043,5.1394,5.1394,5.1394,5.1394,5.141,5.1401,5.1401,5.1406,5.1391,5.1394,5.1394,5.1343,5.1291,5.1303,5.1308,5.13,5.13,5.13,5.13,5.13,5.13,5.13,5.13,5.13,5.13,5.13,5.13,5.13,5.13,5.13,5.0953,5.0024,4.9177,4.8223,4.7014,4.6411,4.6093,4.6093,4.6008,4.5938,4.5938,4.5938,4.5938,4.5938,4.5938,4.5938,4.5938,4.5847,4.5736,4.5654,4.5507,4.5381,4.5258,4.5129,4.508,5.4596,5.551,5.5478,5.3136,5.0888,4.8017,4.3152,4.1362,0.0,0.0,3.8834,3.97,4.0162,0.0,4.1693,0.0,4.2588,4.4182,4.6755,4.7406,4.8486,0.0,5.1297,0.0,5.1394,5.157,0.0,5.1414,5.157,5.2058,5.2936,5.3639,5.401,5.401,5.3346,5.28,5.2429,5.1746,5.1394,5.1394,5.1394,5.1394,5.1394,5.1394,5.1394,5.1394,5.1394,5.1394,5.1394,5.1394,5.1394,5.1394,5.1394,5.1394,5.1394,5.1394,5.1394,5.1394,5.1394,5.1394,5.1394,5.1401,5.1396,5.1391,5.1391,5.138,5.1382,5.1388,5.1336,5.1303,5.1303,5.1296,5.13,5.13,5.13,5.13,5.13,5.13,5.13,5.13,5.13,5.13,5.13,5.13,5.13,5.13,5.13,5.0995,5.0184,4.9909,4.9321,4.8059,4.6911,4.6139,4.5944,4.579,4.5703,4.5703,4.5703,4.5703,4.5703,4.5703,4.5703,4.5703,4.5675,4.5584,4.5417,4.5381,4.5243,4.5038,4.5014,4.4967,5.3854,5.4651,5.4804,5.3113,5.0134,4.6675,4.3004,0.0,0.0,3.8392,3.9258,4.0181,3.9527,0.0,0.0,0.0,0.0,4.3166,0.0,4.7016,4.8252,5.0008,0.0,0.0,5.1394,5.2117,5.2253,5.1453,5.2136,5.2956,5.3834,5.3951,5.401,5.401,5.3912,5.3112,5.1531,5.1433,5.1394,5.1394,5.1394,5.1394,5.1394,5.1394,5.1394,5.1394,5.1394,5.1394,5.1394,5.1394,5.1394,5.1394,5.1394,5.1394,5.1394,5.1394,5.1394,5.1394,5.1394,5.1394,5.1394,5.1401,5.1411,5.1394,5.1394,5.1356,5.1308,5.131,5.1303,5.13,5.13,5.13,5.13,5.13,5.13,5.13,5.13,5.13,5.13,5.13,5.13,5.13,5.13,5.13,5.13,5.13,5.13,5.1228,5.1,5.0289,4.9678,4.9364,4.7865,4.6588,4.5789,4.5717,4.5703,4.5703,4.5703,4.5703,4.5703,4.5703,4.5703,4.5703,4.5587,4.5507,4.549,4.5321,4.5213,4.517,4.5057,4.501,5.2565,5.3801,5.3903,5.1683,4.9308,4.6443,4.2358,0.0,3.9684,3.829,3.895,3.9815,3.9988,4.0277,0.0,0.0,0.0,0.0,4.4122,0.0,4.6201,4.8937,4.9606,0.0,0.0,0.0,5.1765,5.1433,5.2214,5.2858,5.319,5.3717,5.4244,5.4771,5.3756,5.2878,5.2195,5.1668,5.1394,5.1394,5.1394,5.1394,5.1394,5.1394,5.1394,5.1394,5.1394,5.1394,5.1394,5.1394,5.1394,5.1394,5.1394,5.1394,5.1394,5.1394,5.1394,5.1394,5.1406,5.1406,5.1381,5.1341,5.1349,5.1343,5.1343,5.1323,5.13,5.1289,5.1308,5.13,5.13,5.13,5.13,5.13,5.13,5.13,5.13,5.13,5.13,5.13,5.13,5.13,5.13,5.13,5.1265,5.1181,5.1171,5.1086,5.0832,5.051,5.0021,4.9336,4.7834,4.6747,4.6381,4.5815,4.5455,4.5455,4.5455,4.5455,4.5455,4.5455,4.5455,4.5455,4.5419,4.5381,4.5381,4.5298,4.5235,4.5192,4.5148,4.5103,5.0535,5.237,5.2995,5.0379,4.8466,4.6162,0.0,0.0,3.9664,3.8598,3.9065,3.9815,4.0392,4.0534,0.0,0.0,0.0,4.1238,4.2734,4.3527,4.4858,0.0,0.0,4.9286,0.0,5.1102,5.1511,5.1765,5.2351,5.28,5.3073,5.3678,5.4283,5.4908,5.3717,5.2956,5.2702,5.1843,5.1394,5.1394,5.1394,5.1394,5.1394,5.1394,5.1394,5.1394,5.1394,5.1394,5.1394,5.1394,5.1394,5.1394,5.1394,5.1394,5.1394,5.1394,5.1394,5.141,5.1406,5.1401,5.1396,5.1336,5.1323,5.1336,5.1317,5.1471,5.169,5.169,5.1865,5.2002,5.1749,5.1885,5.1943,5.1417,5.1495,5.1612,5.1359,5.13,5.13,5.13,5.13,5.13,5.13,5.13,5.1248,5.1117,5.1105,5.0984,5.0644,5.0587,5.0315,4.9522,4.8024,4.6993,4.6724,4.5838,4.5297,4.5297,4.5297,4.5297,4.5297,4.5297,4.5297,4.5297,4.5297,4.5297,4.5297,4.5297,4.5275,4.5213,4.5213,4.517,4.7647,5.0126,5.2097,4.9462,4.7549,4.5577,0.0,0.0,4.0498,3.9485,3.9931,4.0489,4.0489,4.0602,4.0694,0.0,0.0,0.0,4.1985,4.3666,0.0,0.0,0.0,4.8818,4.8837,5.0399,5.1765,5.2624,5.2683,5.3073,5.3932,5.401,5.401,5.401,5.401,5.3561,5.2702,5.1843,5.1394,5.1394,5.1394,5.1394,5.1394,5.1394,5.1394,5.1394,5.1394,5.1394,5.1394,5.1394,5.1394,5.1394,5.1394,5.1394,5.1394,5.1394,5.1406,5.1401,5.139,5.1406,5.1396,5.1396,5.1405,5.1388,5.1317,5.19,5.2586,5.2586,5.321,5.3677,5.282,5.3229,5.3444,5.171,5.1963,5.2353,5.1495,5.13,5.13,5.13,5.13,5.13,5.13,5.13,5.1248,5.1117,5.1105,5.0984,5.0644,5.0587,5.0526,5.0306,4.8793,4.7436,4.6577,4.5755,4.5297,4.5297,4.5297,4.5297,4.5297,4.5297,4.5297,4.5297,4.5297,4.5297,4.5297,4.5297,4.5297,4.5297,4.5213,4.517,4.5134,4.6836,4.7786,4.6404,4.5259,4.3902,4.1818,0.0,4.0538,3.9567,3.9967,4.0489,4.0489,4.0602,4.0694,0.0,0.0,0.0,0.0,0.0,0.0,4.6365,4.8928,5.0575,0.0,0.0,5.1511,5.1785,5.2917,5.3444,5.3132,5.4244,5.4615,5.4029,5.3424,5.2975,5.2702,5.1843,5.1394,5.1394,5.1394,5.1394,5.1394,5.1394,5.1394,5.1394,5.1394,5.1394,5.1394,5.1394,5.1394,5.1394,5.1394,5.1394,5.1394,5.1394,5.139,5.141,5.1406,5.1401,5.1396,5.1405,5.1375,5.1336,5.1317,5.1491,5.1846,5.243,5.2801,5.3093,5.3405,5.3249,5.3015,5.3073,5.3288,5.3249,5.2372,5.2664,5.2723,5.1534,5.1787,5.2002,5.1398,5.13,5.1248,5.1117,5.0992,5.0809,5.0625,5.0485,5.0374,5.0302,4.9328,4.8582,4.8296,4.6443,4.5526,4.6099,4.5602,4.5297,4.5297,4.5297,4.5297,4.5297,4.5297,4.5297,4.5297,4.5297,4.5297,4.5297,4.5275,4.5235,0.0,4.4842,4.5735,4.463,4.3962,0.0,0.0,0.0,4.0626,4.0033,4.0221,4.0489,4.0489,4.0623,4.0746,0.0,0.0,0.0,0.0,0.0,0.0,4.7624,0.0,0.0,0.0,5.1219,5.1531,5.1863,5.2897,5.3268,5.2722,5.3737,5.4068,5.3522,5.2975,5.2702,5.2702,5.1843,5.1394,5.1394,5.1394,5.1394,5.1394,5.1394,5.1394,5.1394,5.1394,5.1394,0.0,5.1394,5.1394,5.1394,5.1394,5.1394,5.1394,5.1394,5.139,5.141,5.1406,5.1401,5.1396,5.1405,5.1583,5.1798,5.1791,5.201,5.2528,5.3736,5.4067,5.4126,5.434,5.3989,5.3638,5.3853,5.3658,5.3346,5.3151,5.3268,5.319,5.243,5.245,5.243,5.1885,5.149,5.1171,5.1017,5.0844,5.0661,5.0506,5.0374,5.0302,5.0302,4.9576,4.9098,4.9098,4.7035,4.5965,4.6481,4.5736,4.5297,4.5297,4.5297,4.5297,4.5297,4.5297,4.5297,4.5297,4.5297,4.5297,4.5297,4.5256,4.5235,0.0,4.3666,0.0,0.0,0.0,0.0,0.0,0.0,0.0,4.0699,4.0588,4.0489,4.0489,4.066,4.081,0.0,0.0,0.0,0.0,4.3949,0.0,0.0,4.8915,0.0,4.995,5.0848,5.1746,5.2546,5.2663,5.2702,5.2702,5.2702,5.2702,5.2702,5.2644,5.2644,5.2702,5.1902,5.1453,5.1394,5.1394,5.1394,5.1394,5.1394,5.1394,5.1394,5.1394,5.1394,5.1394,5.1394,5.1394,5.1394,5.1394,5.1394,5.1394,5.1394,5.141,5.1401,5.139,5.1406,5.1396,5.1396,5.194,5.2616,5.2672,5.3307,5.434,5.5957,5.6405,5.623,5.5489,5.5256,5.5022,5.4262,5.3463,5.3073,5.3833,5.3405,5.3073,5.3775,5.3249,5.2664,5.2606,5.1775,5.1049,5.0855,5.0696,5.0527,5.0348,5.0302,5.0302,5.0302,4.9633,4.9156,4.9098,4.7551,4.6577,4.65,4.5793,4.5354,4.5297,4.5297,4.5297,4.5297,4.5297,4.5297,4.5297,4.5297,4.5297,4.5297,4.5254,4.5235,3.8799,0.0,4.1751,4.15,4.1468,4.1427,0.0,0.0,0.0,0.0,0.0,4.0489,4.0489,4.066,4.081,0.0,0.0,0.0,4.3244,0.0,0.0,4.874,4.9989,5.034,4.9228,5.0496,5.1472,5.1687,5.2312,5.2702,5.2702,5.2702,5.2702,5.2702,5.2058,5.2038,5.2683,5.2507,5.2058,5.1394,5.1394,5.1394,5.1394,5.1394,5.1394,5.1394,5.1394,5.1394,5.1394,5.1394,5.1394,5.1394,5.1394,5.1394,5.1394,5.1394,5.1394,5.139,5.1394,5.1406,5.1396,5.1336,5.1902,5.2714,5.3393,5.4203,5.4983,5.5392,5.5509,5.5606,5.6074,5.5704,5.5314,5.5782,5.5723,5.545,5.4983,5.5256,5.5256,5.4126,5.3736,5.3385,5.2703,5.1849,5.1191,5.1062,5.0874,5.0713,5.0547,5.0396,5.0302,5.0302,5.013,4.9767,4.9137,4.8105,4.7207,4.6538,4.6328,4.5946,4.5316,4.5297,4.5297,4.5297,4.5297,4.5297,4.5297,4.5297,4.5297,4.5297,4.5297,4.5297,3.8488,3.9527,4.0434,4.0211,4.0469,4.078,0.0,0.0,0.0,0.0,0.0,0.0,4.0574,4.0699,0.0,0.0,4.1997,0.0,0.0,0.0,4.8096,4.9267,4.9872,5.0145,0.0,5.0848,5.1394,5.1394,5.1843,5.2097,5.2097,5.2097,5.2292,5.2683,5.2234,5.2038,5.2097,5.2097,5.1863,5.1394,5.1394,5.1394,5.1394,5.1394,5.1394,5.1394,5.1394,5.1394,5.1394,5.1394,5.1394,5.1394,5.1394,5.1394,5.1394,5.1394,5.139,5.1464,5.1854,5.2235,5.2545,5.2506,5.3077,5.3888,5.434,5.5119,5.5801,5.5801,5.5509,5.5392,5.6269,5.5567,5.4924,5.6191,5.5879,5.5392,5.5723,5.584,5.5626,5.4691,5.4164,5.3619,5.2742,5.1832,5.1161,5.0992,5.0828,5.0642,5.0485,5.0374,5.0302,5.0302,5.0302,4.9977,4.9156,4.8659,4.7857,4.6577,4.6156,4.5755,4.5316,4.5297,4.5297,4.5297,4.5297,4.5297,4.5297,4.5297,4.5297,4.5297,4.5297,4.5297,3.8546,3.9503,4.0188,3.9721,4.0152,4.0711,0.0,0.0,0.0,0.0,0.0,0.0,0.0,4.0742,0.0,0.0,0.0,0.0,4.6339,4.6807,4.7627,4.9657,4.9481,0.0,5.0887,5.1238,5.139,5.1367,5.1362,5.1362,5.1362,5.1362,5.1659,5.2273,5.2292,5.1941,5.1219,5.1472,5.1531,5.1394,5.1394,5.1394,5.1394,5.1394,5.1394,5.1394,5.1394,5.1394,5.1394,5.1394,5.1394,5.1394,5.1394,5.1394,5.1394,5.1394,5.1484,5.1728,5.2581,5.3325,5.3903,5.3896,5.4492,5.5197,5.5197,5.5801,5.6503,5.6503,5.5976,5.5567,5.6308,5.5392,5.4671,5.6152,5.5372,5.471,5.6171,5.5918,5.5353,5.5236,5.4496,5.3619,5.2742,5.1775,5.1101,5.1014,5.0773,5.0605,5.052,5.0378,5.0302,5.0302,5.0302,4.9977,4.9156,4.8965,4.82,4.6596,4.5851,4.543,4.5297,4.5297,4.5297,4.5297,4.5297,4.5297,4.5297,4.5297,4.5297,4.5297,4.5297,4.5297,3.6238,3.7752,3.9639,4.032,4.0597,4.0706,0.0,0.0,0.0,0.0,0.0,0.0,0.0,0.0,4.112,0.0,0.0,4.6339,0.0,0.0,4.9384,4.9032,0.0,5.0535,4.9325,5.0535,5.1357,5.1245,5.1218,5.1218,5.1218,5.1218,5.1011,5.0512,5.0496,5.0438,5.0301,5.1765,5.2136,5.1394,5.1394,5.1394,5.1394,5.1394,5.1394,5.1394,5.1394,5.1394,5.1394,5.1394,5.1394,5.1394,5.1394,5.1394,5.1394,5.1406,5.1869,5.262,5.3436,5.3793,5.3903,5.39,5.4496,5.5197,5.5197,5.5801,5.6503,5.6503,5.6405,5.6327,5.6464,5.6288,5.6171,5.6444,5.6288,5.6171,5.6444,5.6386,5.6074,5.5333,5.4496,5.3619,5.2742,5.1849,5.1404,5.1827,5.1257,5.0911,5.1342,5.076,5.0302,5.0302,5.0302,4.9977,4.9156,4.843,4.757,4.6557,4.6385,4.6003,4.5316,4.5297,4.5297,4.5297,4.5297,4.5297,4.5297,4.5297,4.5297,4.5297,4.5297,4.5275,3.681,3.805,3.9394,3.9893,4.0351,4.0712,0.0,0.0,0.0,0.0,0.0,0.0,0.0,0.0,4.2946,4.4855,0.0,4.8076,4.9325,4.9072,4.9111,0.0,0.0,5.002,5.0087,5.0823,5.1245,5.1094,5.1084,5.1132,5.1203,5.0755,5.0596,5.0805,4.9891,4.9618,5.0106,5.0438,5.0867,5.1394,5.0926,5.0692,5.0692,5.0692,5.0692,5.0711,5.1199,5.1394,5.1394,5.1394,5.1394,5.1394,5.1394,5.139,5.1445,5.1888,5.2603,5.3475,5.4305,5.4609,5.4679,5.5139,5.5256,5.5295,5.5762,5.6171,5.6503,5.6503,5.6152,5.5918,5.6386,5.6152,5.5918,5.6386,5.6503,5.6503,5.6503,5.6503,5.623,5.5372,5.4885,5.434,5.3444,5.2976,5.2728,5.2791,5.2047,5.1543,5.1595,5.0837,5.0302,5.0302,5.0302,5.0149,4.9786,4.8984,4.7742,4.5965,4.5851,4.5679,4.5316,4.5297,4.5297,4.5297,4.5297,4.5297,4.5297,4.5297,4.5297,4.5297,4.5297,4.5256,3.7222,3.8199,3.9047,3.9105,0.0,0.0,0.0,0.0,0.0,0.0,0.0,0.0,0.0,4.3257,0.0,4.6663,4.8174,4.9345,5.0008,4.9169,4.9208,5.118,5.0223,4.9874,5.1074,5.1203,5.1054,5.07,5.0668,5.065,5.0566,4.9924,4.9854,5.0492,4.9228,4.8837,4.952,4.8857,4.9286,5.0789,5.0106,4.9794,4.9794,5.0008,5.0106,5.0145,5.1023,5.1394,5.1394,5.1394,5.1394,5.1394,5.1394,5.1406,5.1508,5.2298,5.3143,5.4032,5.4905,5.5333,5.5606,5.6269,5.6054,5.5626,5.6288,5.6503,5.6503,5.6503,5.6015,5.5665,5.6327,5.5996,5.5665,5.6347,5.6503,5.6503,5.6503,5.6503,5.623,5.5372,5.5197,5.4866,5.3775,5.3755,5.3779,5.3429,5.2821,5.2277,5.1939,5.1123,5.0531,5.0321,5.0302,5.0225,5.0034,4.927,4.7876,4.5717,4.5392,4.5297,4.5297,4.5297,4.5297,4.5297,4.5297,4.5297,4.5297,4.5297,4.5297,4.5297,4.5297,4.5254,3.5656,3.6922,3.8207,3.8273,0.0,0.0,0.0,0.0,0.0,0.0,0.0,0.0,0.0,4.4265,4.4969,4.5168,4.79,5.0028,5.0087,0.0,5.1199,5.1375,5.1297,5.1221,5.1191,5.1203,5.0782,4.9771,4.9698,4.9406,4.8727,4.863,4.8368,4.7897,4.7744,4.7725,4.7783,4.7725,4.8115,4.8993,4.8915,4.8896,4.8915,4.9735,5.0106,5.0145,5.1023,5.1394,5.1394,5.1394,5.1394,5.1394,5.1394,5.1401,5.1492,5.2292,5.3148,5.4028,5.4905,5.5723,5.6425,5.6483,5.6464,5.6425,5.6483,5.6503,5.6503,5.6503,5.6444,5.6425,5.6483,5.6444,5.6425,5.6483,5.6503,5.6503,5.6503,5.6503,5.623,5.5372,5.5197,5.4671,5.2976,5.3366,5.3759,5.3375,5.3307,5.3146,5.2762,5.2002,5.12,5.0397,5.0302,4.9996,4.9251,4.8391,4.7474,4.6481,4.5698,4.5297,4.5297,4.5297,4.5297,4.5297,4.5297,4.5297,4.5297,4.5297,4.5297,4.5297,4.5297,4.5213,3.5547,3.6794,3.8125,3.8227,0.0,0.0,0.0,0.0,0.0,0.0,0.0,0.0,0.0,0.0,4.7354,4.7354,4.8896,5.0477,5.155,5.1531,5.1581,5.2032,5.1616,5.1215,5.1023,5.0998,5.0588,4.9541,4.9967,4.9724,4.8438,4.8456,4.8195,4.7501,4.7025,4.6788,4.6788,4.6788,4.6944,4.7256,4.7783,4.8057,4.8057,4.8408,4.8818,4.9345,5.0204,5.0906,5.1355,5.0828,5.0906,5.1394,5.1396,5.1068,5.0752,5.2095,5.3159,5.4028,5.4905,5.5431,5.5782,5.6308,5.6132,5.5782,5.6347,5.6503,5.6503,5.6503,5.6503,5.6503,5.6503,5.6503,5.6503,5.6503,5.6503,5.6503,5.6503,5.6503,5.6405,5.6074,5.6015,5.5801,5.5139,5.5181,5.5236,5.4946,5.3935,5.3107,5.2834,5.162,5.0665,5.034,5.0302,4.9977,4.9156,4.8296,4.7665,4.7341,4.6042,4.5297,4.5297,4.5297,4.5297,4.5297,4.5297,4.5297,4.5297,4.5297,4.5297,4.5297,4.5275,4.5192,3.5572,3.6819,3.8138,0.0,0.0,0.0,0.0,0.0,0.0,0.0,0.0,0.0,0.0,0.0,0.0,0.0,4.9567,5.0864,5.2055,5.1687,5.1459,5.1968,5.1492,5.1072,5.0917,5.065,5.0069,4.9067,4.9317,4.8927,4.7579,4.7598,4.7445,4.6995,4.6493,4.6269,4.63,4.63,4.63,4.63,4.6905,4.7198,4.7198,4.7471,4.79,4.8466,4.9325,5.0028,5.0535,4.995,5.0044,5.0605,5.0873,5.0635,5.027,5.1678,5.2742,5.358,5.4164,5.4554,5.4885,5.5489,5.5275,5.4905,5.5489,5.5684,5.5743,5.6015,5.6093,5.6093,5.6093,5.6288,5.6503,5.6503,5.6503,5.6503,5.6503,5.6503,5.6503,5.6503,5.6503,5.6405,5.6132,5.6142,5.5947,5.5216,5.4188,5.3255,5.2528,5.1429,5.0608,5.034,5.0302,5.0073,4.9519,4.8449,4.7933,4.82,4.6615,4.5679,4.5679,4.5679,4.5564,4.5297,4.5297,4.5297,4.5297,4.5297,4.5297,4.5297,4.5213,4.5322,3.5589,3.6832,3.8112,0.0,0.0,0.0,0.0,0.0,0.0,0.0,0.0,0.0,0.0,0.0,0.0,4.7467,4.9627,5.1183,5.1203,5.1074,5.1008,5.1008,5.0996,5.0966,5.0883,5.0113,4.92,4.8182,4.7355,4.6579,4.5838,4.58,4.5891,4.6091,4.6098,4.615,4.63,4.63,4.63,4.63,4.63,4.63,4.6339,4.7198,4.7588,4.7647,4.8447,4.8798,4.8798,4.8798,4.8794,4.886,4.9744,5.0102,5.0192,5.0996,5.1846,5.2606,5.2606,5.3171,5.3911,5.3911,5.3911,5.3911,5.3911,5.3911,5.4087,5.4944,5.5197,5.5197,5.5197,5.5821,5.6483,5.6483,5.6483,5.6503,5.6503,5.6503,5.6503,5.6503,5.6503,5.623,5.5372,5.5772,5.5558,5.3704,5.3976,5.3716,5.1816,5.1601,5.1257,5.0397,5.0302,5.0302,5.0283,4.8774,4.8181,4.9041,4.7474,4.6519,4.65,4.65,4.6118,4.5316,4.5297,4.5297,4.5297,4.5297,4.5297,4.5297,4.5233,4.5646,3.628,3.7302,0.0,0.0,0.0,0.0,0.0,0.0,0.0,0.0,0.0,0.0,0.0,0.0,0.0,4.7475,4.8954,5.0411,5.0975,5.1031,5.0972,5.0937,5.1431,5.1273,4.9967,5.0161,4.9507,4.7413,4.7567,4.7123,4.5728,4.6302,4.6422,4.591,4.5929,4.5987,4.6013,4.6013,4.6013,4.6013,4.6105,4.6211,4.63,4.6573,4.7022,4.7608,4.7842,4.8271,4.8798,4.879,4.8074,4.7117,4.8607,4.9198,4.9281,5.0092,5.1339,5.2606,5.2606,5.3171,5.3911,5.3911,5.3911,5.3911,5.3911,5.3911,5.395,5.4203,5.4301,5.4301,5.4301,5.4476,5.4827,5.545,5.6054,5.6503,5.6503,5.6503,5.6503,5.6503,5.6503,5.6368,5.5975,5.5947,5.5758,5.5036,5.3983,5.2652,5.0894,5.0684,5.0588,5.034,5.0302,5.0073,4.95,4.9003,4.8812,4.9079,4.8602,4.778,4.6557,4.65,4.6118,4.5316,4.5297,4.5297,4.5297,4.5297,4.5297,4.5316,4.5799,4.6172,3.6691,0.0,0.0,0.0,0.0,0.0,0.0,0.0,0.0,0.0,0.0,0.0,4.6535,4.7412,0.0,4.7306,4.832,4.9382,4.9867,4.9871,4.9838,4.9801,5.0229,5.0081,4.899,4.9067,4.8682,4.7471,4.7201,4.6817,4.6144,4.6323,4.6248,4.58,4.5854,4.5875,4.5899,4.5899,4.5899,4.5899,4.5987,4.6057,4.6144,4.6245,4.6593,4.7081,4.7077,4.7366,4.7795,4.7782,4.7156,4.6339,4.7736,4.8502,4.8904,4.9703,5.0872,5.208,5.208,5.243,5.2879,5.2879,5.2879,5.2879,5.2879,5.2879,5.2937,5.3288,5.3385,5.3377,5.3322,5.3546,5.3925,5.4546,5.5288,5.5862,5.5862,5.6135,5.6388,5.6388,5.6437,5.6437,5.6239,5.6029,5.5709,5.5206,5.3794,5.2327,5.099,5.0818,5.0684,5.034,5.0302,5.0092,4.9614,4.927,4.9098,4.9098,4.8774,4.7952,4.6557,4.6844,4.6481,4.5316,4.5297,4.5297,4.5297,4.5275,4.5428,4.575,4.6172,4.6735,3.6957,0.0,0.0,0.0,0.0,0.0,0.0,0.0,0.0,0.0,0.0,4.6253,4.7062,4.6589,4.6333,4.7062,4.7785,4.828,4.828,4.8174,4.8105,4.8105,4.8182,4.8163,4.8009,4.7413,4.7278,4.7952,4.6509,4.6009,4.6971,4.6105,4.569,4.5887,4.5824,4.5815,4.5867,4.5867,4.5867,4.5867,4.5878,4.5889,4.5889,4.6144,4.6273,4.6277,4.6288,4.6303,4.6303,4.624,4.6209,4.6281,4.7067,4.791,4.8787,4.9586,5.0443,5.1183,5.1261,5.13,5.13,5.13,5.13,5.13,5.13,5.1292,5.144,5.2239,5.2453,5.2407,5.2282,5.2802,5.3382,5.3575,5.4205,5.4796,5.4873,5.5469,5.6032,5.6175,5.6269,5.63,5.6162,5.5998,5.5537,5.4531,5.3487,5.2499,5.1716,5.1544,5.1181,5.0378,5.0302,5.0302,5.0302,4.9633,4.9175,4.9098,4.8353,4.7494,4.6538,4.7264,4.694,4.5316,4.5297,4.5297,4.5297,4.529,4.5687,4.639,4.6483,4.7327,0.0,3.8143,0.0,0.0,0.0,0.0,0.0,0.0,0.0,0.0,4.7418,4.7584,4.7187,4.7403,4.7497,4.7053,4.7636,4.8141,4.8141,4.8105,4.8105,4.8105,4.8702,4.8606,4.7298,4.7567,4.7663,4.7201,4.6182,4.6259,4.7759,4.6413,4.593,4.6639,4.6001,4.5651,4.5665,4.5665,4.5665,4.5665,4.578,4.5815,4.5835,4.5929,4.6049,4.6144,4.6245,4.6292,4.6303,4.6279,4.6245,4.6222,4.6417,4.7008,4.7871,4.8748,4.9586,5.0385,5.1067,5.13,5.13,5.13,5.13,5.13,5.13,5.123,5.1178,5.1372,5.1302,5.1184,5.1141,5.1276,5.1407,5.1455,5.2686,5.407,5.475,5.4624,5.4753,5.5967,5.5675,5.5339,5.5672,5.5691,5.5318,5.4322,5.3388,5.2499,5.1716,5.1009,5.0512,5.0321,5.0302,5.0302,5.0302,5.0149,4.9767,4.9137,4.8907,4.8124,4.6557,4.6691,4.6309,4.5316,4.5297,4.5256,4.5213,4.584,4.6237,4.6439,4.768,4.8447,0.0,0.0,0.0,0.0,0.0,0.0,0.0,0.0,0.0,4.6986,4.7306,4.733,4.6529,4.6675,4.6759,4.6355,4.699,4.7375,4.6951,4.7259,4.7375,4.6951,4.7298,4.7394,4.6951,4.6894,4.7221,4.8048,4.6932,4.6778,4.8029,4.6913,4.624,4.6278,4.5836,4.5586,4.5586,4.5586,4.5586,4.5586,4.5668,4.5696,4.5715,4.584,4.593,4.6005,4.6157,4.6195,4.6209,4.625,4.6226,4.6203,4.6203,4.6742,4.756,4.8008,4.8919,4.9907,4.9955,5.0441,5.1,5.0612,5.0748,5.1058,5.1058,5.1011,5.0868,5.0494,5.0593,5.0697,5.0209,5.0405,5.0678,5.0587,5.1678,5.2887,5.3446,5.3922,5.4472,5.5283,5.5145,5.4929,5.5016,5.4597,5.4081,5.3555,5.3091,5.2499,5.1716,5.12,5.076,5.034,5.0302,5.0302,5.0302,5.0302,4.9958,4.9137,4.9098,4.8506,4.7188,4.6729,4.6118,4.5316,4.5679,4.5848,4.5783,4.6199,4.6801,4.7566,4.839,4.8946,0.0,0.0,0.0,0.0,0.0,0.0,0.0,0.0,0.0,4.6451,4.6701,4.6721,4.6144,4.5797,4.5643,4.5797,4.6297,4.6413,4.5701,4.622,4.6471,4.5893,4.5817,4.6163,4.7028,4.6451,4.6913,4.9009,4.7759,4.7259,4.8067,4.7201,4.6413,4.5836,4.5682,4.5586,4.5586,4.5586,4.5586,4.5586,4.5586,4.5586,4.5603,4.5783,4.5856,4.5897,4.6007,4.6072,4.608,4.6125,4.6157,4.617,4.617,4.6605,4.7272,4.7408,4.8234,4.9244,4.8654,4.9298,5.0264,4.9586,4.9838,5.038,5.038,5.0349,5.0198,4.954,4.9798,5.0135,4.9452,4.9797,5.0333,5.031,5.0958,5.1645,5.2003,5.3056,5.402,5.4297,5.4436,5.4436,5.4166,5.3388,5.2805,5.2805,5.2671,5.2346,5.1697,5.1467,5.1104,5.0378,5.0302,5.0302,5.0302,5.0302,4.9958,4.9137,4.9098,4.8716,4.7857,4.7111,4.6347,4.5526,4.6023,4.6323,4.639,4.6686,4.7547,4.8991,4.9224,4.969,0.0,0.0,0.0,0.0,0.0,0.0,0.0,0.0,4.466,0.0,4.5855,4.7086,4.7663,4.6586,4.5836,4.6605,4.6182,4.572,4.5605,4.5701,4.6009,4.6644,4.674,4.7048,4.7855,4.7836,4.7913,4.8259,4.7432,4.7259,4.8067,4.6624,4.6067,4.6721,4.599,4.5586,4.5586,4.5586,4.5586,4.5586,4.5586,4.5586,4.5586,4.5618,4.5712,4.5822,4.5886,4.5939,4.5939,4.5949,4.6018,4.6111,4.6046,4.6105,4.628,4.698,4.7292,4.7467,4.812,4.8454,4.8634,4.8517,4.8556,4.8634,4.8634,4.8546,4.8449,4.8333,4.826,4.8345,4.8974,4.9201,4.9468,5.013,5.0402,5.076,5.1722,5.1599,5.1705,5.3032,5.3176,5.3062,5.3011,5.2886,5.2805,5.2805,5.2212,5.1735,5.162,5.0951,5.0436,5.0302,5.0302,5.0302,5.0302,5.0302,4.9958,4.9137,4.9098,4.8716,4.7857,4.7704,4.7223,4.6377,4.5753,4.5769,4.6401,4.7805,4.891,4.9792,5.1225,5.1964,3.7166,0.0,0.0,0.0,0.0,0.0,0.0,0.0,4.3758,4.4201,4.4913,4.5413,4.5316,4.4701,4.4316,4.472,4.4836,4.4701,4.4259,4.4586,4.5009,4.5393,4.5047,4.5278,4.6567,4.6259,4.6163,4.6663,4.6374,4.6105,4.599,4.5259,4.4836,4.4778,4.4836,4.4874,4.4874,4.5355,4.5586,4.5586,4.5586,4.5586,4.5586,4.5586,4.5637,4.57,4.5756,4.579,4.579,4.584,4.5883,4.5925,4.5894,4.5871,4.5873,4.6222,4.6588,4.686,4.678,4.7311,4.7952,4.7452,4.7625,4.8029,4.8029,4.7972,4.7834,4.7336,4.7503,4.7895,4.8277,4.8735,4.9289,5.0111,5.0302,5.0421,5.09,5.1221,5.1605,5.23,5.2283,5.1964,5.1486,5.1391,5.1391,5.1391,5.1104,5.0875,5.0875,5.055,5.0302,5.0302,5.0302,5.0302,5.0302,5.0302,5.0149,4.9786,4.9767,4.9595,4.9232,4.8251,4.756,4.7175,4.6816,4.6999,4.7756,4.891,5.0092,5.1319,5.2059,5.24,0.0,0.0,0.0,0.0,0.0,0.0,0.0,0.0,4.2604,0.0,4.3335,4.3143,4.2547,4.2797,4.3162,4.3374,4.3739,4.3797,4.3181,4.3624,4.4066,4.4278,4.3778,4.397,4.5451,4.5009,4.4797,4.524,4.5259,4.4893,4.4047,4.3989,4.372,4.3124,4.3874,4.4297,4.4297,4.5163,4.5586,4.5586,4.5586,4.5586,4.5568,4.5568,4.5568,4.5549,4.5613,4.5642,4.5642,4.5679,4.5722,4.5742,4.5728,4.5694,4.5645,4.5645,4.5979,4.634,4.5667,4.6205,4.7054,4.6405,4.6634,4.7169,4.7169,4.7169,4.7035,4.6385,4.6672,4.7207,4.7417,4.8124,4.8984,4.9805,5.0149,5.0302,5.0302,5.0938,5.1488,5.1488,5.1376,5.1066,5.0417,5.0302,5.0302,5.0302,5.0302,5.0302,5.0302,5.0302,5.0302,5.0302,5.0302,5.0302,5.0302,5.0302,5.0302,5.0302,5.0302,5.0302,5.0278,4.8838,4.801,4.7986,4.7986,4.8262,4.8789,4.9834,5.1033,5.2419,5.2854,5.293,0.0,0.0,0.0,0.0,0.0,0.0,0.0,0.0,4.0642,4.0681,4.07,4.0681,4.0642,4.1989,4.3355,4.4105,4.3624,4.3143,4.3104,4.3143,4.3451,4.4201,4.4259,4.4605,4.5509,4.5547,4.5201,4.4432,4.4374,4.4008,4.3201,4.3162,4.3143,4.3104,4.3874,4.4297,4.4297,4.5163,4.5586,4.5586,4.5586,4.5568,4.5513,4.5513,4.5476,4.5419,4.5475,4.5475,4.5419,4.5419,4.5495,4.5594,4.5543,4.5507,4.5507,4.5507,4.5438,4.5375,4.5337,4.5375,4.5411,4.5373,4.5392,4.543,4.543,4.543,4.5411,4.5373,4.5392,4.5602,4.6366,4.7207,4.8105,4.8945,4.9748,5.0302,5.0302,5.0321,5.0382,5.0382,5.0359,5.0359,5.0302,5.0302,5.0302,5.0302,5.0302,5.0302,5.0302,5.0302,5.0302,5.0302,5.0302,5.0302,5.0302,5.0302,5.0302,5.0302,5.0302,5.0278,5.0212,4.9387,4.8857,4.8758,4.8758,4.8751,4.8789,5.0461,5.1621,5.2456,5.4029,5.4371,0.0,0.0,0.0,0.0,0.0,3.8969,3.9238,3.9508,3.9873,4.0392,4.0489,4.0489,4.0489,4.1008,4.1527,4.1797,4.1623,4.1431,4.1431,4.1431,4.1739,4.2585,4.22,4.22,4.3085,4.3162,4.2797,4.1931,4.2374,4.2335,4.147,4.1431,4.1431,4.1431,4.2258,4.297,4.3528,4.3835,4.3953,4.3936,4.3953,4.3936,4.3846,4.4459,4.4671,4.4595,4.5189,4.5419,4.54,4.5359,4.536,4.54,4.538,4.5361,4.5361,4.5361,4.5341,4.5297,4.5297,4.5297,4.5297,4.5297,4.5297,4.5297,4.5297,4.5297,4.5297,4.5297,4.5297,4.5488,4.629,4.715,4.8162,4.9538,5.0092,5.0302,5.0302,5.0302,5.0302,5.0302,5.0302,5.0302,5.0302,5.0302,5.0302,5.0302,5.0302,5.0302,5.0302,5.0302,5.0302,5.0302,5.0302,5.0302,5.0302,5.0302,5.0302,5.0302,5.0255,5.0231,5.0188,4.9352,4.884,4.8789,4.8764,4.9003,4.9516,5.1177,5.2134,5.2438,5.3594,5.3992,3.5493,0.0,0.0,0.0,0.0,3.7704,3.8216,0.0,3.945,3.9988,4.0296,4.0489,4.0489,4.0489,4.0489,4.0489,4.0489,4.0489,4.0489,4.0489,4.07,4.1296,4.0854,4.0719,4.1316,4.1354,4.1123,4.0527,4.1046,4.1104,4.0527,4.0489,4.0623,4.0931,4.1508,4.2338,4.3492,4.3222,4.3186,4.3403,4.315,4.2961,4.2889,4.352,4.3752,4.3694,4.4574,4.511,4.5359,4.5317,4.5297,4.5297,4.5297,4.5297,4.5297,4.5297,4.5297,4.5297,4.5297,4.5297,4.5297,4.5297,4.5297,4.5297,4.5297,4.5297,4.5297,4.5297,4.5297,4.5411,4.5965,4.694,4.822,4.9901,5.0302,5.0302,5.0302,5.0302,5.0302,5.0302,5.0302,5.0302,5.0302,5.0302,5.0302,5.0302,5.0302,5.0302,5.0302,5.0302,5.0302,5.0302,5.0302,5.0302,5.0302,5.0302,5.0302,5.0278,5.0212,5.0163,5.0139,4.9524,4.9188,4.9181,4.9129,4.9367,4.9898,5.1319,5.2002,5.2021,5.2873,5.3423,0.0,0.0,0.0,0.0,0.0,0.0,3.6444,0.0,3.9238,3.9277,3.9931,4.0508,4.0527,4.0527,4.0527,4.0527,4.0508,4.0489,4.0489,4.0489,4.0489,4.0489,4.0489,4.0489,4.0489,4.0489,4.0489,4.0489,4.0489,4.0489,4.0489,4.0489,4.0893,4.1761,4.1761,4.2552,4.4208,4.3363,4.3307,4.4077,4.3234,4.2794,4.2738,4.2757,4.2776,4.2813,4.3615,4.4437,4.522,4.5277,4.5297,4.5297,4.5297,4.5297,4.5297,4.5297,4.5297,4.5297,4.5297,4.5297,4.5297,4.5297,4.5297,4.5297,4.5297,4.5297,4.5297,4.5297,4.5297,4.5297,4.5316,4.6557,4.822,4.9862,5.0283,5.0302,5.0302,5.0302,5.0302,5.0302,5.0302,5.0302,5.0302,5.0302,5.0302,5.0302,5.0302,5.0302,5.0302,5.0302,5.0302,5.0302,5.0302,5.0302,5.0302,5.0302,5.0278,5.0188,5.0188,5.0139,5.0005,5.0005,4.9978,4.9879,4.9898,4.9898,4.9898,5.077,5.1206,5.1187,5.2002,5.2836,3.5493,0.0,0.0,0.0,0.0,0.0,0.0,0.0,3.7777,3.9027,3.9931,4.0681,4.1316,4.145,4.145,4.145,4.0912,4.0489,4.0489,4.0489,4.0489,4.0489,4.0489,4.0489,4.0489,4.0489,4.0489,0.0,4.0489,4.0489,4.0489,4.0495,4.0866,4.1696,4.1121,4.1313,4.2408,4.1545,4.1221,4.1378,4.1184,4.1052,4.1017,4.1647,4.1896,4.1915,4.2756,4.3271,4.3596,4.48,4.5297,4.5297,4.5297,4.5297,4.5297,4.5297,4.5297,4.5297,4.5297,4.5297,4.5297,4.5297,4.5297,4.5297,4.5297,4.5297,4.5297,4.5297,4.5297,4.543,4.6023,4.6978,4.8086,4.9175,4.9882,5.0302,5.0302,5.0302,5.0302,5.0302,5.0302,5.0302,5.0302,5.0302,5.0302,5.0302,5.0302,5.0302,5.0302,5.0302,5.0302,5.0302,5.0302,5.0302,5.0302,5.0302,5.0278,5.0188,5.0139,5.0108,5.0005,4.9933,4.9925,4.9898,4.9898,4.9898,4.9898,5.077,5.0884,5.0277,5.113,5.1661,0.0,0.0,0.0,0.0,0.0,0.0,3.5963,3.6407,3.6988,0.0,3.8873,3.9604,4.0123,4.0219,4.0335,4.07,4.0335,4.0104,4.045,4.0489,4.0489,4.0489,4.0489,4.0489,4.0489,4.0489,4.0489,4.0489,4.0489,4.0508,4.0511,4.0482,4.0835,4.1662,4.1221,4.151,4.2679,4.1492,4.1052,4.1342,4.0671,4.0346,4.0329,4.0826,4.1036,4.1055,4.1896,4.2259,4.2354,4.3692,4.4456,4.4781,4.5163,4.5297,4.5297,4.5297,4.5297,4.5297,4.5297,4.5297,4.5297,4.5297,4.5297,4.5297,4.5297,4.5297,4.5297,4.5297,4.5297,4.5488,4.629,4.6882,4.757,4.8812,4.9175,4.9366,4.971,4.9805,4.9901,5.0225,5.0302,5.0302,5.0302,5.0302,5.0302,5.0302,5.0302,5.0302,5.0302,5.0302,5.0302,5.0302,5.0278,5.0255,5.0255,5.0231,5.0182,5.0114,5.0082,5.0031,4.9978,4.9925,4.9898,4.9898,4.9898,4.9898,4.9898,5.077,5.094,5.0448,5.0959,5.1206,0.0,0.0,0.0,0.0,0.0,0.0,3.5258,3.5925,3.6603,0.0,3.7392,3.8027,3.8123,3.8127,3.8362,3.9131,3.9262,3.955,4.0373,4.0489,4.0489,4.0489,4.0489,4.0489,4.0489,4.0489,4.0489,4.0489,4.0489,4.0492,4.0449,4.0415,4.082,4.1742,4.172,4.2411,4.3924,4.2374,4.1896,4.2507,4.1017,4.031,4.031,4.031,4.031,4.0348,4.1055,4.1361,4.1418,4.2297,4.3195,4.4093,4.4857,4.5201,4.5297,4.5297,4.5297,4.5297,4.5297,4.5297,4.5297,4.5297,4.5297,4.5297,4.5297,4.5297,4.5297,4.5297,4.5297,4.5449,4.6175,4.6424,4.692,4.8563,4.8449,4.8181,4.9041,4.9232,4.9442,5.0168,5.0302,5.0302,5.0302,5.0302,5.0302,5.0302,5.0302,5.0302,5.0302,5.0302,5.0302,5.0302,5.0231,5.0188,5.0188,5.0133,5.0082,4.9986,5.0005,4.9978,4.9879,4.9898,4.9898,4.9898,4.9898,4.9936,5.005,5.0732,5.1073,5.1073,5.1073,5.1073,0.0,0.0,0.0,0.0,3.5072,0.0,3.5388,3.5595,3.593,0.0,3.7392,3.82,3.8911,3.8914,3.8833,3.8951,3.9025,3.9399,4.0358,4.0489,4.0489,4.0489,4.0489,4.0489,4.0489,4.0489,4.0489,4.0489,4.0489,4.0389,4.012,4.0289,4.0978,4.2224,4.178,4.203,4.3043,4.203,4.1266,4.0788,4.0463,4.031,4.031,4.031,4.031,4.031,4.0482,4.054,4.0597,4.1418,4.2641,4.4036,4.4188,4.4685,4.5297,4.5297,4.5297,4.5297,4.5297,4.5297,4.5297,4.5297,4.5297,4.5297,4.5297,4.5297,4.5297,4.5297,4.5297,4.5335,4.5488,4.6003,4.6768,4.7818,4.8468,4.906,4.9882,5.0073,5.0111,5.0264,5.0302,5.0302,5.0302,5.0302,5.0302,5.0302,5.0302,5.0302,5.0302,5.0255,5.0212,5.0212,5.0158,5.0133,5.0133,5.0108,5.0082,4.9986,5.0005,4.9978,4.9879,4.9898,4.9898,4.9898,4.9898,5.0239,5.0959,5.041,5.0144,5.0144,5.0144,5.0144,0.0,0.0,0.0,3.5897,3.5802,0.0,0.0,3.546,3.5575,3.5979,3.6289,3.6632,3.707,3.6991,3.6977,3.7357,3.7546,3.7978,3.8889,3.9868,4.0489,4.0489,4.0489,4.0489,4.0489,4.0492,4.0495,4.0444,4.0304,4.0139,3.9963,4.008,4.063,4.1715,4.1587,4.1915,4.2794,4.1934,4.1304,4.0883,4.0501,4.031,4.031,4.031,4.031,4.031,4.031,4.031,4.0329,4.075,4.1628,4.2851,4.3673,4.4284,4.4704,4.5144,4.5297,4.5297,4.5297,4.5297,4.5297,4.5297,4.5297,4.5297,4.5297,4.5297,4.5297,4.5297,4.5297,4.5297,4.5297,4.5602,4.6118,4.6959,4.7188,4.7532,4.8793,4.906,4.9175,4.9614,5.0034,5.0302,5.0302,5.0302,5.0302,5.0302,5.0278,5.0255,5.0255,5.0188,5.0158,5.0158,5.0108,5.0057,5.0057,5.0031,4.9978,4.9933,4.9952,4.9952,4.9879,4.9898,4.9898,4.9898,4.9898,5.0107,5.0542,5.0107,5.0107,5.0542,5.0542,5.0315,0.0,0.0,0.0,0.0,0.0,3.6507,0.0,0.0,0.0,3.5628,3.5318,3.5051,0.0,0.0,0.0,3.5275,0.0,0.0,0.0,3.8609,0.0,4.0137,4.0207,4.0342,4.0636,4.066,4.0551,4.0344,4.0022,3.9797,3.9754,3.9791,4.0189,4.1003,4.1277,4.178,4.2545,4.1839,4.1418,4.1266,4.0616,4.031,4.031,4.031,4.031,4.031,4.031,4.031,4.031,4.031,4.0692,4.1418,4.2928,4.373,4.4093,4.4781,4.5163,4.5297,4.5297,4.5297,4.5297,4.5297,4.5297,4.5297,4.5297,4.5297,4.5297,4.5297,4.5297,4.5297,4.5297,4.5297,4.5488,4.6309,4.6003,4.5984,4.7685,4.8048,4.8296,4.9156,4.9862,5.0302,5.0302,5.0302,5.0302,5.0278,5.0236,5.0207,5.0163,5.0133,5.0082,5.0082,5.0031,4.9978,4.9978,4.9925,4.9898,4.9898,4.9898,4.9898,4.9898,4.9898,4.9898,4.9898,4.9898,4.9898,4.9898,4.9898,5.0258,5.0959,5.0959,5.0561,0.0,0.0,0.0,0.0,3.6986,3.664,3.7437,0.0,3.6462,3.6462,0.0,3.5219,0.0,0.0,0.0,0.0,0.0,0.0,3.4753,3.6333,3.7905,3.8785,3.9103,3.9769,4.1073,4.1225,4.088,4.0099,3.9797,3.9486,3.9231,3.9408,3.99,4.0722,4.1018,4.1314,4.1648,4.1552,4.1132,4.0444,4.0348,4.031,4.031,4.031,4.031,4.031,4.031,4.031,4.031,4.031,4.0348,4.054,4.1437,4.2698,4.4017,4.4112,4.4647,4.5297,4.5297,4.5297,4.5297,4.5297,4.5297,4.5297,4.5297,4.5297,4.5297,4.5297,4.5297,4.5297,4.5297,4.5297,4.5488,4.6309,4.6424,4.6844,4.8582,4.8945,4.9194,5.0015,5.0245,5.0302,5.0302,5.0302,5.0278,5.0212,5.0188,5.0182,5.0133,5.0057,5.0005,5.0005,4.9933,4.9906,4.9906,4.9906,4.9898,4.9898,4.9898,4.9898,4.9898,4.9898,4.9898,4.9898,4.9898,4.9898,4.9898,4.9898,4.9936,5.005,5.005,4.9974,0.0,0.0,0.0,0.0,0.0,0.0,3.792,0.0,3.7297,3.7297,0.0,0.0,0.0,0.0,0.0,0.0,3.4293,3.4675,0.0,0.0,3.6205,3.7675,0.0,0.0,3.9715,3.9791,3.9489,3.8709,3.9067,3.9088,3.8609,3.9025,3.9429,3.9757,4.0184,4.0696,4.1257,4.1417,4.1323,4.0998,4.0998,4.075,4.031,4.031,4.031,4.031,4.031,4.031,4.031,4.031,4.031,4.0329,4.0673,4.1514,4.2679,4.3654,4.4246,4.4628,4.5125,4.5297,4.5297,4.5297,4.5297,4.5297,4.5297,4.5297,4.5297,4.5297,4.5297,4.5297,4.5297,4.5297,4.5392,4.5717,4.5793,4.6137,4.7322,4.7589,4.799,4.9328,4.9171,4.911,5.0083,5.0236,5.0212,5.0188,5.0139,5.0063,5.0057,4.9978,4.9933,4.9933,4.9925,4.9898,4.9898,4.9898,4.9898,4.9898,4.9898,4.9898,4.9898,4.9898,4.9898,4.9898,4.9898,4.9898,4.9898,4.9898,4.9898,4.9898,4.9898,4.9898,3.9317,0.0,0.0,0.0,0.0,0.0,0.0,0.0,0.0,0.0,3.7279,0.0,0.0,0.0,0.0,0.0,0.0,3.4091,0.0,3.4125,0.0,0.0,0.0,0.0,0.0,3.8367,3.8201,3.7566,3.8271,3.8569,3.8097,3.8726,3.9101,3.9101,3.9551,4.0113,4.0745,4.1263,4.1475,4.1377,4.1397,4.1052,4.0401,4.0252,4.0176,4.0196,4.0253,4.031,4.031,4.031,4.031,4.031,4.031,4.0654,4.1361,4.3061,4.3825,4.4131,4.4991,4.5297,4.5297,4.5297,4.5297,4.5297,4.5297,4.5297,4.5297,4.5297,4.5297,4.5297,4.5297,4.5297,4.5297,4.5297,4.5297,4.5507,4.6328,4.65,4.694,4.8449,4.8174,4.819,4.9639,4.9887,4.9863,4.9815,4.993,4.9936,4.9675,4.9773,4.9898,4.9898,4.9898,4.9898,4.9898,4.9898,4.9898,4.9898,4.9898,4.9898,4.9898,4.9898,4.9898,4.9898,4.9898,4.9898,4.9898,4.9898,4.9898,4.9898,4.9898,4.9898,0.0,0.0,0.0,4.0166,0.0,0.0,0.0,0.0,3.8954,0.0,0.0,0.0,0.0,0.0,0.0,0.0,0.0,0.0,0.0,0.0,0.0,0.0,0.0,0.0,0.0,3.7567,3.7667,3.7061,3.7585,3.7912,3.7811,3.8637,3.9101,3.9101,3.9376,3.9647,3.993,4.0977,4.1357,4.112,4.1105,4.0972,4.0666,4.0163,3.9914,3.9935,4.0176,4.031,4.031,4.031,4.031,4.031,4.031,4.0329,4.054,4.2221,4.3329,4.4131,4.4991,4.5297,4.5297,4.5297,4.5297,4.5297,4.5297,4.5297,4.5297,4.5297,4.5297,4.5297,4.5297,4.5297,4.5297,4.5297,4.5297,4.5507,4.6328,4.65,4.6768,4.7685,4.7837,4.8086,4.8984,4.9071,4.9001,4.8853,4.9562,4.9772,4.8863,4.9405,4.9898,4.9898,4.9898,4.9898,4.9898,4.9898,4.9898,4.9898,4.9898,4.9898,4.9898,4.9898,4.9898,4.9898,4.9898,4.9898,4.9898,4.9898,4.9898,4.9898,4.9898,4.9898,3.8525,3.9042,3.9998,4.027,4.0117,3.9964,4.0252,4.0062,3.9871,3.9871,3.9164,0.0,0.0,0.0,0.0,0.0,0.0,0.0,0.0,0.0,3.3925,0.0,0.0,0.0,0.0,3.6131,3.6085,3.5639,3.6502,3.7091,3.7206,3.7854,3.8414,3.8833,3.9101,3.9619,4.0419,4.1544,4.2047,4.1878,4.1939,4.1515,4.0678,4.014,3.9914,3.9914,4.0176,4.031,4.031,4.031,4.031,4.031,4.031,4.031,4.0444,4.1533,4.2488,4.3405,4.48,4.4914,4.4532,4.5105,4.5297,4.5297,4.5297,4.5297,4.5297,4.5297,4.5297,4.5297,4.5297,4.5297,4.5297,4.5297,4.5297,4.5373,4.564,4.5698,4.5946,4.6787,4.6434,4.6466,4.7876,4.7619,4.7591,4.8713,4.8593,4.8447,4.8674,4.8932,4.9292,4.9822,4.9898,4.9898,4.9898,4.9898,4.9898,4.9898,4.9898,4.9898,4.9898,4.9898,4.9898,4.9898,4.9898,4.9898,4.9898,4.9898,4.9898,4.9898,4.9898,4.9898,3.8053,3.8988,4.0289,4.0291,4.0291,4.0309,4.0291,4.031,4.0215,3.9909,3.9642,3.9011,0.0,0.0,0.0,0.0,0.0,0.0,0.0,3.3895,0.0,3.3807,3.3947,0.0,0.0,3.4902,3.4809,3.4771,3.5735,3.6466,3.6777,3.7529,3.8173,3.867,3.895,3.9461,4.0253,4.1556,4.2195,4.2152,4.2379,4.1916,4.0831,4.0284,3.9934,3.9762,4.0038,4.0196,4.031,4.031,4.031,4.031,4.031,4.031,4.0406,4.1189,4.2221,4.3386,4.4456,4.4475,4.4093,4.4666,4.4838,4.4895,4.5201,4.5297,4.5354,4.564,4.5507,4.5373,4.564,4.5507,4.5297,4.5297,4.5297,4.5297,4.5297,4.5297,4.5449,4.5965,4.5576,4.5586,4.6953,4.6468,4.6326,4.7732,4.7694,4.7568,4.7782,4.8325,4.8894,4.9405,4.9728,4.9898,4.9898,4.9898,4.9898,4.9898,4.9898,4.9898,4.9898,4.9898,5.005,5.0353,5.005,5.005,5.0353,5.005,4.9898,4.9898,4.9898,4.9898]},{"header":{"parameterUnit":"m.s-1","parameterCategory":1,"la1":30.6,"la2":29.2853,"lo1":-89.7004,"lo2":-87.6739,"dy":0.0162,"dx":0.0183,"nx":112,"ny":82,"refTime":"2023-04-30T12:00:00:Z","depth":0,"parameterNumber":3,"parameterNumberName":"V-component_of_WINDS"},"data":[0.0,0.0,0.0,0.0,0.0,0.0,0.0,0.0,0.0,0.0,0.0,0.0,0.0,0.0,0.0,0.0,0.0,0.0,0.0,0.0,0.0,0.0,0.0,0.0,0.0,0.0,0.0,0.0,0.0,0.0,0.0,0.0,0.0,0.0,0.0,0.0,0.0,0.0,0.0,0.0,0.0,0.0,0.0,0.0,0.0,0.0,0.0,0.0,0.0,0.0,0.0,0.0,0.0,0.0,0.0,0.0,0.0,0.0,0.0,0.0,0.0,0.0,0.0,0.0,0.0,0.0,0.0,0.0,0.0,0.0,0.0,0.0,0.0,0.0,0.0,0.0,0.0,0.0,0.0,0.0,0.0,0.0,0.0,0.0,0.0,0.0,0.0,0.0,0.0,0.0,-0.5619,-0.6108,-0.6278,-0.6268,-0.5983,-0.5953,-0.5643,-0.4934,0.0,0.0,0.0,0.0,0.0,0.0,0.0,0.0,0.0,0.0,0.0,0.0,0.0,0.0,0.0,0.0,0.0,0.0,0.0,0.0,0.0,0.0,0.0,0.0,0.0,0.0,0.0,0.0,0.0,0.0,0.0,0.0,0.0,0.0,0.0,0.0,0.0,0.0,0.0,0.0,0.0,0.0,0.0,0.0,0.0,0.0,0.0,0.0,0.0,0.0,0.0,0.0,0.0,0.0,0.0,0.0,0.0,0.0,0.0,0.0,0.0,0.0,0.0,0.0,0.0,0.0,0.0,0.0,0.0,0.0,0.0,0.0,0.0,0.0,0.0,0.0,0.0,0.0,0.0,0.0,0.0,0.0,0.0,0.0,0.0,0.0,0.0,0.0,0.0,0.0,0.0,0.0,0.0,0.0,0.0,0.0,0.0,0.0,0.0,0.0,0.0,0.0,0.0,0.0,-0.6026,-0.5776,-0.5953,-0.6159,-0.6208,-0.5665,-0.5268,-0.514,0.0,0.0,0.0,0.0,0.0,0.0,0.0,0.0,0.0,0.0,0.0,0.0,0.0,0.0,0.0,0.0,0.0,0.0,0.0,0.0,0.0,0.0,0.0,0.0,0.0,0.0,0.0,0.0,0.0,0.0,0.0,0.0,0.0,0.0,0.0,0.0,0.0,0.0,0.0,0.0,0.0,0.0,0.0,0.0,0.0,0.0,0.0,0.0,0.0,0.0,0.0,0.0,0.0,0.0,0.0,0.0,0.0,0.0,0.0,0.0,0.0,0.0,0.0,0.0,0.0,0.0,0.0,0.0,0.0,0.0,0.0,0.0,0.0,0.0,0.0,0.0,0.0,0.0,0.0,0.0,0.0,0.0,0.0,0.0,0.0,0.0,0.0,0.0,0.0,0.0,0.0,0.0,0.0,0.0,0.0,0.0,0.0,0.0,0.0,0.0,0.0,0.0,0.0,-0.6124,-0.6048,-0.5852,-0.598,-0.6081,-0.6072,-0.5648,-0.5273,-0.5012,-0.4885,0.0,0.0,0.0,0.0,0.0,0.0,0.0,0.0,0.0,0.0,0.0,0.0,0.0,0.0,0.0,0.0,0.0,0.0,0.0,0.0,0.0,0.0,0.0,0.0,0.0,0.0,0.0,0.0,0.0,0.0,0.0,0.0,0.0,0.0,0.0,0.0,0.0,0.0,0.0,0.0,0.0,0.0,0.0,0.0,0.0,0.0,0.0,0.0,0.0,0.0,0.0,0.0,0.0,0.0,0.0,0.0,0.0,0.0,0.0,0.0,0.0,0.0,0.0,0.0,0.0,0.0,0.0,0.0,0.0,0.0,0.0,0.0,0.0,0.0,0.0,0.0,0.0,0.0,0.0,0.0,0.0,0.0,0.0,0.0,0.0,0.0,0.0,0.0,0.0,0.0,0.0,0.0,0.0,0.0,0.0,0.0,0.0,0.0,0.0,0.0,0.0,0.0,-0.5839,-0.5871,-0.5852,-0.5988,-0.5994,-0.5874,-0.5619,-0.5295,-0.4901,-0.4738,0.0,0.0,0.0,0.0,0.0,0.0,0.0,0.0,0.0,0.0,0.0,0.0,0.0,0.0,0.0,0.0,0.0,0.0,0.0,0.0,0.0,0.0,0.0,0.0,0.0,0.0,0.0,0.0,0.0,0.0,0.0,0.0,0.0,0.0,0.0,0.0,0.0,0.0,0.0,0.0,0.0,0.0,0.0,0.0,0.0,0.0,0.0,0.0,0.0,0.0,0.0,0.0,0.0,0.0,0.0,0.0,0.0,0.0,0.0,0.0,0.0,0.0,0.0,0.0,0.0,0.0,0.0,0.0,0.0,0.0,0.0,0.0,0.0,0.0,0.0,0.0,0.0,0.0,0.0,0.0,0.0,0.0,0.0,0.0,0.0,0.0,0.0,0.0,0.0,0.0,0.0,0.0,0.0,0.0,0.0,0.0,0.0,0.0,0.0,0.0,0.0,0.0,-0.582,-0.5452,-0.585,-0.5909,-0.5869,-0.5754,-0.5417,-0.5151,-0.5012,-0.4784,0.0,0.0,0.0,0.0,0.0,0.0,0.0,0.0,0.0,0.0,0.0,0.0,0.0,0.0,0.0,0.0,0.0,0.0,0.0,0.0,0.0,0.0,0.0,0.0,0.0,0.0,0.0,0.0,0.0,0.0,0.0,0.0,0.0,0.0,0.0,0.0,0.0,0.0,0.0,0.0,0.0,0.0,0.0,0.0,0.0,0.0,0.0,0.0,0.0,0.0,0.0,0.0,0.0,0.0,0.0,0.0,0.0,0.0,0.0,0.0,0.0,0.0,0.0,0.0,0.0,0.0,0.0,0.0,0.0,0.0,0.0,0.0,0.0,0.0,0.0,0.0,0.0,0.0,0.0,0.0,0.0,0.0,0.0,0.0,0.0,0.0,0.0,0.0,0.0,0.0,0.0,0.0,0.0,0.0,0.0,0.0,0.0,0.0,0.0,0.0,0.0,0.0,-0.5504,-0.5366,0.0,-0.5657,-0.5749,-0.5629,-0.5423,-0.5186,-0.492,0.0,0.0,0.0,0.0,0.0,0.0,0.0,0.0,0.0,0.0,0.0,0.0,0.0,0.0,0.0,0.0,0.0,0.0,0.0,0.0,0.0,0.0,0.0,0.0,0.0,0.0,0.0,0.0,0.0,0.0,0.0,0.0,0.0,0.0,0.0,0.0,0.0,0.0,0.0,0.0,0.0,0.0,0.0,0.0,0.0,0.0,0.0,0.0,0.0,0.0,0.0,0.0,0.0,0.0,0.0,0.0,0.0,0.0,0.0,0.0,0.0,0.0,0.0,0.0,0.0,0.0,0.0,0.0,0.0,0.0,0.0,0.0,0.0,0.0,0.0,0.0,0.0,0.0,0.0,0.0,0.0,0.0,0.0,0.0,0.0,0.0,0.0,0.0,0.0,0.0,0.0,0.0,0.0,0.0,0.0,0.0,0.0,0.0,0.0,0.0,0.0,0.0,-0.5112,-0.5028,-0.502,0.0,-0.5328,-0.5489,-0.5504,-0.5417,-0.5233,-0.4912,0.0,0.0,0.0,0.0,0.0,0.0,0.0,0.0,0.0,0.0,0.0,0.0,0.0,0.0,0.0,0.0,0.0,0.0,0.0,0.0,0.0,0.0,0.0,0.0,0.0,0.0,0.0,0.0,0.0,0.0,0.0,0.0,0.0,0.0,0.0,0.0,0.0,0.0,0.0,0.0,0.0,0.0,0.0,0.0,0.0,0.0,0.0,0.0,0.0,0.0,0.0,0.0,0.0,0.0,0.0,0.0,0.0,0.0,0.0,0.0,0.0,0.0,0.0,0.0,0.0,0.0,0.0,0.0,0.0,0.0,0.0,0.0,0.0,0.0,0.0,0.0,0.0,0.0,0.0,0.0,0.0,0.0,0.0,0.0,0.0,0.0,0.0,0.0,0.0,0.0,0.0,0.0,0.0,0.0,0.0,0.0,0.0,0.0,0.0,0.0,0.0,0.0,-0.5038,-0.44,-0.4168,-0.4889,-0.501,-0.5102,-0.539,-0.5368,-0.5268,0.0,0.0,0.0,0.0,0.0,0.0,0.0,0.0,0.0,0.0,0.0,0.0,0.0,0.0,0.0,0.0,0.0,0.0,0.0,0.0,0.0,0.0,0.0,0.0,0.0,0.0,0.0,0.0,0.0,0.0,0.0,0.0,0.0,0.0,0.0,0.0,0.0,0.0,0.0,0.0,0.0,0.0,0.0,0.0,0.0,0.0,0.0,0.0,0.0,0.0,0.0,0.0,0.0,0.0,0.0,0.0,0.0,0.0,0.0,0.0,0.0,0.0,0.0,0.0,0.0,0.0,0.0,0.0,0.0,0.0,0.0,0.0,0.0,0.0,0.0,0.0,0.0,0.0,0.0,0.0,0.0,0.0,0.0,0.0,0.0,0.0,0.0,0.0,0.0,0.0,0.0,0.0,0.0,0.0,0.0,0.0,0.0,0.0,0.0,0.0,0.0,0.0,0.0,-0.4044,-0.3734,-0.3648,-0.4011,-0.43,-0.4577,-0.4888,-0.4868,-0.4943,-0.5031,0.0,0.0,0.0,0.0,0.0,0.0,0.0,0.0,0.0,0.0,0.0,0.0,0.0,0.0,0.0,0.0,0.0,0.0,0.0,0.0,0.0,0.0,0.0,0.0,0.0,0.0,0.0,0.0,0.0,0.0,0.0,0.0,0.0,0.0,0.0,0.0,0.0,0.0,0.0,0.0,0.0,0.0,0.0,0.0,0.0,0.0,0.0,0.0,0.0,0.0,0.0,0.0,0.0,0.0,0.0,0.0,0.0,0.0,0.0,0.0,0.0,0.0,0.0,0.0,0.0,0.0,0.0,0.0,0.0,0.0,0.0,0.0,0.0,0.0,0.0,0.0,0.0,0.0,0.0,0.0,0.0,0.0,0.0,0.0,0.0,0.0,0.0,0.0,0.0,0.0,0.0,0.0,0.0,0.0,0.0,0.0,0.0,0.0,0.0,0.0,0.0,0.0,-0.3352,-0.3187,-0.3335,-0.3837,-0.4121,-0.4504,-0.4949,-0.4979,-0.5041,-0.5097,0.0,0.0,0.0,0.0,0.0,0.0,0.0,0.0,0.0,0.0,0.0,0.0,0.0,0.0,0.0,0.0,0.0,0.0,0.0,0.0,0.0,0.0,0.0,0.0,0.0,0.0,0.0,0.0,0.0,0.0,0.0,0.0,0.0,0.0,0.0,0.0,0.0,0.0,0.0,0.0,0.0,0.0,0.0,0.0,0.0,0.0,0.0,0.0,0.0,0.0,0.0,0.0,0.0,0.0,0.0,0.0,0.0,0.0,0.0,0.0,0.0,0.0,0.0,0.0,0.0,0.0,0.0,0.0,0.0,0.0,0.0,0.0,0.0,0.0,0.0,0.0,0.0,0.0,0.0,0.0,0.0,0.0,0.0,0.0,0.0,0.0,0.0,0.0,0.0,0.0,0.0,0.0,0.0,0.0,0.0,0.0,0.0,0.0,0.0,0.0,0.0,0.0,-0.2973,-0.2867,-0.3079,-0.4103,-0.421,-0.4528,-0.5389,-0.5355,-0.5317,-0.5195,0.0,0.0,0.0,0.0,0.0,0.0,0.0,0.0,0.0,0.0,0.0,0.0,0.0,0.0,0.0,0.0,0.0,0.0,0.0,0.0,0.0,0.0,0.0,0.0,0.0,0.0,0.0,0.0,0.0,0.0,0.0,0.0,0.0,0.0,0.0,0.0,0.0,0.0,0.0,0.0,0.0,0.0,0.0,0.0,0.0,0.0,0.0,0.0,0.0,0.0,0.0,0.0,0.0,0.0,0.0,0.0,0.0,0.0,0.0,0.0,-0.0,-0.1097,0.0,0.0,0.0,0.0,0.0,0.0,0.0,0.0,0.0,0.0,0.0,0.0,0.0,0.0,0.0,0.0,0.0,0.0,0.0,0.0,0.0,0.0,0.0,0.0,0.0,0.0,0.0,0.0,0.0,0.0,0.0,0.0,0.0,0.0,0.0,0.0,0.0,0.0,0.0,0.0,-0.3036,-0.2892,-0.2995,-0.3659,-0.3765,-0.4088,-0.487,-0.4848,-0.4986,-0.5195,-0.508,0.0,0.0,0.0,0.0,0.0,0.0,0.0,0.0,0.0,0.0,0.0,0.0,0.0,0.0,0.0,0.0,0.0,0.0,0.0,0.0,0.0,0.0,0.0,0.0,0.0,0.0,0.0,0.0,0.0,0.0,0.0,0.0,0.0,0.0,0.0,0.0,0.0,0.0,0.0,0.0,0.0,0.0,0.0,0.0,0.0,0.0,0.0,0.0,0.0,0.0,0.0,0.0,0.0,0.0,0.0,0.0,0.0,0.0,0.0,0.0557,-0.0158,0.0,0.0,0.0,0.0,0.0,0.0,0.0,0.0,0.0,0.0,0.0,0.0,0.0,0.0,0.0,0.0,0.0,0.0,0.0,0.0,0.0,0.0,0.0,0.0,0.0,0.0,0.0,0.0,0.0,0.0,0.0,0.0,0.0,0.0,0.0,0.0,0.0,0.0,0.0,0.0,-0.2868,-0.2782,-0.2956,-0.3626,-0.3789,-0.4192,-0.4849,-0.5011,-0.5152,-0.5281,-0.5219,0.0,0.0,0.0,0.0,0.0,0.0,0.0,0.0,0.0,0.0,0.0,0.0,0.0,0.0,0.0,0.0,0.0,0.0,0.0,0.0,0.0,0.0,0.0,0.0,0.0,0.0,0.0,0.0,0.0,0.0,0.0,0.0,0.0,0.0,0.0,0.0,0.0,0.0,0.0,0.0,0.0,0.0,0.0,0.0,0.0,0.0,0.0,0.0,0.0,0.0,0.0,0.0,0.0,0.1311,0.141,0.1526,0.1526,0.195,0.2714,0.1254,0.1062,0.1592,-0.0249,0.0,0.0,0.0,0.0,0.0,0.0,0.0,0.0,0.0,0.0,0.0,0.0,0.0,0.0,0.0,0.0,0.0,0.0,0.0,0.0,0.0,0.0,-0.2555,-0.2605,-0.2587,-0.2747,-0.3524,0.0,0.0,0.0,0.0,0.0,0.0,0.0,0.0,0.0,0.0,0.0,-0.2692,-0.2762,-0.3014,-0.3577,-0.3999,-0.4405,-0.4921,-0.5267,-0.5422,-0.5407,-0.5379,-0.5325,0.0,0.0,0.0,0.0,0.0,0.0,0.0,0.0,0.0,0.0,0.0,0.0,0.0,0.0,0.0,0.0,0.0,0.0,0.0,0.0,0.0,0.0,0.0,0.0,0.0,0.0,0.0,0.0,0.0,0.0,0.0,0.0,0.1097,0.1097,0.0,0.0,0.0,0.0,0.0,0.0,0.0,0.0,0.0,0.0,0.0,0.0,0.0,0.1224,0.1416,0.2164,0.2524,0.2666,0.3358,0.383,0.3818,0.3818,0.3907,0.3999,0.3434,0.0,0.2333,0.1538,0.0,0.0,0.0,0.0,0.0,0.0,0.0,0.0,0.0,0.0,0.0,0.0,0.0,0.0,0.0,0.0,0.0,0.0,0.0,0.0,0.0,0.0,-0.267,-0.2679,-0.2714,-0.2752,-0.294,-0.2899,-0.2876,-0.2932,-0.28,-0.2734,0.0,0.0,0.0,0.0,0.0,0.0,-0.2755,-0.2824,-0.3047,-0.36,-0.3744,-0.4112,-0.4928,-0.4918,-0.5026,-0.5443,-0.5428,-0.5363,-0.5344,-0.536,0.0,0.0,0.0,0.0,0.0,0.0,0.0,0.0,0.0,0.0,0.0,0.0,0.0,0.0,0.0,0.0,0.0,0.0,0.0,0.0,0.0,0.0,0.0,0.0,0.0,0.0,0.0,0.0,0.0,0.0313,0.0548,0.0548,0.0235,-0.0157,0.0,0.0,0.0,0.0,0.0,0.0,0.0,0.0,0.0,0.0496,0.0587,0.0763,0.1284,0.2251,0.2818,0.2877,0.387,0.4367,0.4453,0.4453,0.4453,0.4455,0.4309,0.3981,0.3605,0.2309,0.1298,0.042,0.0,0.0,0.0,0.0,-0.0942,-0.1015,-0.0795,-0.0354,-0.0087,-0.0529,0.0,0.0,0.0,0.0,0.0,0.0,0.0,-0.2651,-0.2694,-0.2698,-0.27,-0.2734,-0.2737,-0.2741,-0.2775,-0.2762,-0.2741,-0.2733,-0.271,-0.2684,-0.2657,-0.2629,0.0,0.0,0.0,-0.2747,-0.2867,-0.2905,-0.3039,-0.3297,-0.3578,-0.3916,-0.4201,-0.4701,-0.4958,-0.5037,-0.5294,-0.5439,-0.5371,-0.5368,-0.5401,0.0,0.0,0.0,0.0,0.0,0.0,0.0,0.0,0.0,0.0,0.0,0.0,0.0,0.0,0.0,0.0,0.0,0.0,0.0,0.0,0.0,0.0,0.0,0.0,0.0,0.0,0.0,0.0,0.0393,0.0552,0.0392,0.0315,0.0,0.0,0.0,0.0,0.0,0.0,0.0,-0.0985,-0.1006,-0.0597,0.0172,0.0528,0.0805,0.1175,0.2282,0.2687,0.2458,0.3291,0.3887,0.4253,0.4253,0.435,0.4638,0.4638,0.4626,0.4498,0.2955,0.2053,0.1648,0.0954,0.0343,-0.0,0.0176,0.0088,-0.0175,-0.027,0.0,0.0273,-0.0547,-0.0454,-0.0361,-0.1438,0.0,0.0,0.0,0.0,-0.2733,-0.2808,-0.2805,-0.279,-0.2822,-0.2805,-0.2792,-0.2822,-0.2828,-0.2811,-0.2751,-0.2726,-0.2715,-0.2715,-0.2715,0.0,-0.2736,0.0,-0.2865,-0.2967,-0.2995,-0.3034,-0.3108,-0.3378,-0.3616,-0.3735,-0.4447,-0.4878,-0.4796,-0.5258,-0.5496,-0.5374,-0.5368,-0.5412,-0.5502,0.0,0.0,0.0,0.0,0.0,0.0,0.0,0.0,0.0,0.0,0.0,0.0,0.0,0.0,0.0,0.0,0.0,0.0,0.0,0.0,0.0,0.0,0.0,0.0,0.0,0.0,0.0,0.0,0.0,0.1335,0.1279,0.0,0.0,0.0,0.0,-0.13,-0.1245,-0.0924,-0.0168,-0.0171,0.0265,0.1101,0.2248,0.2313,0.1301,0.2458,0.256,0.1506,0.1577,0.2171,0.3316,0.3316,0.3817,0.482,0.482,0.4775,0.4694,0.4021,0.3033,0.1892,0.1419,0.0851,0.0283,0.0947,0.1231,0.1136,0.1043,0.0665,0.019,-0.0665,-0.1314,-0.175,-0.1805,-0.2361,0.0,0.0,-0.2984,-0.3109,-0.2963,-0.2991,-0.3112,-0.2962,-0.2991,-0.3016,-0.2961,-0.295,-0.2933,-0.2876,-0.2818,-0.2778,-0.2778,0.0,-0.2798,-0.2856,-0.2913,-0.2971,-0.3132,-0.3095,-0.311,-0.3059,-0.3102,-0.3303,-0.3713,-0.4202,-0.4574,-0.4912,-0.5259,-0.5496,-0.5374,-0.5368,-0.5371,-0.5377,-0.5379,0.0,0.0,0.0,0.0,0.0,0.0,0.0,0.0,0.0,0.0,0.0,0.0,0.0,0.0,0.0,0.0,0.0,0.0,0.0,0.0,0.0,0.0,0.0,0.0,0.0,0.0,0.0,0.0,-0.0241,0.0082,0.0,-0.074,-0.067,-0.0768,-0.13,-0.0896,-0.0735,-0.1024,-0.1032,-0.0948,-0.0576,-0.0193,-0.0195,-0.0595,0.0497,0.0901,0.0504,0.1201,0.1803,0.2217,0.2217,0.2418,0.272,0.272,0.2711,0.2694,0.2477,0.2417,0.2425,0.1564,0.0824,0.0367,0.0465,0.0374,0.0094,-0.0095,-0.0286,-0.0477,-0.0763,-0.1423,-0.1977,-0.1963,-0.2415,-0.2966,-0.3006,-0.3004,-0.2995,-0.3106,-0.3127,-0.3139,-0.3116,-0.3127,-0.3137,-0.3115,-0.3111,-0.3011,-0.2991,-0.2937,-0.2872,-0.2797,-0.2879,-0.2936,-0.2883,-0.2921,-0.298,-0.3136,-0.3068,-0.3102,-0.3159,-0.3185,-0.3173,-0.3306,-0.4003,-0.4459,-0.4484,-0.5109,-0.5415,-0.5371,-0.5222,-0.5214,-0.5366,-0.5368,-0.5368,0.0,0.0,0.0,0.0,0.0,0.0,0.0,0.0,0.0,0.0,0.0,0.0,0.0,0.0,0.0,0.0,0.0,0.0,0.0,0.0,0.0,0.0,0.0,0.0,0.0,0.0,-0.0335,-0.1249,-0.0602,-0.0437,-0.1293,-0.0883,-0.081,-0.1359,-0.1036,-0.0966,-0.1555,-0.1566,-0.1576,-0.1586,-0.1205,-0.1212,-0.1616,-0.0511,-0.0205,-0.0611,0.0202,0.0708,0.1018,0.1018,0.1221,0.1627,0.1627,0.1622,0.1613,0.121,0.138,0.1807,0.1219,0.084,0.0561,0.0379,0.0191,-0.0191,-0.0871,-0.1361,-0.1651,-0.164,-0.2021,-0.2401,-0.2385,-0.2654,-0.3027,-0.3068,-0.3065,-0.306,-0.31,-0.311,-0.311,-0.311,-0.311,-0.311,-0.311,-0.311,-0.3104,-0.3085,-0.2999,-0.2912,-0.2853,-0.2925,-0.2977,-0.2939,-0.2982,-0.3041,-0.3102,-0.311,-0.3142,-0.3222,-0.323,-0.3214,-0.3174,-0.3988,-0.4442,-0.4264,-0.499,-0.5455,-0.5371,-0.5219,-0.5211,-0.5366,-0.5368,-0.5368,-0.5368,0.0,0.0,0.0,0.0,0.0,0.0,0.0,0.0,0.0,0.0,0.0,0.0,0.0,0.0,0.0,0.0,0.0,0.0,0.0,0.0,0.0,0.0,0.0,-0.1307,-0.0604,-0.0356,-0.131,-0.0644,-0.047,-0.1353,-0.1492,-0.1516,-0.1489,-0.1542,-0.1564,-0.1536,-0.1562,-0.1591,-0.162,-0.0523,-0.0532,-0.1703,-0.0532,-0.0528,-0.1662,-0.1633,-0.1021,-0.0104,-0.0104,0.0518,0.1449,0.1449,0.1538,0.1413,0.0403,-0.0,0.0,0.0504,0.0706,0.0706,0.0706,0.0706,0.0403,-0.1109,-0.232,-0.3221,-0.3162,-0.3142,-0.3131,-0.3072,-0.3095,-0.3142,-0.3142,-0.3185,-0.323,-0.323,-0.323,-0.323,-0.323,-0.323,-0.323,-0.323,-0.323,-0.3213,-0.3154,-0.3001,-0.2899,-0.2952,-0.2918,-0.2922,-0.3127,-0.3101,0.0,-0.3219,-0.3228,-0.3228,-0.3228,-0.3228,-0.3228,-0.3225,-0.4055,-0.452,-0.4352,-0.5162,-0.5621,-0.5385,-0.5371,-0.5371,-0.5374,-0.5374,-0.5377,-0.5379,0.0,0.0,0.0,0.0,0.0,0.0,0.0,0.0,0.0,0.0,0.0,0.0,0.0,0.0,0.0,0.0,0.0,0.0,0.0,0.0,0.0,0.0,-0.135,-0.1393,-0.1154,-0.1086,-0.1392,-0.1227,-0.1235,-0.1408,-0.1536,-0.1574,-0.1609,-0.1647,-0.1683,-0.1719,-0.1708,-0.1705,-0.1713,-0.1387,-0.1376,-0.1674,-0.1376,-0.1373,-0.1662,-0.1675,-0.1474,-0.1268,-0.1268,-0.1057,-0.0844,-0.0834,-0.0828,-0.0823,-0.1015,-0.1111,-0.1111,-0.101,-0.0909,-0.101,-0.1412,-0.1815,-0.2118,-0.2623,-0.2927,-0.3228,-0.3211,-0.3206,-0.3203,-0.3185,-0.3192,-0.3206,-0.3206,-0.3218,-0.323,-0.323,-0.323,-0.323,-0.323,-0.323,-0.323,-0.323,-0.323,-0.3226,-0.3209,-0.3131,-0.3057,-0.3029,-0.3085,-0.3115,-0.3057,-0.3101,-0.3146,-0.3162,-0.3165,-0.3165,-0.3165,-0.3165,-0.3147,-0.3102,-0.3613,-0.4115,-0.4346,-0.4825,-0.5137,-0.5502,-0.5417,-0.5412,-0.5499,-0.5499,-0.5545,0.0,0.0,0.0,0.0,0.0,0.0,0.0,0.0,0.0,0.0,0.0,0.0,0.0,0.0,0.0,0.0,0.0,0.0,0.0,0.0,0.0,0.0,-0.1714,-0.1414,-0.15,-0.15,-0.151,-0.1558,-0.1575,-0.1588,-0.1599,-0.1616,-0.1641,-0.1677,-0.1707,-0.1733,-0.1756,-0.174,-0.1736,-0.1749,-0.1733,-0.1716,-0.1699,-0.1715,-0.1709,-0.168,-0.1697,-0.1711,-0.1723,-0.1723,-0.1723,-0.1722,-0.1706,-0.1685,-0.1661,-0.1643,-0.1628,-0.1618,0.0,0.0,0.0,0.0,-0.2322,-0.2727,-0.2727,-0.2827,-0.3029,-0.3029,-0.313,-0.323,-0.323,-0.323,-0.323,-0.323,-0.323,-0.3236,-0.3262,-0.3249,-0.3237,-0.3263,-0.3249,-0.323,-0.323,-0.323,-0.323,-0.323,-0.3202,0.0,-0.3131,-0.3162,-0.3177,-0.3132,-0.3155,-0.3177,-0.3177,-0.3177,-0.3177,-0.3177,-0.3177,-0.3153,-0.3093,-0.3531,0.0,0.0,0.0,-0.5149,-0.5542,-0.5559,0.0,0.0,0.0,-0.5662,-0.5733,-0.5662,0.0,0.0,-0.5521,-0.5521,0.0,0.0,0.0,0.0,0.0,0.0,0.0,0.0,0.0,0.0,0.0,0.0,0.0,0.0,0.0,0.0,-0.1533,-0.1487,-0.1605,-0.1598,-0.1593,-0.1623,-0.165,-0.1677,-0.1701,-0.1704,-0.1705,-0.1709,-0.1734,-0.1741,-0.172,-0.172,0.0,0.0,0.0,-0.1759,-0.1755,-0.1755,-0.174,-0.171,-0.1713,-0.1729,-0.1755,-0.1755,-0.1755,-0.1755,-0.1751,-0.172,-0.1672,-0.1669,-0.1653,-0.1634,-0.165,-0.1643,-0.1621,-0.1618,-0.1819,-0.2022,-0.2026,0.0,0.0,-0.274,-0.2945,-0.3149,-0.3149,-0.3149,-0.3251,-0.3251,-0.3251,-0.3262,-0.3309,-0.3282,-0.3253,-0.33,-0.327,-0.323,-0.323,-0.323,-0.323,-0.323,-0.323,-0.323,-0.323,-0.3185,-0.3168,-0.3222,-0.323,-0.323,-0.323,-0.323,-0.3228,-0.3221,-0.3219,0.0,-0.3125,-0.3514,-0.3753,-0.3709,-0.4629,-0.5331,-0.5687,-0.5773,-0.5768,-0.5754,-0.5765,-0.5765,-0.5754,-0.5765,-0.5773,-0.5773,-0.5746,-0.5733,0.0,0.0,0.0,0.0,0.0,0.0,0.0,0.0,0.0,0.0,0.0,0.0,0.0,0.0,0.0,-0.3732,-0.2514,-0.1543,-0.164,-0.1648,-0.1655,-0.1684,-0.1692,-0.1698,-0.1703,-0.1704,-0.1714,-0.1739,-0.1746,-0.1768,-0.1812,-0.1814,-0.1828,-0.1859,-0.1836,-0.1811,-0.1787,-0.1787,-0.1771,-0.1741,-0.1765,0.0,-0.1787,-0.1787,-0.1787,-0.1785,-0.1761,-0.1744,-0.1731,-0.1706,-0.1707,-0.1718,-0.1652,-0.1738,-0.1957,-0.193,-0.2121,-0.2327,-0.2362,-0.2477,-0.2585,-0.252,-0.2743,-0.306,-0.306,-0.3165,0.0,-0.3377,-0.3377,-0.3368,-0.3331,-0.3312,-0.3294,-0.3258,-0.3238,-0.323,-0.323,-0.323,-0.323,-0.323,-0.323,-0.323,-0.323,-0.3221,-0.3217,-0.3229,-0.323,-0.323,-0.323,-0.323,-0.3211,-0.3162,-0.3157,-0.3112,-0.3003,-0.3133,-0.3414,-0.3706,-0.4691,-0.5477,-0.6018,-0.6018,-0.5972,-0.5871,-0.5966,-0.5969,-0.5871,-0.5969,-0.6018,-0.6013,-0.5822,-0.5733,0.0,0.0,0.0,0.0,0.0,0.0,0.0,0.0,0.0,0.0,0.0,-0.5999,0.0,0.0,-0.3899,-0.312,-0.2149,-0.1615,-0.1675,-0.171,-0.1734,-0.1748,-0.1736,-0.1733,-0.1748,-0.175,-0.1756,-0.1771,-0.1787,-0.1808,-0.1838,-0.1855,-0.1877,-0.1907,-0.1864,-0.184,-0.184,-0.1825,-0.181,-0.1795,-0.1825,-0.1832,-0.1818,-0.1818,-0.1809,-0.1794,-0.1779,-0.1763,-0.1747,-0.1717,-0.1722,-0.1744,-0.1684,-0.1783,-0.1913,-0.188,-0.1972,-0.2076,-0.2096,-0.2208,-0.2316,-0.2337,-0.2451,-0.2772,-0.2772,-0.2984,-0.3199,-0.3199,-0.3305,-0.3405,-0.3375,-0.3345,-0.3313,-0.3283,-0.3253,-0.323,-0.323,-0.323,-0.323,-0.323,-0.323,-0.323,-0.323,-0.323,-0.323,-0.323,-0.323,-0.323,-0.323,-0.323,-0.3218,-0.3188,-0.3185,-0.3149,-0.3056,-0.3049,-0.332,-0.3755,-0.4545,-0.514,-0.5705,-0.5992,-0.6056,-0.5996,-0.6053,-0.6056,-0.5994,-0.6056,-0.6086,-0.6083,-0.5964,-0.5909,0.0,0.0,0.0,0.0,0.0,0.0,0.0,0.0,-0.6172,-0.5706,-0.6051,-0.606,-0.4883,-0.4477,-0.3898,-0.2577,-0.236,-0.2326,-0.2166,-0.2103,-0.2136,-0.1811,-0.178,-0.177,-0.1801,-0.1804,-0.1804,-0.1804,-0.1832,-0.1849,-0.1849,-0.1878,-0.1903,-0.1922,-0.1874,-0.1858,-0.1877,-0.1853,-0.184,-0.184,-0.1865,-0.1864,-0.184,-0.1834,-0.1818,-0.1795,-0.1795,-0.1781,-0.1757,-0.1732,-0.1736,-0.1756,-0.1731,-0.1737,-0.1754,-0.1718,-0.1704,-0.1705,-0.1711,-0.182,-0.2036,-0.215,-0.226,-0.2584,-0.2583,-0.2799,-0.3123,-0.3123,-0.3231,-0.3441,-0.3418,-0.3376,-0.3334,-0.3309,-0.3266,-0.323,-0.323,-0.323,-0.323,-0.323,-0.323,-0.323,-0.323,-0.323,-0.323,-0.323,-0.323,-0.323,-0.323,-0.323,-0.323,-0.323,-0.323,-0.3211,-0.3161,-0.3101,-0.3358,-0.3849,-0.4332,-0.4814,-0.5293,-0.5867,-0.6143,-0.6121,-0.6143,-0.6143,-0.6121,-0.6143,-0.6154,-0.6154,-0.6154,-0.613,-0.3373,-0.3481,-0.3308,-0.2707,-0.386,-0.4777,0.0,0.0,-0.5843,-0.5874,-0.5322,-0.5085,-0.567,-0.5252,-0.4738,-0.492,-0.5028,-0.4737,-0.3698,-0.3528,-0.317,-0.1986,-0.1825,-0.1802,-0.1832,-0.1835,-0.1835,-0.1835,-0.1864,-0.1881,-0.1881,-0.1909,-0.1915,-0.1892,-0.1884,-0.1869,-0.1846,-0.1842,-0.184,-0.184,-0.1844,-0.1843,-0.1839,-0.1812,-0.1798,-0.1795,-0.1795,-0.1793,-0.179,-0.1786,-0.1787,-0.1789,-0.1786,-0.1787,-0.1783,-0.1725,-0.1704,-0.1708,-0.1735,-0.1853,-0.1858,-0.2109,-0.2455,-0.2678,-0.301,-0.3233,-0.3567,-0.3567,-0.3568,-0.3544,-0.344,-0.3407,-0.3375,-0.3266,-0.3236,-0.323,-0.323,-0.323,-0.323,-0.323,-0.323,-0.323,-0.323,-0.323,-0.323,-0.323,-0.323,-0.323,-0.323,-0.323,-0.323,-0.323,-0.323,-0.3228,-0.3221,-0.3165,-0.3348,-0.3904,-0.4506,-0.5003,-0.5501,-0.6098,-0.635,-0.6249,-0.6347,-0.6347,-0.6249,-0.6347,-0.6396,-0.6396,-0.6396,-0.6285,-0.3036,-0.3418,-0.3619,0.0,-0.3772,-0.4583,-0.4076,-0.537,-0.6412,-0.5437,-0.5918,-0.6219,-0.5567,-0.5758,-0.5786,0.0,-0.5511,-0.5104,-0.398,-0.3803,-0.3335,-0.2023,-0.1811,-0.1768,-0.1834,-0.1856,-0.1867,-0.1867,-0.1895,-0.1912,-0.1912,-0.1924,-0.1925,-0.1913,-0.1895,-0.1871,-0.184,-0.1876,-0.1884,-0.1867,-0.1885,-0.1884,-0.1866,-0.1835,-0.1812,-0.1795,-0.1795,-0.1795,-0.1795,-0.1795,-0.1795,-0.1795,-0.1795,-0.1795,-0.1792,-0.1766,-0.1746,-0.1735,-0.1765,-0.1764,-0.1864,-0.1897,-0.202,-0.2244,-0.2467,-0.2805,-0.3141,-0.325,-0.3474,-0.3568,-0.3482,-0.3437,-0.3391,-0.3304,-0.3256,-0.323,-0.323,-0.323,-0.323,-0.323,-0.3259,-0.3273,-0.3237,-0.326,-0.3271,-0.3236,-0.323,-0.323,-0.323,-0.323,-0.323,-0.323,-0.323,-0.323,-0.323,-0.3207,-0.3303,-0.353,-0.4033,-0.4533,-0.5135,-0.5634,-0.6114,-0.6369,-0.6412,-0.6412,-0.6366,-0.6415,-0.6437,-0.6437,-0.6437,-0.6382,-0.3119,0.0,0.0,-0.3299,-0.3959,-0.4939,-0.5183,-0.6423,-0.7234,-0.5971,-0.6594,-0.7048,-0.5715,-0.6177,-0.6591,-0.6101,-0.6067,-0.5645,-0.4454,-0.4072,-0.337,-0.2008,-0.1796,-0.1759,-0.1833,-0.1853,-0.1864,-0.1872,-0.1909,-0.1928,-0.1919,-0.1926,-0.1927,-0.1919,-0.1889,-0.1866,-0.1853,-0.1888,-0.1899,-0.1886,-0.19,-0.1894,-0.1872,-0.1842,-0.1816,-0.1795,-0.1795,-0.1795,-0.1795,-0.1795,-0.1795,-0.1795,-0.1795,-0.1795,-0.1795,-0.1795,-0.1776,-0.1752,-0.1775,-0.1768,-0.1863,-0.1887,-0.19,-0.202,-0.2244,-0.258,-0.2805,-0.3026,-0.3362,-0.3574,-0.3512,-0.3466,-0.3417,-0.3339,-0.33,-0.3271,-0.3237,-0.3258,-0.327,-0.3237,-0.3293,-0.3327,-0.3266,-0.3292,-0.3307,-0.3262,-0.3241,-0.323,-0.323,-0.323,-0.323,-0.323,-0.323,-0.323,-0.323,-0.323,-0.323,-0.323,-0.3732,-0.4133,-0.4533,-0.5236,-0.5737,-0.6137,-0.6337,-0.6437,-0.6437,-0.6437,-0.6437,-0.6437,-0.6437,-0.6437,0.0,0.0,-0.5132,-0.3622,-0.4737,-0.632,-0.6457,-0.7313,-0.7922,-0.7932,-0.7132,-0.6431,-0.6339,-0.6532,-0.6829,-0.7191,-0.7239,-0.6792,-0.5856,-0.4581,-0.3254,-0.1918,-0.1795,-0.1805,0.0,-0.1814,-0.181,-0.184,-0.1897,-0.1918,-0.1889,-0.1915,-0.1917,-0.1888,-0.1857,-0.1855,-0.1884,-0.1857,-0.1857,-0.1885,-0.1857,-0.1842,-0.184,-0.181,-0.1796,-0.1795,-0.1795,-0.1795,-0.1795,-0.1795,-0.1795,-0.1795,-0.1795,-0.1795,-0.1795,-0.1795,-0.1776,-0.175,-0.175,-0.175,-0.1859,-0.2079,-0.2214,-0.2244,-0.2581,-0.2915,-0.3137,-0.3137,-0.3362,-0.3574,-0.3512,-0.3495,-0.3465,-0.3349,-0.3365,-0.3375,-0.3256,-0.3323,-0.3372,-0.3253,-0.3327,-0.339,-0.333,-0.332,-0.332,-0.3319,-0.3268,-0.323,-0.323,-0.323,-0.323,-0.323,-0.323,-0.323,-0.323,-0.323,-0.323,-0.323,-0.3732,-0.4033,-0.4033,-0.5035,-0.5636,-0.5636,-0.6134,-0.6437,-0.6437,-0.6437,-0.6437,-0.6437,-0.6437,-0.6437,-0.5004,0.0,-0.4966,-0.5389,-0.6075,-0.6879,-0.7682,-0.8051,-0.7988,-0.7265,-0.7156,-0.703,-0.6506,-0.7071,-0.7744,-0.8167,-0.7756,-0.6995,-0.5771,-0.4581,-0.3288,-0.1909,-0.1743,0.0,0.0,0.0,0.0,-0.1868,-0.1908,-0.1926,-0.1917,-0.1907,-0.1896,-0.1886,-0.1856,-0.1836,-0.1825,-0.1855,-0.1866,-0.1855,-0.1845,-0.1829,-0.181,-0.18,-0.1795,-0.1795,-0.1795,-0.1795,-0.1795,-0.1795,-0.1795,-0.1795,-0.1795,-0.1795,-0.1793,-0.1772,-0.1759,-0.1752,-0.1773,-0.1766,-0.1863,-0.1884,-0.1898,-0.202,-0.2244,-0.258,-0.2917,-0.3026,-0.3362,-0.3582,-0.3563,-0.3526,-0.3486,-0.3447,-0.3425,-0.3401,-0.336,-0.3384,-0.3401,-0.336,-0.3414,-0.345,-0.3392,-0.3413,-0.3412,-0.3334,-0.327,-0.323,-0.323,-0.323,-0.323,-0.323,-0.323,-0.323,-0.323,-0.323,-0.323,-0.323,-0.3331,-0.3632,-0.4033,-0.4334,-0.4834,-0.5634,-0.5737,-0.6034,-0.6437,-0.6437,-0.6437,-0.6437,-0.6437,-0.6437,-0.5282,-0.5526,-0.5955,-0.6584,-0.7208,-0.7696,-0.8387,-0.8411,-0.809,-0.7318,-0.7381,-0.7525,-0.6973,-0.7391,-0.8011,-0.8408,-0.7553,-0.6595,-0.5569,-0.4337,-0.3107,-0.1889,-0.1748,-0.1736,0.0,0.0,0.0,-0.1837,-0.1885,-0.191,-0.1899,-0.1891,-0.1886,-0.1886,-0.1846,-0.1831,-0.1843,-0.185,-0.1843,-0.1824,-0.1824,-0.1814,-0.1795,-0.1795,-0.1795,-0.1795,-0.1795,-0.1795,-0.1795,-0.1795,-0.1795,-0.1795,-0.1795,-0.1795,-0.1793,-0.1773,-0.1765,-0.1765,-0.1763,-0.1757,-0.1752,-0.1772,-0.1787,-0.1795,-0.202,-0.2244,-0.258,-0.2915,-0.3139,-0.3474,-0.3587,-0.3557,-0.3523,-0.3501,-0.3485,-0.3463,-0.3421,-0.3446,-0.3463,-0.3421,-0.3476,-0.3511,-0.3452,-0.3473,-0.3465,-0.3368,-0.3301,-0.3255,-0.3233,-0.323,-0.323,-0.323,-0.323,-0.323,-0.323,-0.323,-0.323,-0.323,-0.323,-0.3331,-0.3732,-0.3932,-0.4435,-0.5336,-0.5534,-0.5837,-0.6437,-0.6437,-0.6437,-0.6437,-0.6437,-0.6437,-0.5088,-0.6265,-0.7775,-0.7318,-0.796,-0.8693,-0.853,-0.8482,-0.8347,-0.7913,-0.7797,-0.774,0.0,0.0,-0.7695,-0.7882,-0.6948,-0.5928,-0.5079,-0.4002,-0.2847,0.0,0.0,0.0,0.0,0.0,0.0,-0.1754,0.0,-0.187,-0.1842,-0.1868,-0.1883,-0.1883,-0.1826,-0.1836,-0.1924,-0.1838,-0.1795,-0.1795,-0.1795,-0.1795,-0.1795,-0.1795,-0.1795,-0.1795,-0.1795,-0.1795,-0.1795,-0.1795,-0.1795,-0.1795,-0.1793,-0.1793,-0.1795,-0.1791,-0.1792,-0.1787,-0.1727,-0.1727,-0.1752,-0.1752,-0.1772,-0.1795,-0.1795,-0.202,-0.2244,-0.2581,-0.2915,-0.3138,-0.3475,-0.3587,-0.3572,-0.3515,-0.3545,-0.3556,-0.3446,-0.3508,-0.3555,-0.3443,-0.3511,-0.357,-0.3511,-0.3499,-0.3478,-0.3425,-0.3365,-0.3304,-0.3243,-0.3233,-0.323,-0.323,-0.323,-0.323,-0.323,-0.323,-0.323,-0.323,-0.323,-0.323,-0.323,-0.3732,-0.4234,-0.4734,-0.5336,-0.5834,-0.6337,-0.6437,-0.6437,-0.6437,-0.6437,-0.6437,-0.5544,-0.6046,-0.6529,-0.7948,-0.8653,-0.8971,-0.871,-0.8482,-0.8258,-0.8028,-0.7624,-0.7336,0.0,0.0,0.0,-0.6766,-0.6702,0.0,-0.4218,-0.367,0.0,-0.1897,0.0,-0.1795,-0.1764,-0.1768,0.0,0.0,-0.1813,-0.1849,-0.184,-0.1848,-0.1852,-0.1852,-0.1814,-0.1806,-0.1829,-0.1806,-0.1795,-0.1795,-0.1795,-0.1795,-0.1795,-0.1795,-0.1795,-0.1795,-0.1795,-0.1795,-0.1795,-0.1795,-0.1795,-0.1793,-0.177,-0.1775,-0.1789,-0.1744,-0.1756,-0.1789,-0.1751,-0.1758,-0.1783,-0.1783,-0.1789,-0.1795,-0.1795,-0.202,-0.2244,-0.2581,-0.2915,-0.3138,-0.3475,-0.3587,-0.3583,-0.3568,-0.3576,-0.3579,-0.3549,-0.3567,-0.3578,-0.3549,-0.3567,-0.3582,-0.3567,-0.3526,-0.3492,-0.3477,-0.3425,-0.3367,-0.3307,-0.3259,-0.323,-0.323,-0.323,-0.323,-0.323,-0.323,-0.323,-0.323,-0.323,-0.323,-0.323,-0.3331,-0.3632,-0.4234,-0.4734,-0.5236,-0.5834,-0.6234,-0.6437,-0.6437,-0.7033,-0.7332,-0.482,-0.5704,-0.6593,-0.7712,-0.8533,-0.8944,-0.8513,-0.8286,-0.8069,-0.7716,-0.7431,0.0,-0.7265,-0.7027,0.0,0.0,0.0,0.0,-0.3507,-0.3362,-0.298,0.0,-0.1807,0.0,-0.1773,-0.1782,-0.1784,0.0,-0.1813,-0.1834,-0.1821,-0.1833,-0.184,-0.184,-0.181,-0.1795,-0.1795,-0.1808,-0.1808,-0.1795,-0.1795,-0.1795,-0.1795,-0.1795,-0.1795,-0.1795,-0.1795,-0.1795,-0.1795,-0.1795,-0.1795,-0.1793,-0.1776,-0.178,-0.1791,-0.1757,-0.1765,-0.1793,-0.1776,-0.178,-0.1795,-0.1795,-0.1795,-0.1795,-0.1795,-0.1907,-0.2132,-0.2357,-0.2692,-0.3027,-0.3251,-0.3475,-0.3587,-0.3587,-0.3587,-0.3587,-0.3587,-0.3587,-0.3587,-0.3587,-0.3587,-0.3587,-0.3587,-0.3559,-0.3537,-0.3537,-0.3486,-0.3428,-0.3369,-0.3308,-0.326,-0.3233,-0.323,-0.323,-0.323,-0.323,-0.323,-0.323,-0.323,-0.323,-0.323,-0.323,-0.3432,-0.4033,-0.4334,-0.5035,-0.6132,-0.6431,-0.6833,-0.7431,-0.7928,-0.8127,-0.3794,-0.5408,-0.7145,-0.701,-0.78,-0.856,-0.787,-0.7809,-0.7624,-0.7165,0.0,-0.7292,-0.7139,-0.6529,-0.5901,-0.5624,0.0,-0.43,-0.3105,-0.303,-0.2879,-0.1903,-0.1824,-0.1828,-0.1797,-0.1823,-0.1827,-0.1797,-0.1823,-0.1827,-0.1797,-0.1824,-0.184,-0.184,-0.1814,-0.1799,-0.1795,-0.1821,-0.1821,-0.1795,-0.1795,-0.1795,-0.1795,-0.1795,-0.1795,-0.1795,-0.1795,-0.1795,-0.1795,-0.1795,-0.1795,-0.1795,-0.1791,-0.1791,-0.1795,-0.1791,-0.1791,-0.1795,-0.1795,-0.1795,-0.1795,-0.1795,-0.1795,-0.1795,-0.1795,-0.1907,-0.202,-0.2244,-0.2468,-0.2805,-0.3138,-0.3362,-0.3587,-0.3587,-0.3587,-0.3587,-0.3587,-0.3587,-0.3587,-0.3587,-0.3587,-0.3587,-0.3587,-0.3587,-0.3587,-0.3587,-0.3542,-0.3488,-0.3431,-0.3364,-0.3298,-0.3237,-0.323,-0.323,-0.323,-0.323,-0.323,-0.323,-0.323,-0.323,-0.323,-0.323,-0.343,-0.3932,-0.4133,-0.5033,-0.6631,-0.693,-0.7627,-0.8726,-0.8924,-0.8924,-0.3467,-0.4842,-0.6064,-0.5767,-0.6781,-0.7569,-0.6746,-0.6574,0.0,0.0,-0.7163,-0.7136,-0.6993,-0.7009,-0.6542,-0.4791,-0.5394,-0.508,-0.2365,-0.2848,-0.312,0.0,-0.1837,-0.1828,-0.1797,-0.1823,0.0,0.0,-0.1823,-0.1827,-0.1797,-0.1824,-0.184,-0.184,-0.1835,-0.1821,-0.1795,-0.18,-0.18,-0.1795,-0.1795,-0.1795,-0.1795,-0.1795,-0.1795,-0.1795,-0.1795,-0.1795,-0.1795,-0.1795,-0.1795,-0.1793,-0.1767,-0.1773,-0.1792,-0.1767,-0.1774,-0.1795,-0.1795,-0.1795,-0.1795,-0.1795,-0.1908,-0.2132,-0.1907,-0.2132,-0.2581,-0.2581,-0.2805,-0.3138,-0.3474,-0.3587,-0.3587,-0.3587,-0.3587,-0.3587,-0.3587,-0.3587,-0.3587,-0.3587,-0.3587,-0.3587,-0.3587,-0.3587,-0.3587,-0.3587,-0.3578,-0.3549,-0.3489,-0.3388,-0.3298,-0.3237,-0.323,-0.323,-0.323,-0.323,-0.323,-0.323,-0.323,-0.323,-0.323,-0.323,-0.323,-0.3331,-0.4634,-0.5434,-0.5834,-0.7332,-0.8233,-0.8531,-0.9422,-0.9817,-0.2599,-0.3731,-0.4821,-0.4515,-0.5396,-0.6253,-0.6097,0.0,0.0,0.0,-0.6973,-0.7034,-0.7037,-0.677,0.0,-0.516,-0.4765,-0.409,-0.2637,-0.2571,0.0,-0.1809,-0.1817,-0.1811,0.0,-0.1808,-0.181,-0.1796,-0.1808,-0.1817,-0.1819,-0.1847,-0.1864,-0.1864,-0.1849,-0.1834,-0.1819,-0.1803,-0.1795,-0.1795,-0.1795,-0.1795,-0.1795,-0.1795,-0.1795,-0.1795,-0.1795,-0.1795,-0.1795,-0.1795,-0.1795,-0.1793,-0.1779,-0.1782,-0.1793,-0.1778,-0.1782,-0.1795,-0.1795,-0.1795,-0.1795,-0.1908,-0.2132,-0.2132,-0.202,-0.2356,-0.2693,-0.2693,-0.2915,-0.3137,-0.325,-0.3475,-0.3587,-0.3587,-0.3587,-0.3587,-0.3587,-0.3587,-0.3587,-0.3587,-0.3587,-0.3587,-0.3587,-0.3587,-0.3587,-0.3587,-0.3587,-0.3786,-0.4377,-0.4411,-0.4113,-0.3288,-0.3755,-0.4033,-0.4033,-0.4531,-0.4828,-0.4828,-0.4828,-0.4828,-0.4828,-0.4828,-0.4828,-0.4828,-0.5629,-0.6326,-0.7027,-0.7922,-0.8821,-0.962,-1.0212,-1.0511,-0.1907,-0.2909,-0.3758,-0.3366,-0.4117,-0.5047,-0.5298,-0.5445,0.0,0.0,-0.6848,-0.7,-0.7082,0.0,-0.6045,0.0,-0.4382,-0.3186,-0.3064,-0.2277,-0.1693,0.0,-0.1791,0.0,-0.1795,-0.1801,0.0,-0.1795,-0.1801,-0.1818,-0.1849,-0.1873,-0.1886,-0.1886,-0.1863,-0.1844,-0.1831,-0.1807,-0.1795,-0.1795,-0.1795,-0.1795,-0.1795,-0.1795,-0.1795,-0.1795,-0.1795,-0.1795,-0.1795,-0.1795,-0.1795,-0.1795,-0.1795,-0.1795,-0.1795,-0.1795,-0.1795,-0.1795,-0.1795,-0.1795,-0.1795,-0.2132,-0.2244,-0.2356,-0.2356,-0.258,-0.2918,-0.2806,-0.3027,-0.325,-0.325,-0.3362,-0.3587,-0.3587,-0.3587,-0.3587,-0.3587,-0.3587,-0.3587,-0.3587,-0.3587,-0.3587,-0.3587,-0.3587,-0.3587,-0.3587,-0.3587,-0.4013,-0.5164,-0.5356,-0.4966,-0.4205,-0.4724,-0.5155,-0.5133,-0.5927,-0.6423,-0.6423,-0.6423,-0.6423,-0.6423,-0.6423,-0.6423,-0.6423,-0.6623,-0.722,-0.8315,-0.8616,-0.941,-1.0605,-1.0703,-1.09,-0.1881,-0.2864,-0.3592,-0.2319,-0.2847,-0.3878,-0.4141,0.0,0.0,-0.6425,-0.6922,-0.7085,-0.697,0.0,0.0,0.0,0.0,-0.3871,0.0,-0.2258,-0.1685,-0.1746,0.0,0.0,-0.1795,-0.182,-0.1825,-0.1797,-0.1821,-0.1849,-0.188,-0.1884,-0.1886,-0.1886,-0.1883,-0.1855,-0.18,-0.1796,-0.1795,-0.1795,-0.1795,-0.1795,-0.1795,-0.1795,-0.1795,-0.1795,-0.1795,-0.1795,-0.1795,-0.1795,-0.1795,-0.1795,-0.1795,-0.1795,-0.1795,-0.1795,-0.1795,-0.1795,-0.1795,-0.1795,-0.1795,-0.2132,-0.2357,-0.2693,-0.2693,-0.3029,-0.3475,-0.3138,-0.325,-0.3587,-0.3587,-0.3587,-0.3587,-0.3587,-0.3587,-0.3587,-0.3587,-0.3587,-0.3587,-0.3587,-0.3587,-0.3587,-0.3587,-0.3587,-0.3587,-0.3587,-0.3587,-0.4032,-0.5248,-0.5286,-0.566,-0.6609,-0.662,-0.6444,-0.6232,-0.6323,-0.6423,-0.6423,-0.6423,-0.6423,-0.6423,-0.6423,-0.6423,-0.6423,-0.7322,-0.7922,-0.8021,-0.9221,-0.992,-1.0117,-1.0609,-1.0806,-0.1836,-0.2231,-0.2589,-0.1918,-0.2153,-0.2739,-0.3706,0.0,-0.4697,-0.6322,-0.6868,-0.7021,-0.7051,-0.7102,0.0,0.0,0.0,0.0,-0.4735,0.0,-0.2522,-0.2565,-0.2057,0.0,0.0,0.0,-0.1808,-0.1796,-0.1823,-0.1846,-0.1857,-0.1876,-0.1894,-0.1913,-0.1877,-0.1847,-0.1823,-0.1804,-0.1795,-0.1795,-0.1795,-0.1795,-0.1795,-0.1795,-0.1795,-0.1795,-0.1795,-0.1795,-0.1795,-0.1795,-0.1795,-0.1795,-0.1795,-0.1795,-0.1795,-0.1795,-0.1795,-0.1795,-0.202,-0.202,-0.2131,-0.2578,-0.2803,-0.2915,-0.2915,-0.3251,-0.3587,-0.3474,-0.3475,-0.3587,-0.3587,-0.3587,-0.3587,-0.3587,-0.3587,-0.3587,-0.3587,-0.3587,-0.3587,-0.3587,-0.3587,-0.3587,-0.3587,-0.3587,-0.381,-0.459,-0.4702,-0.5369,-0.7257,-0.7436,-0.7923,-0.8921,-0.8219,-0.7613,-0.7554,-0.7975,-0.8322,-0.8322,-0.8322,-0.8322,-0.8322,-0.8322,-0.8322,-0.8322,-0.8726,-0.8924,-0.8924,-0.9525,-0.9821,-1.0019,-1.0216,-1.0413,-0.1765,-0.1829,-0.1851,-0.1759,-0.1692,-0.2116,0.0,0.0,-0.4695,-0.6373,-0.6888,-0.7021,-0.7122,-0.6874,0.0,0.0,0.0,-0.5338,-0.5342,-0.4,-0.3038,0.0,0.0,-0.1721,0.0,-0.1785,-0.1799,-0.1808,-0.1828,-0.1844,-0.1853,-0.1874,-0.1896,-0.1917,-0.1876,-0.1849,-0.184,-0.181,-0.1795,-0.1795,-0.1795,-0.1795,-0.1795,-0.1795,-0.1795,-0.1795,-0.1795,-0.1795,-0.1795,-0.1795,-0.1795,-0.1795,-0.1795,-0.1795,-0.1795,-0.1795,-0.1795,-0.1908,-0.202,-0.2132,-0.2244,-0.269,-0.2914,-0.3027,-0.3026,-0.3374,-0.3615,-0.3615,-0.3627,-0.3636,-0.3619,-0.3628,-0.3632,-0.3595,-0.3601,-0.3609,-0.3591,-0.3587,-0.3587,-0.3587,-0.3587,-0.3587,-0.3587,-0.3587,-0.4033,-0.526,-0.5371,-0.626,-0.8589,-0.892,-0.9325,-1.0413,-0.9553,-0.8816,-0.8765,-0.9326,-0.9628,-0.9628,-0.9628,-0.9628,-0.9628,-0.9628,-0.9628,-0.9628,-0.9628,-0.9628,-0.9628,-0.9628,-0.9727,-0.992,-0.992,-1.0117,-0.1664,-0.175,-0.1819,-0.1727,-0.166,-0.209,0.0,0.0,-0.4793,-0.6519,-0.7041,-0.7139,-0.7139,-0.634,-0.5719,0.0,0.0,0.0,-0.432,-0.3532,0.0,0.0,0.0,-0.1705,-0.1705,-0.176,-0.1808,-0.1838,-0.184,-0.1853,-0.1883,-0.1886,-0.1886,-0.1886,-0.1886,-0.187,-0.184,-0.181,-0.1795,-0.1795,-0.1795,-0.1795,-0.1795,-0.1795,-0.1795,-0.1795,-0.1795,-0.1795,-0.1795,-0.1795,-0.1795,-0.1795,-0.1795,-0.1795,-0.1795,-0.1795,-0.202,-0.2132,-0.1907,-0.202,-0.2244,-0.2244,-0.2469,-0.2806,-0.3026,-0.3402,-0.3677,-0.3677,-0.3721,-0.3753,-0.3694,-0.3722,-0.3737,-0.3616,-0.3634,-0.3661,-0.3601,-0.3587,-0.3587,-0.3587,-0.3587,-0.3587,-0.3587,-0.3587,-0.4033,-0.526,-0.5371,-0.626,-0.8589,-0.892,-0.9364,-1.0578,-1.0371,-1.0083,-0.99,-0.9726,-0.9628,-0.9628,-0.9628,-0.9628,-0.9628,-0.9628,-0.9628,-0.9628,-0.9628,-0.9628,-0.9628,-0.9628,-0.9628,-0.9628,-0.992,-1.0117,-0.3552,-0.3583,-0.3446,-0.2737,-0.257,-0.2685,-0.3108,0.0,-0.4619,-0.5737,-0.6599,-0.7139,-0.7139,-0.634,-0.5719,0.0,0.0,0.0,0.0,0.0,0.0,-0.3039,-0.235,-0.1766,0.0,0.0,-0.1799,-0.1808,-0.1848,-0.1866,-0.1855,-0.1894,-0.1907,-0.1887,-0.1866,-0.185,-0.184,-0.181,-0.1795,-0.1795,-0.1795,-0.1795,-0.1795,-0.1795,-0.1795,-0.1795,-0.1795,-0.1795,-0.1795,-0.1795,-0.1795,-0.1795,-0.1795,-0.1795,-0.1795,-0.1795,-0.1907,-0.1908,-0.202,-0.2132,-0.2244,-0.2469,-0.2692,-0.3027,-0.3026,-0.3375,-0.3625,-0.3666,-0.3692,-0.3713,-0.3734,-0.3724,-0.3707,-0.3711,-0.3726,-0.3724,-0.3662,-0.3683,-0.3687,-0.3604,-0.3621,-0.3636,-0.3594,-0.3587,-0.4033,-0.526,-0.6035,-0.7141,-0.8699,-0.9585,-1.0249,-1.0692,-1.0485,-1.0327,-1.0266,-0.9872,-0.9677,-0.9799,-0.9693,-0.9628,-0.9628,-0.9628,-0.9628,-0.9628,-0.9628,-0.9628,-0.9628,-0.9628,-0.9628,-0.9628,-0.9727,-0.9821,0.0,-0.4417,-0.4303,-0.3219,-0.2978,0.0,0.0,0.0,-0.4539,-0.5359,-0.637,-0.7139,-0.7139,-0.6071,-0.5184,0.0,0.0,0.0,0.0,0.0,0.0,-0.26,0.0,0.0,0.0,-0.1789,-0.18,-0.1811,-0.1847,-0.186,-0.1841,-0.1877,-0.1888,-0.1869,-0.185,-0.184,-0.184,-0.181,-0.1795,-0.1795,-0.1795,-0.1795,-0.1795,-0.1795,-0.1795,-0.1795,-0.1795,-0.1795,0.0,-0.1795,-0.1795,-0.1795,-0.1795,-0.1795,-0.1795,-0.1795,-0.1907,-0.1908,-0.202,-0.2132,-0.2244,-0.2469,-0.2816,-0.3168,-0.3281,-0.3523,-0.3673,-0.3758,-0.3781,-0.3785,-0.38,-0.3775,-0.3751,-0.3766,-0.3752,-0.373,-0.3717,-0.3725,-0.3719,-0.3666,-0.3668,-0.3666,-0.3628,-0.3939,-0.4702,-0.5813,-0.7033,-0.8251,-0.9475,-1.0249,-1.0692,-1.0692,-1.0538,-1.0436,-1.0436,-0.9998,-0.977,-0.988,-0.9721,-0.9628,-0.9628,-0.9628,-0.9628,-0.9628,-0.9628,-0.9628,-0.9628,-0.9628,-0.9628,-0.9628,-0.9723,-0.9821,0.0,-0.4589,0.0,0.0,0.0,0.0,0.0,0.0,0.0,-0.5539,-0.6428,-0.7139,-0.7139,-0.5534,-0.4289,0.0,0.0,0.0,0.0,-0.2881,0.0,0.0,-0.1708,0.0,-0.1744,-0.1776,-0.1807,-0.1835,-0.1839,-0.184,-0.184,-0.184,-0.184,-0.184,-0.1838,-0.1838,-0.184,-0.1812,-0.1797,-0.1795,-0.1795,-0.1795,-0.1795,-0.1795,-0.1795,-0.1795,-0.1795,-0.1795,-0.1795,-0.1795,-0.1795,-0.1795,-0.1795,-0.1795,-0.1795,-0.1795,-0.1908,-0.2132,-0.1907,-0.202,-0.2244,-0.2244,-0.2722,-0.3218,-0.3568,-0.3728,-0.38,-0.3913,-0.3944,-0.3932,-0.388,-0.3864,-0.3847,-0.3794,-0.3739,-0.3711,-0.3764,-0.3734,-0.3711,-0.376,-0.3724,-0.3683,-0.3679,-0.453,-0.5704,-0.6808,-0.8029,-0.9251,-1.0472,-1.0692,-1.0692,-1.0692,-1.055,-1.0448,-1.0436,-1.0107,-0.99,-0.9884,-0.9734,-0.964,-0.9628,-0.9628,-0.9628,-0.9628,-0.9628,-0.9628,-0.9628,-0.9628,-0.9628,-0.9628,-0.9826,-0.9821,-0.6232,0.0,-0.6054,-0.4453,-0.3993,-0.3807,0.0,0.0,0.0,0.0,0.0,-0.7139,-0.7139,-0.5534,-0.4289,0.0,0.0,0.0,-0.1794,0.0,0.0,-0.1702,-0.1746,-0.1758,-0.1719,-0.1763,-0.1797,-0.1805,-0.1827,-0.184,-0.184,-0.184,-0.184,-0.184,-0.1818,-0.1817,-0.184,-0.1834,-0.1818,-0.1795,-0.1795,-0.1795,-0.1795,-0.1795,-0.1795,-0.1795,-0.1795,-0.1795,-0.1795,-0.1795,-0.1795,-0.1795,-0.1795,-0.1795,-0.1795,-0.1795,-0.1795,-0.1907,-0.1795,-0.202,-0.2244,-0.269,-0.3061,-0.3224,-0.3617,-0.379,-0.3845,-0.3873,-0.3882,-0.3888,-0.3921,-0.3895,-0.3868,-0.3901,-0.3897,-0.3877,-0.3845,-0.3864,-0.3864,-0.3785,-0.3758,-0.3733,-0.3685,-0.3853,-0.4479,-0.5592,-0.6811,-0.7919,-0.914,-1.0139,-1.0692,-1.0692,-1.0655,-1.0578,-1.0444,-1.0225,-1.0034,-0.9892,-0.9847,-0.9766,-0.9632,-0.9628,-0.9628,-0.9628,-0.9628,-0.9628,-0.9628,-0.9628,-0.9628,-0.9628,-0.9628,-0.9628,-0.6787,-0.697,-0.6766,-0.5205,-0.4879,-0.4736,0.0,0.0,0.0,0.0,0.0,0.0,-0.6517,-0.5539,0.0,0.0,-0.2477,0.0,0.0,0.0,-0.168,-0.172,-0.1742,-0.1751,0.0,-0.1776,-0.1795,-0.1795,-0.181,-0.1819,-0.1819,-0.1819,-0.1826,-0.184,-0.1824,-0.1817,-0.1819,-0.1819,-0.1811,-0.1795,-0.1795,-0.1795,-0.1795,-0.1795,-0.1795,-0.1795,-0.1795,-0.1795,-0.1795,-0.1795,-0.1795,-0.1795,-0.1795,-0.1795,-0.1795,-0.1795,-0.1907,-0.2022,-0.2037,-0.2281,-0.2754,-0.3096,-0.3363,-0.3532,-0.38,-0.3854,-0.3902,-0.3902,-0.3882,-0.3873,-0.3935,-0.3886,-0.3841,-0.3929,-0.3907,-0.3873,-0.3897,-0.3905,-0.389,-0.3824,-0.3788,-0.3749,-0.3688,-0.4079,-0.4814,-0.6035,-0.7143,-0.8361,-0.9585,-1.0249,-1.0692,-1.0692,-1.0692,-1.0623,-1.0448,-1.0343,-1.0172,-0.99,-0.9811,-0.9726,-0.9632,-0.9628,-0.9628,-0.9628,-0.9628,-0.9628,-0.9628,-0.9628,-0.9628,-0.9628,-0.9628,-0.9628,-0.6797,-0.6877,-0.6815,-0.5759,-0.5643,-0.545,0.0,0.0,0.0,0.0,0.0,0.0,0.0,-0.5364,0.0,0.0,0.0,0.0,-0.1618,-0.1635,-0.1663,-0.1734,-0.1728,0.0,-0.1777,-0.1789,-0.1907,-0.2018,-0.213,-0.213,-0.213,-0.213,-0.203,-0.1825,-0.1826,-0.1814,-0.1789,-0.1797,-0.18,-0.1795,-0.1795,-0.1795,-0.1795,-0.1795,-0.1795,-0.1795,-0.1795,-0.1795,-0.1795,-0.1795,-0.1795,-0.1795,-0.1795,-0.1795,-0.1795,-0.1795,-0.2023,-0.2258,-0.2411,-0.2795,-0.3297,-0.3414,-0.3572,-0.386,-0.386,-0.3902,-0.3951,-0.3951,-0.3914,-0.3886,-0.3937,-0.3873,-0.3823,-0.3927,-0.3872,-0.3826,-0.3928,-0.391,-0.3871,-0.3862,-0.3811,-0.3749,-0.3688,-0.453,-0.5596,-0.6943,-0.8042,-0.9151,-1.0508,-1.0708,-1.0692,-1.0692,-1.0692,-1.0623,-1.0448,-1.0408,-1.0245,-0.9904,-0.9746,-0.9657,-0.9628,-0.9628,-0.9628,-0.9628,-0.9628,-0.9628,-0.9628,-0.9628,-0.9628,-0.9628,-0.9628,-0.9628,-0.639,-0.6572,-0.6544,-0.5846,-0.5706,-0.563,0.0,0.0,0.0,0.0,0.0,0.0,0.0,0.0,-0.4141,0.0,0.0,-0.1618,0.0,0.0,-0.1725,-0.1712,0.0,-0.1765,-0.1722,-0.1765,-0.2242,-0.3246,-0.3357,-0.3357,-0.3357,-0.3357,-0.2897,-0.1874,-0.1763,-0.1761,-0.1757,-0.1808,-0.1821,-0.1795,-0.1795,-0.1795,-0.1795,-0.1795,-0.1795,-0.1795,-0.1795,-0.1795,-0.1795,-0.1795,-0.1795,-0.1795,-0.1795,-0.1795,-0.1795,-0.202,-0.2151,-0.2412,-0.2917,-0.3172,-0.3297,-0.3651,-0.3811,-0.386,-0.386,-0.3902,-0.3951,-0.3951,-0.3944,-0.3939,-0.3948,-0.3936,-0.3928,-0.3947,-0.3936,-0.3928,-0.3947,-0.3943,-0.3921,-0.3869,-0.3811,-0.3749,-0.3688,-0.3853,-0.4723,-0.7053,-0.7318,-0.8291,-1.0679,-1.0789,-1.0692,-1.0692,-1.0692,-1.0623,-1.0448,-1.0294,-1.0111,-0.9896,-0.986,-0.9778,-0.9632,-0.9628,-0.9628,-0.9628,-0.9628,-0.9628,-0.9628,-0.9628,-0.9628,-0.9628,-0.9628,-0.9727,-0.6408,-0.6453,-0.6592,-0.6318,-0.6301,-0.6266,0.0,0.0,0.0,0.0,0.0,0.0,0.0,0.0,-0.3474,-0.2449,0.0,-0.1679,-0.1722,-0.1714,-0.1715,0.0,0.0,-0.1965,-0.2625,-0.2775,-0.3246,-0.447,-0.4582,-0.4249,-0.358,-0.3549,-0.2984,-0.1885,-0.1742,-0.1733,-0.175,-0.1761,-0.1776,-0.1795,-0.1778,-0.177,-0.177,-0.177,-0.177,-0.1771,-0.1788,-0.1795,-0.1795,-0.1795,-0.1795,-0.1795,-0.1795,-0.1907,-0.2021,-0.2606,-0.2757,-0.292,-0.344,-0.3579,-0.3704,-0.3856,-0.3864,-0.3867,-0.3899,-0.3928,-0.3951,-0.3951,-0.3927,-0.391,-0.3943,-0.3927,-0.391,-0.3943,-0.3951,-0.3951,-0.3951,-0.3951,-0.3932,-0.3872,-0.3838,-0.38,-0.3737,-0.3704,-0.4613,-0.7067,-0.7315,-0.8048,-1.0614,-1.0806,-1.0692,-1.0692,-1.0692,-1.066,-1.0582,-1.0412,-1.0148,-0.977,-0.9746,-0.9709,-0.9632,-0.9628,-0.9628,-0.9628,-0.9628,-0.9628,-0.9628,-0.9628,-0.9628,-0.9628,-0.9628,-0.9723,-0.6312,-0.6392,-0.6534,-0.6544,0.0,0.0,0.0,0.0,0.0,0.0,0.0,0.0,0.0,-0.3499,0.0,-0.1833,-0.1682,-0.1723,-0.1746,-0.1717,-0.1718,-0.1787,-0.1754,-0.2178,-0.346,-0.358,-0.4242,-0.5665,-0.5773,-0.5212,-0.398,-0.3929,-0.3268,-0.1874,-0.1719,-0.1705,-0.1729,-0.1706,-0.1721,-0.1774,-0.175,-0.1739,-0.1739,-0.1746,-0.175,-0.1751,-0.1782,-0.1795,-0.1795,-0.1795,-0.1795,-0.1795,-0.1795,-0.202,-0.2361,-0.297,-0.325,-0.3423,-0.3839,-0.3869,-0.3888,-0.3935,-0.392,-0.389,-0.3936,-0.3951,-0.3951,-0.3951,-0.3917,-0.3892,-0.3939,-0.3916,-0.3892,-0.394,-0.3951,-0.3951,-0.3951,-0.3951,-0.3932,-0.3872,-0.386,-0.3837,-0.376,-0.3759,-0.4705,-0.7153,-0.7423,-0.8163,-1.0685,-1.0867,-1.0741,-1.0696,-1.0692,-1.0676,-1.0635,-1.0473,-1.0176,-0.9717,-0.9648,-0.9628,-0.9628,-0.9628,-0.9628,-0.9628,-0.9628,-0.9628,-0.9628,-0.9628,-0.9628,-0.9628,-0.9628,-0.9826,-0.5967,-0.6096,-0.6222,-0.6062,0.0,0.0,0.0,0.0,0.0,0.0,0.0,0.0,0.0,-0.2514,-0.1669,-0.1577,-0.1673,-0.1747,-0.1749,0.0,-0.1788,-0.1794,-0.1791,-0.2236,-0.3467,-0.358,-0.4443,-0.6663,-0.6764,-0.6285,-0.5014,-0.5004,-0.4019,-0.1777,-0.1667,-0.1667,-0.1669,-0.1667,-0.168,-0.1711,-0.1708,-0.1707,-0.1708,-0.1737,-0.175,-0.1751,-0.1782,-0.1795,-0.1795,-0.1795,-0.1795,-0.1795,-0.1795,-0.2132,-0.2699,-0.3084,-0.3483,-0.3778,-0.3839,-0.3897,-0.3946,-0.395,-0.3948,-0.3946,-0.395,-0.3951,-0.3951,-0.3951,-0.3947,-0.3946,-0.395,-0.3947,-0.3946,-0.395,-0.3951,-0.3951,-0.3951,-0.3951,-0.3932,-0.3872,-0.386,-0.3823,-0.3704,-0.3732,-0.4703,-0.7264,-0.761,-0.8417,-1.0854,-1.1053,-1.0883,-1.0712,-1.0692,-1.0627,-1.0469,-1.0286,-1.0091,-0.988,-0.9713,-0.9628,-0.9628,-0.9628,-0.9628,-0.9628,-0.9628,-0.9628,-0.9628,-0.9628,-0.9628,-0.9628,-0.9628,-0.992,-0.5789,-0.591,-0.6124,-0.6226,0.0,0.0,0.0,0.0,0.0,0.0,0.0,0.0,0.0,0.0,-0.1654,-0.1654,-0.1707,-0.1763,-0.18,-0.18,-0.2027,-0.2841,-0.2931,-0.3694,-0.5588,-0.581,-0.6436,-0.7957,-0.8138,-0.7542,-0.6162,-0.5521,-0.4429,-0.2697,-0.2053,-0.1634,-0.1634,-0.1634,-0.1639,-0.165,-0.1669,-0.1678,-0.1678,-0.169,-0.1705,-0.1723,-0.1753,-0.1778,-0.1793,-0.1775,-0.1778,-0.1795,-0.2244,-0.2565,-0.2993,-0.3414,-0.3601,-0.3778,-0.3839,-0.3876,-0.3901,-0.3937,-0.3925,-0.3901,-0.394,-0.3951,-0.3951,-0.3951,-0.3951,-0.3951,-0.3951,-0.3951,-0.3951,-0.3951,-0.3951,-0.3951,-0.3951,-0.3951,-0.3944,-0.3921,-0.3917,-0.3902,-0.3856,-0.4585,-0.5684,-0.76,-0.8301,-0.9245,-1.0989,-1.0972,-1.0769,-1.07,-1.0692,-1.0623,-1.0448,-1.0266,-1.0132,-1.0063,-0.9786,-0.9628,-0.9628,-0.9628,-0.9628,-0.9628,-0.9628,-0.9628,-0.9628,-0.9628,-0.9628,-0.9628,-0.9727,-1.0019,-0.5634,-0.5749,-0.604,0.0,0.0,0.0,0.0,0.0,0.0,0.0,0.0,0.0,0.0,0.0,0.0,0.0,-0.2056,-0.2332,-0.2387,-0.2709,-0.326,-0.409,-0.4166,-0.4918,-0.693,-0.7006,-0.7483,-0.8541,-0.8696,-0.8078,-0.6687,-0.595,-0.4882,-0.3286,-0.2538,-0.1919,-0.1617,-0.1617,-0.1617,-0.1617,-0.1638,-0.1648,-0.1648,-0.1658,-0.1673,-0.1692,-0.1722,-0.1747,-0.1765,-0.1744,-0.1857,-0.1988,-0.2555,-0.2986,-0.3185,-0.35,-0.3688,-0.3747,-0.3788,-0.3815,-0.3838,-0.388,-0.3865,-0.3839,-0.388,-0.3894,-0.3898,-0.3917,-0.3922,-0.3922,-0.3922,-0.3936,-0.3951,-0.3951,-0.3951,-0.3951,-0.3951,-0.3951,-0.3951,-0.3951,-0.3951,-0.3944,-0.3925,-0.5035,-0.6374,-0.7637,-0.8704,-0.975,-1.0926,-1.0932,-1.0757,-1.07,-1.0692,-1.0643,-1.0526,-1.0298,-1.0188,-1.0245,-0.9908,-0.9709,-0.9709,-0.9709,-0.9685,-0.9628,-0.9628,-0.9628,-0.9628,-0.9628,-0.9628,-0.9628,-0.992,-1.0151,-0.5398,-0.5669,-0.5951,0.0,0.0,0.0,0.0,0.0,0.0,0.0,0.0,0.0,0.0,0.0,0.0,-0.1761,-0.2818,-0.3579,-0.358,-0.4693,-0.5361,-0.5361,-0.5472,-0.5919,-0.7038,-0.7043,-0.7353,-0.8387,-0.835,-0.7795,-0.6442,-0.6437,-0.5432,-0.3324,-0.3224,-0.2722,-0.1617,-0.1617,-0.1617,-0.1617,-0.1617,-0.1617,-0.1618,-0.1648,-0.1662,-0.1664,-0.1692,-0.1704,-0.1704,-0.1704,-0.1811,-0.2133,-0.2825,-0.3064,-0.318,-0.3454,-0.3625,-0.3679,-0.3679,-0.3718,-0.377,-0.377,-0.377,-0.377,-0.377,-0.377,-0.3782,-0.3842,-0.386,-0.386,-0.386,-0.3903,-0.395,-0.395,-0.395,-0.3951,-0.3951,-0.3951,-0.3951,-0.3951,-0.3951,-0.3932,-0.3872,-0.5002,-0.633,-0.7309,-0.867,-0.9835,-1.0896,-1.0968,-1.0895,-1.0712,-1.0692,-1.0692,-1.0688,-1.0367,-1.0241,-1.0424,-1.0091,-0.9888,-0.9884,-0.9884,-0.9803,-0.9632,-0.9628,-0.9628,-0.9628,-0.9628,-0.9628,-0.9628,-0.9924,-1.0224,-0.5909,-0.5825,0.0,0.0,0.0,0.0,0.0,0.0,0.0,0.0,0.0,0.0,0.0,0.0,0.0,-0.4154,-0.4498,-0.4854,-0.4908,-0.5139,-0.5695,-0.648,-0.6771,-0.7206,-0.8138,-0.8282,-0.8285,-0.836,-0.8387,-0.8203,-0.755,-0.692,-0.6215,-0.5434,-0.4726,-0.4124,-0.3823,-0.3823,-0.3823,-0.3823,-0.3123,-0.2321,-0.1617,-0.1626,-0.1642,-0.1662,-0.1671,-0.1686,-0.1704,-0.1917,-0.2204,-0.2572,-0.2866,-0.3117,-0.3338,-0.3503,-0.359,-0.3679,-0.3679,-0.3718,-0.377,-0.377,-0.377,-0.377,-0.377,-0.377,-0.3773,-0.379,-0.3797,-0.3797,-0.3797,-0.3809,-0.3834,-0.3877,-0.392,-0.3951,-0.3951,-0.3951,-0.3951,-0.3951,-0.3951,-0.4189,-0.5143,-0.6374,-0.7712,-0.8963,-1.0005,-1.0712,-1.0818,-1.0773,-1.0753,-1.07,-1.0692,-1.0643,-1.0521,-1.0416,-1.0375,-1.0432,-1.0331,-1.0156,-0.9896,-0.9884,-0.9803,-0.9632,-0.9628,-0.9628,-0.9628,-0.9628,-0.9628,-0.9632,-1.0258,-1.0554,-0.5811,0.0,0.0,0.0,0.0,0.0,0.0,0.0,0.0,0.0,0.0,0.0,-0.5302,-0.5192,0.0,-0.5076,-0.5505,-0.5845,-0.5902,-0.6344,-0.6893,-0.7554,-0.7731,-0.8044,-0.8528,-0.8652,-0.8584,-0.837,-0.8323,-0.8255,-0.8136,-0.7544,-0.7015,-0.6437,-0.5732,-0.5227,-0.4824,-0.4824,-0.4824,-0.4824,-0.4124,-0.3524,-0.2822,-0.2019,-0.1627,-0.1644,-0.1747,-0.1861,-0.1878,-0.2191,-0.2575,-0.2834,-0.3024,-0.3285,-0.342,-0.3476,-0.3557,-0.3642,-0.3642,-0.3666,-0.3698,-0.3698,-0.3698,-0.3698,-0.3698,-0.3698,-0.3702,-0.3726,-0.3733,-0.385,-0.4314,-0.4449,-0.4362,-0.3934,-0.423,-0.4642,-0.4642,-0.4664,-0.4685,-0.4685,-0.4318,-0.4318,-0.5663,-0.7004,-0.8326,-0.9486,-1.0578,-1.1122,-1.0838,-1.0802,-1.0773,-1.07,-1.0692,-1.0647,-1.0546,-1.0473,-1.0436,-1.0436,-1.0367,-1.0193,-0.9896,-0.9957,-0.988,-0.9632,-0.9628,-0.9628,-0.9628,-0.9727,-0.976,-0.9933,-1.0554,-1.0897,-0.5359,0.0,0.0,0.0,0.0,0.0,0.0,0.0,0.0,0.0,0.0,-0.6295,-0.5987,-0.5514,-0.5177,-0.5154,-0.6185,-0.6893,-0.6893,-0.7846,-0.8482,-0.8482,-0.8496,-0.8492,-0.8465,-0.836,-0.8336,-0.8455,-0.8201,-0.8113,-0.8282,-0.813,-0.7543,-0.6653,-0.6542,-0.6032,-0.5125,-0.5125,-0.5125,-0.5125,-0.5024,-0.4924,-0.4924,-0.2822,-0.1818,-0.1717,-0.192,-0.2022,-0.2022,-0.2524,-0.2725,-0.2831,-0.3085,-0.335,-0.3412,-0.3467,-0.3527,-0.3579,-0.3585,-0.3587,-0.3587,-0.3587,-0.3587,-0.3587,-0.3587,-0.3699,-0.3823,-0.3882,-0.3898,-0.424,-0.538,-0.5666,-0.5375,-0.4334,-0.4981,-0.5759,-0.5767,-0.5708,-0.5766,-0.5904,-0.4923,-0.4555,-0.6027,-0.7248,-0.8424,-0.9493,-1.0518,-1.1159,-1.0992,-1.0956,-1.0879,-1.0708,-1.0692,-1.0692,-1.0692,-1.055,-1.0452,-1.0436,-1.0278,-1.0095,-0.9892,-1.0046,-0.9977,-0.9632,-0.9628,-0.9628,-0.9628,-0.9937,-1.0129,-1.0391,-1.0945,-1.1362,0.0,-0.5616,0.0,0.0,0.0,0.0,0.0,0.0,0.0,0.0,-0.6981,-0.7324,-0.6527,-0.7084,-0.7629,-0.7558,-0.7865,-0.8164,-0.8164,-0.8374,-0.8482,-0.8482,-0.8587,-0.857,-0.834,-0.8387,-0.8404,-0.8323,-0.8143,-0.8157,-0.8421,-0.8184,-0.7995,-0.7909,-0.7698,-0.7537,-0.7335,-0.7335,-0.7335,-0.7335,-0.6434,-0.6032,-0.6034,-0.4726,-0.3624,-0.2822,-0.2019,-0.1819,-0.2022,-0.2122,-0.2424,-0.2827,-0.2839,-0.3081,-0.3347,-0.3409,-0.3467,-0.3523,-0.3571,-0.3587,-0.3587,-0.3587,-0.3587,-0.3587,-0.3587,-0.4257,-0.5041,-0.506,-0.5732,-0.6398,-0.6733,-0.6751,-0.6654,-0.6432,-0.6003,-0.5564,-0.5634,-0.4899,-0.455,-0.5636,-0.5606,-0.6183,-0.8569,-0.9195,-0.9754,-1.0928,-1.1105,-1.1159,-1.0992,-1.0842,-1.0737,-1.0696,-1.0692,-1.0692,-1.0692,-1.066,-1.0578,-1.0444,-1.0396,-1.0229,-0.9896,-0.9925,-0.9843,-0.9632,-0.9628,-0.9723,-0.992,-1.0162,-1.0356,-1.0615,-1.1227,-1.1631,0.0,0.0,0.0,0.0,0.0,0.0,0.0,0.0,0.0,-0.7232,-0.7704,-0.792,-0.737,-0.7811,-0.8245,-0.8174,-0.8286,-0.8353,-0.8279,-0.8333,-0.8353,-0.8279,-0.834,-0.8357,-0.8279,-0.8269,-0.8326,-0.8472,-0.8275,-0.8248,-0.8469,-0.8272,-0.8153,-0.816,-0.8082,-0.8038,-0.8038,-0.8038,-0.8038,-0.8038,-0.7437,-0.7135,-0.7138,-0.5527,-0.4524,-0.3924,-0.2924,-0.2623,-0.2725,-0.2323,-0.2423,-0.2826,-0.2826,-0.2961,-0.3326,-0.3357,-0.3743,-0.4366,-0.4261,-0.4746,-0.5248,-0.5208,-0.5222,-0.5254,-0.5254,-0.5699,-0.6246,-0.6088,-0.6548,-0.7238,-0.7728,-0.7871,-0.814,-0.8692,-0.807,-0.708,-0.6562,-0.6025,-0.5845,-0.6666,-0.6161,-0.6501,-0.9207,-1.0119,-1.0635,-1.1261,-1.1285,-1.1159,-1.0992,-1.0883,-1.0789,-1.07,-1.0692,-1.0692,-1.0692,-1.0692,-1.0619,-1.0444,-1.0436,-1.031,-1.003,-0.9933,-0.9803,-0.9632,-0.9709,-0.985,-1.015,-1.0348,-1.0697,-1.12,-1.1618,-1.1977,0.0,0.0,0.0,0.0,0.0,0.0,0.0,0.0,0.0,-0.8191,-0.8235,-0.8238,-0.8136,-0.8075,-0.8048,-0.8075,-0.8163,-0.8184,-0.8058,-0.815,-0.8194,-0.8092,-0.8079,-0.814,-0.8292,-0.8191,-0.8272,-0.8642,-0.8421,-0.8333,-0.8476,-0.8323,-0.8184,-0.8082,-0.8055,-0.8038,-0.8038,-0.8038,-0.8038,-0.8038,-0.8038,-0.8038,-0.7939,-0.6129,-0.5225,-0.5027,-0.4126,-0.3828,-0.3728,-0.3124,-0.2924,-0.3026,-0.3026,-0.3259,-0.3513,-0.3523,-0.4432,-0.5502,-0.5329,-0.6053,-0.6952,-0.6859,-0.6893,-0.6968,-0.6968,-0.7188,-0.7278,-0.7183,-0.7442,-0.7828,-0.872,-0.9117,-0.9442,-1.0464,-1.0021,-0.9106,-0.7888,-0.7575,-0.7592,-0.7994,-0.7288,-0.7288,-0.9429,-1.0619,-1.1224,-1.1224,-1.1196,-1.1126,-1.0988,-1.094,-1.0863,-1.0708,-1.0692,-1.0692,-1.0692,-1.0692,-1.0619,-1.0444,-1.0436,-1.0355,-1.0172,-1.0014,-0.9851,-0.9677,-0.9782,-1.0058,-1.0391,-1.0671,-1.1196,-1.1875,-1.2159,-1.2389,0.0,0.0,0.0,0.0,0.0,0.0,0.0,0.0,-0.7774,0.0,-0.8085,-0.8303,-0.8404,-0.8214,-0.8082,-0.8218,-0.8143,-0.8062,-0.8041,-0.8058,-0.8113,-0.8225,-0.8241,-0.8296,-0.8438,-0.8435,-0.8448,-0.8509,-0.8364,-0.8333,-0.8476,-0.8221,-0.8123,-0.8238,-0.8109,-0.8038,-0.8038,-0.8038,-0.8038,-0.8038,-0.8038,-0.8038,-0.8038,-0.7736,-0.7036,-0.6134,-0.5127,-0.4626,-0.4626,-0.4728,-0.4431,-0.3831,-0.413,-0.4338,-0.4558,-0.4627,-0.5388,-0.6355,-0.6335,-0.6487,-0.6619,-0.6603,-0.6608,-0.6619,-0.6619,-0.7364,-0.8216,-0.8197,-0.8944,-0.9836,-1.0075,-1.0234,-1.0289,-1.0655,-1.0598,-1.0212,-0.9004,-0.7942,-0.7497,-0.8875,-0.9856,-1.0555,-1.0906,-1.1121,-1.1224,-1.1224,-1.1098,-1.0997,-1.0972,-1.083,-1.072,-1.0692,-1.0692,-1.0692,-1.0692,-1.0692,-1.0619,-1.0444,-1.0436,-1.0355,-1.0172,-1.014,-1.0145,-1.0175,-0.9829,-0.9938,-1.0606,-1.1037,-1.1629,-1.2299,-1.2772,-1.2956,-0.6053,0.0,0.0,0.0,0.0,0.0,0.0,0.0,-0.7716,-0.7794,-0.7919,-0.8007,-0.7991,-0.7882,-0.7814,-0.7885,-0.7906,-0.7882,-0.7804,-0.7862,-0.7936,-0.8004,-0.7943,-0.7984,-0.8211,-0.8157,-0.814,-0.8228,-0.8177,-0.813,-0.8109,-0.798,-0.7906,-0.7896,-0.7906,-0.7913,-0.7913,-0.7997,-0.8038,-0.8038,-0.8038,-0.8038,-0.8038,-0.8038,-0.7739,-0.7238,-0.6329,-0.5927,-0.5927,-0.5527,-0.5329,-0.5131,-0.5229,-0.5429,-0.5734,-0.5778,-0.6444,-0.7527,-0.7409,-0.7917,-0.8563,-0.8474,-0.8505,-0.8577,-0.8577,-0.8999,-0.9406,-0.9308,-0.9665,-1.018,-1.0262,-1.0359,-1.0477,-1.0651,-1.0692,-1.0602,-1.0009,-0.9032,-0.8404,-0.8987,-1.0163,-1.1045,-1.0944,-1.0923,-1.0923,-1.0923,-1.0863,-1.0814,-1.0814,-1.0745,-1.0692,-1.0692,-1.0692,-1.0692,-1.0692,-1.0692,-1.066,-1.0582,-1.0578,-1.0542,-1.0465,-1.0476,-1.0435,-1.0458,-1.0272,-1.0527,-1.1245,-1.1629,-1.2142,-1.2795,-1.298,-1.3065,0.0,0.0,0.0,0.0,0.0,0.0,0.0,0.0,-0.7512,0.0,-0.7641,-0.7607,-0.7502,-0.7546,-0.7611,-0.7648,-0.7712,-0.7723,-0.7614,-0.7692,-0.777,-0.7807,-0.7719,-0.7753,-0.8014,-0.7936,-0.7899,-0.7977,-0.798,-0.7916,-0.7767,-0.7756,-0.7709,-0.7604,-0.7736,-0.7811,-0.7811,-0.7963,-0.8038,-0.8038,-0.8038,-0.8038,-0.8137,-0.8137,-0.8137,-0.8134,-0.7531,-0.7229,-0.7229,-0.6725,-0.6426,-0.6429,-0.6528,-0.6625,-0.6822,-0.6822,-0.7591,-0.8589,-0.8464,-0.9086,-1.0002,-0.9864,-0.9912,-1.0026,-1.0026,-1.0026,-0.9998,-0.986,-0.992,-1.0034,-1.0079,-1.0229,-1.0412,-1.0586,-1.066,-1.0692,-1.0692,-1.0017,-0.9427,-0.9427,-1.0219,-1.0854,-1.0716,-1.0692,-1.0692,-1.0692,-1.0692,-1.0692,-1.0692,-1.0692,-1.0692,-1.0692,-1.0692,-1.0692,-1.0692,-1.0692,-1.0692,-1.0692,-1.0692,-1.0692,-1.0802,-1.0715,-1.0753,-1.0858,-1.0858,-1.1142,-1.1713,-1.1964,-1.2488,-1.3069,-1.3178,-1.3197,0.0,0.0,0.0,0.0,0.0,0.0,0.0,0.0,-0.7166,-0.7173,-0.7177,-0.7173,-0.7166,-0.7404,-0.7645,-0.7777,-0.7692,-0.7607,-0.76,-0.7607,-0.7662,-0.7794,-0.7804,-0.7865,-0.8024,-0.8031,-0.797,-0.7834,-0.7824,-0.776,-0.7617,-0.7611,-0.7607,-0.76,-0.7736,-0.7811,-0.7811,-0.7963,-0.8038,-0.8038,-0.8038,-0.8137,-0.8333,-0.8333,-0.8531,-0.8726,-0.8428,-0.8428,-0.8726,-0.8931,-0.8432,-0.7528,-0.7826,-0.7922,-0.7922,-0.7922,-0.8627,-0.9541,-0.9533,-0.9541,-0.9652,-0.9644,-0.9648,-0.9657,-0.9657,-0.9657,-0.9652,-0.9644,-0.9648,-0.9693,-0.9855,-1.0034,-1.0225,-1.0404,-1.0574,-1.0692,-1.0692,-1.0696,-1.0594,-1.0594,-1.0704,-1.0704,-1.0692,-1.0692,-1.0692,-1.0692,-1.0692,-1.0692,-1.0692,-1.0692,-1.0692,-1.0692,-1.0692,-1.0692,-1.0692,-1.0692,-1.0692,-1.0692,-1.0692,-1.0802,-1.1017,-1.0949,-1.1167,-1.1593,-1.1593,-1.1704,-1.1713,-1.2115,-1.2632,-1.3079,-1.3471,-1.3556,0.0,0.0,0.0,0.0,0.0,-0.6871,-0.6919,-0.6966,-0.7031,-0.7122,-0.7139,-0.7139,-0.7139,-0.7231,-0.7322,-0.737,-0.7339,-0.7305,-0.7305,-0.7305,-0.736,-0.7509,-0.7441,-0.7441,-0.7597,-0.7611,-0.7546,-0.7394,-0.7472,-0.7465,-0.7312,-0.7305,-0.7305,-0.7305,-0.7451,-0.7577,-0.7675,-0.7729,-0.7849,-0.7945,-0.7849,-0.7945,-0.8324,-0.834,-0.8481,-0.8972,-0.8886,-0.8931,-0.9031,-0.9331,-0.9229,-0.8928,-0.9027,-0.9023,-0.9023,-0.9023,-0.9225,-0.9628,-0.9628,-0.9628,-0.9628,-0.9628,-0.9628,-0.9628,-0.9628,-0.9628,-0.9628,-0.9628,-0.9628,-0.9669,-0.9839,-1.0022,-1.0237,-1.053,-1.0647,-1.0692,-1.0692,-1.0692,-1.0692,-1.0692,-1.0692,-1.0692,-1.0692,-1.0692,-1.0692,-1.0692,-1.0692,-1.0692,-1.0692,-1.0692,-1.0692,-1.0692,-1.0692,-1.0692,-1.0692,-1.0692,-1.0692,-1.0692,-1.0911,-1.1021,-1.1126,-1.128,-1.15,-1.1713,-1.182,-1.1991,-1.2116,-1.2641,-1.2999,-1.3074,-1.3362,-1.3462,-0.6338,0.0,0.0,0.0,0.0,-0.6733,-0.7083,0.0,-0.6956,-0.7051,-0.7105,-0.7139,-0.7139,-0.7139,-0.7139,-0.7139,-0.7139,-0.7139,-0.7139,-0.7139,-0.7177,-0.7282,-0.7204,-0.718,-0.7285,-0.7292,-0.7251,-0.7146,-0.7238,-0.7248,-0.7146,-0.7139,-0.7163,-0.7217,-0.7319,-0.7561,-0.7767,-0.7719,-0.7809,-0.8142,-0.79,-0.8059,-0.8434,-0.8361,-0.8604,-0.9088,-0.917,-0.928,-0.9331,-0.9529,-0.9628,-0.9628,-0.9628,-0.9628,-0.9628,-0.9628,-0.9628,-0.9628,-0.9628,-0.9628,-0.9628,-0.9628,-0.9628,-0.9628,-0.9628,-0.9628,-0.9628,-0.9628,-0.9628,-0.9652,-0.977,-0.9977,-1.0249,-1.0607,-1.0692,-1.0692,-1.0692,-1.0692,-1.0692,-1.0692,-1.0692,-1.0692,-1.0692,-1.0692,-1.0692,-1.0692,-1.0692,-1.0692,-1.0692,-1.0692,-1.0692,-1.0692,-1.0692,-1.0692,-1.0692,-1.0692,-1.0692,-1.0802,-1.1017,-1.1236,-1.1345,-1.1661,-1.1809,-1.1921,-1.2135,-1.2309,-1.2441,-1.2795,-1.2965,-1.297,-1.3183,-1.332,0.0,0.0,0.0,0.0,0.0,0.0,-0.7497,0.0,-0.6919,-0.6926,-0.7041,-0.7143,-0.7146,-0.7146,-0.7146,-0.7146,-0.7143,-0.7139,-0.7139,-0.7139,-0.7139,-0.7139,-0.7139,-0.7139,-0.7139,-0.7139,-0.7139,-0.7139,-0.7139,-0.7139,-0.7139,-0.7139,-0.721,-0.7458,-0.7458,-0.7695,-0.8193,-0.8037,-0.8124,-0.8568,-0.8404,-0.8415,-0.8695,-0.8699,-0.88,-0.91,-0.9271,-0.9445,-0.9612,-0.9624,-0.9628,-0.9628,-0.9628,-0.9628,-0.9628,-0.9628,-0.9628,-0.9628,-0.9628,-0.9628,-0.9628,-0.9628,-0.9628,-0.9628,-0.9628,-0.9628,-0.9628,-0.9628,-0.9628,-0.9628,-0.9632,-0.9896,-1.0249,-1.0599,-1.0688,-1.0692,-1.0692,-1.0692,-1.0692,-1.0692,-1.0692,-1.0692,-1.0692,-1.0692,-1.0692,-1.0692,-1.0692,-1.0692,-1.0692,-1.0692,-1.0692,-1.0692,-1.0692,-1.0692,-1.0692,-1.0692,-1.0802,-1.1126,-1.1126,-1.1345,-1.2005,-1.2005,-1.2114,-1.2436,-1.2441,-1.2441,-1.2441,-1.2658,-1.2767,-1.2762,-1.2965,-1.3173,-0.6338,0.0,0.0,0.0,0.0,0.0,0.0,0.0,-0.6661,-0.6881,-0.7041,-0.7173,-0.7285,-0.7309,-0.7309,-0.7309,-0.7214,-0.7139,-0.7139,-0.7139,-0.7139,-0.7139,-0.7139,-0.7139,-0.7139,-0.7139,-0.7139,0.0,-0.7139,-0.7139,-0.7139,-0.7323,-0.7574,-0.7916,-0.7807,-0.7843,-0.8147,-0.7981,-0.8012,-0.8324,-0.8099,-0.8259,-0.8625,-0.8568,-0.8714,-0.8909,-0.9088,-0.9198,-0.9267,-0.9522,-0.9628,-0.9628,-0.9628,-0.9628,-0.9628,-0.9628,-0.9628,-0.9628,-0.9628,-0.9628,-0.9628,-0.9628,-0.9628,-0.9628,-0.9628,-0.9628,-0.9628,-0.9628,-0.9628,-0.9657,-0.9782,-0.9985,-1.0221,-1.0452,-1.0603,-1.0692,-1.0692,-1.0692,-1.0692,-1.0692,-1.0692,-1.0692,-1.0692,-1.0692,-1.0692,-1.0692,-1.0692,-1.0692,-1.0692,-1.0692,-1.0692,-1.0692,-1.0692,-1.0692,-1.0692,-1.0692,-1.0802,-1.1126,-1.1345,-1.1568,-1.2005,-1.2219,-1.2332,-1.2441,-1.2441,-1.2441,-1.2441,-1.2658,-1.2687,-1.2535,-1.2748,-1.288,0.0,0.0,0.0,0.0,0.0,0.0,-0.6909,-0.6665,-0.6522,0.0,-0.6854,-0.6983,-0.7075,-0.7092,-0.7112,-0.7177,-0.7112,-0.7071,-0.7132,-0.7139,-0.7139,-0.7139,-0.7139,-0.7139,-0.7139,-0.7139,-0.7139,-0.7139,-0.7139,-0.7143,-0.7234,-0.7503,-0.7845,-0.8098,-0.8012,-0.8163,-0.8489,-0.8253,-0.8259,-0.8599,-0.8275,-0.83,-0.8572,-0.8585,-0.8629,-0.8727,-0.8905,-0.8982,-0.9003,-0.9287,-0.9449,-0.9518,-0.96,-0.9628,-0.9628,-0.9628,-0.9628,-0.9628,-0.9628,-0.9628,-0.9628,-0.9628,-0.9628,-0.9628,-0.9628,-0.9628,-0.9628,-0.9628,-0.9628,-0.9669,-0.9839,-0.9965,-1.0111,-1.0375,-1.0452,-1.0493,-1.0566,-1.0586,-1.0607,-1.0676,-1.0692,-1.0692,-1.0692,-1.0692,-1.0692,-1.0692,-1.0692,-1.0692,-1.0692,-1.0692,-1.0692,-1.0692,-1.0802,-1.0911,-1.0911,-1.1021,-1.124,-1.1455,-1.1678,-1.1896,-1.2114,-1.2332,-1.2441,-1.2441,-1.2441,-1.2441,-1.2441,-1.2658,-1.2701,-1.2578,-1.2706,-1.2767,0.0,0.0,0.0,0.0,0.0,0.0,-0.7253,-0.6902,-0.6454,0.0,-0.6593,-0.6705,-0.6722,-0.6809,-0.6937,-0.7076,-0.7011,-0.7063,-0.7119,-0.7139,-0.7139,-0.7139,-0.7139,-0.7139,-0.7139,-0.7139,-0.7139,-0.7139,-0.7139,-0.7231,-0.768,-0.7856,-0.8027,-0.8398,-0.8204,-0.8436,-0.9036,-0.8717,-0.8714,-0.9035,-0.8718,-0.8568,-0.8568,-0.8568,-0.8568,-0.8576,-0.8727,-0.8792,-0.8804,-0.8991,-0.9181,-0.9372,-0.9535,-0.9608,-0.9628,-0.9628,-0.9628,-0.9628,-0.9628,-0.9628,-0.9628,-0.9628,-0.9628,-0.9628,-0.9628,-0.9628,-0.9628,-0.9628,-0.9628,-0.9661,-0.9815,-0.9868,-0.9973,-1.0322,-1.0298,-1.0241,-1.0424,-1.0465,-1.0509,-1.0664,-1.0692,-1.0692,-1.0692,-1.0692,-1.0692,-1.0692,-1.0692,-1.0692,-1.0692,-1.0692,-1.0692,-1.0692,-1.1021,-1.1126,-1.1126,-1.1459,-1.1678,-1.2001,-1.2005,-1.2114,-1.2436,-1.2441,-1.2441,-1.2441,-1.2441,-1.245,-1.2479,-1.2649,-1.2734,-1.2734,-1.2734,-1.2734,0.0,0.0,0.0,0.0,-0.8016,0.0,-0.6799,-0.6437,-0.6335,0.0,-0.6593,-0.6736,-0.6861,-0.7388,-0.7901,-0.8102,-0.794,-0.7658,-0.7207,-0.7139,-0.7139,-0.7139,-0.7139,-0.7139,-0.7139,-0.7139,-0.7139,-0.7139,-0.7139,-0.7577,-0.8803,-0.8288,-0.8524,-0.9942,-0.9167,-0.8838,-0.9051,-0.8838,-0.8771,-0.867,-0.8601,-0.8568,-0.8568,-0.8568,-0.8568,-0.8568,-0.8605,-0.8617,-0.8629,-0.8804,-0.9064,-0.936,-0.9393,-0.9498,-0.9628,-0.9628,-0.9628,-0.9628,-0.9628,-0.9628,-0.9628,-0.9628,-0.9628,-0.9628,-0.9628,-0.9628,-0.9628,-0.9628,-0.9628,-0.9636,-0.9669,-0.9778,-0.9941,-1.0164,-1.0302,-1.0428,-1.0603,-1.0643,-1.0651,-1.0684,-1.0692,-1.0692,-1.0692,-1.0692,-1.0692,-1.0692,-1.0692,-1.0692,-1.0692,-1.0911,-1.1017,-1.1017,-1.135,-1.1459,-1.1459,-1.1568,-1.1678,-1.2001,-1.2005,-1.2114,-1.2436,-1.2441,-1.2441,-1.2441,-1.2441,-1.2526,-1.2706,-1.2569,-1.2502,-1.2502,-1.2502,-1.2502,0.0,0.0,0.0,-0.763,-0.761,0.0,0.0,-0.6412,-0.6433,-0.6506,-0.6972,-0.7453,-0.7458,-0.8116,-0.8792,-0.8882,-0.841,-0.7986,-0.7824,-0.7389,-0.7139,-0.7139,-0.7139,-0.7139,-0.7139,-0.7231,-0.7323,-0.7496,-0.8017,-0.8623,-0.9318,-0.9069,-0.938,-1.0304,-0.9315,-0.8909,-0.9096,-0.8913,-0.8779,-0.869,-0.8609,-0.8568,-0.8568,-0.8568,-0.8568,-0.8568,-0.8568,-0.8568,-0.8572,-0.8662,-0.8848,-0.9108,-0.9283,-0.9413,-0.9502,-0.9596,-0.9628,-0.9628,-0.9628,-0.9628,-0.9628,-0.9628,-0.9628,-0.9628,-0.9628,-0.9628,-0.9628,-0.9628,-0.9628,-0.9628,-0.9628,-0.9693,-0.9803,-0.9981,-1.003,-1.0103,-1.0371,-1.0428,-1.0452,-1.0546,-1.0635,-1.0692,-1.0692,-1.0692,-1.0692,-1.0692,-1.0802,-1.0911,-1.0911,-1.1126,-1.135,-1.135,-1.1568,-1.1787,-1.1787,-1.1896,-1.2114,-1.2219,-1.2223,-1.2223,-1.2436,-1.2441,-1.2441,-1.2441,-1.2441,-1.2493,-1.2602,-1.2493,-1.2493,-1.2602,-1.2602,-1.2545,0.0,0.0,0.0,0.0,0.0,-0.6766,0.0,0.0,0.0,-0.6684,-0.7346,-0.7931,0.0,0.0,0.0,-0.9617,0.0,0.0,0.0,-0.8119,0.0,-0.7439,-0.7271,-0.7295,-0.7531,-0.772,-0.7974,-0.8116,-0.9148,-0.9923,-1.0096,-1.0106,-1.0207,-1.0413,-0.953,-0.9071,-0.9043,-0.8893,-0.8804,-0.8771,-0.8633,-0.8568,-0.8568,-0.8568,-0.8568,-0.8568,-0.8568,-0.8568,-0.8568,-0.8568,-0.8649,-0.8804,-0.9125,-0.9295,-0.9372,-0.9518,-0.96,-0.9628,-0.9628,-0.9628,-0.9628,-0.9628,-0.9628,-0.9628,-0.9628,-0.9628,-0.9628,-0.9628,-0.9628,-0.9628,-0.9628,-0.9628,-0.9669,-0.9843,-0.9778,-0.9774,-1.0136,-1.0213,-1.0266,-1.0448,-1.0599,-1.0692,-1.0692,-1.0692,-1.0692,-1.0802,-1.0907,-1.1131,-1.1236,-1.1459,-1.1678,-1.1678,-1.1896,-1.2114,-1.2114,-1.2332,-1.2441,-1.2441,-1.2441,-1.2441,-1.2441,-1.2441,-1.2441,-1.2441,-1.2441,-1.2441,-1.2441,-1.2441,-1.2531,-1.2706,-1.2706,-1.2606,0.0,0.0,0.0,0.0,-0.7862,-0.7705,-0.7108,0.0,-0.7005,-0.7005,0.0,-0.7246,0.0,0.0,0.0,0.0,0.0,0.0,-1.0377,-0.982,-0.9275,-0.8865,-0.8044,-0.8001,-0.9106,-0.9234,-0.925,-0.9074,-0.9923,-1.095,-1.1901,-1.13,-1.1065,-1.1389,-1.0513,-0.9633,-0.8852,-0.8832,-0.8743,-0.8597,-0.8576,-0.8568,-0.8568,-0.8568,-0.8568,-0.8568,-0.8568,-0.8568,-0.8568,-0.8568,-0.8576,-0.8617,-0.8808,-0.9076,-0.9356,-0.9376,-0.949,-0.9628,-0.9628,-0.9628,-0.9628,-0.9628,-0.9628,-0.9628,-0.9628,-0.9628,-0.9628,-0.9628,-0.9628,-0.9628,-0.9628,-0.9628,-0.9669,-0.9843,-0.9868,-0.9957,-1.0327,-1.0404,-1.0456,-1.0631,-1.068,-1.0692,-1.0692,-1.0692,-1.0802,-1.1017,-1.1126,-1.124,-1.1459,-1.1787,-1.2005,-1.2005,-1.2219,-1.2327,-1.2327,-1.2327,-1.2441,-1.2441,-1.2441,-1.2441,-1.2441,-1.2441,-1.2441,-1.2441,-1.2441,-1.2441,-1.2441,-1.2441,-1.245,-1.2479,-1.2479,-1.246,0.0,0.0,0.0,0.0,0.0,0.0,-0.7285,0.0,-0.7419,-0.7419,0.0,0.0,0.0,0.0,0.0,0.0,-1.0812,-1.0767,0.0,0.0,-0.9617,-0.9393,0.0,0.0,-0.9352,-0.9369,-0.9117,-0.8581,-1.0559,-1.1764,-1.1528,-1.1838,-1.2055,-1.225,-1.0767,-0.9864,-0.962,-0.9087,-0.8783,-0.8714,-0.8714,-0.8662,-0.8568,-0.8568,-0.8568,-0.8568,-0.8568,-0.8568,-0.8568,-0.8568,-0.8568,-0.8572,-0.8645,-0.8824,-0.9072,-0.9279,-0.9405,-0.9486,-0.9592,-0.9628,-0.9628,-0.9628,-0.9628,-0.9628,-0.9628,-0.9628,-0.9628,-0.9628,-0.9628,-0.9628,-0.9628,-0.9628,-0.9648,-0.9717,-0.9734,-0.9807,-1.0059,-1.0115,-1.0201,-1.0485,-1.0564,-1.0663,-1.0874,-1.0907,-1.1017,-1.1126,-1.1345,-1.1673,-1.1787,-1.2114,-1.2219,-1.2219,-1.2332,-1.2441,-1.2441,-1.2441,-1.2441,-1.2441,-1.2441,-1.2441,-1.2441,-1.2441,-1.2441,-1.2441,-1.2441,-1.2441,-1.2441,-1.2441,-1.2441,-1.2441,-1.2441,-1.2441,-0.7465,0.0,0.0,0.0,0.0,0.0,0.0,0.0,0.0,0.0,-0.835,0.0,0.0,0.0,0.0,0.0,0.0,-1.0995,0.0,-1.076,0.0,0.0,0.0,0.0,0.0,-0.9922,-0.9702,-0.8759,-1.1155,-1.2253,-1.1466,-1.221,-1.2705,-1.2705,-1.1154,-1.0187,-1.0159,-0.9242,-0.891,-0.9268,-0.9178,-0.9289,-0.942,-0.9108,-0.8999,-0.8911,-0.874,-0.8568,-0.8568,-0.8568,-0.8568,-0.8568,-0.8568,-0.8641,-0.8792,-0.9153,-0.9315,-0.938,-0.9563,-0.9628,-0.9628,-0.9628,-0.9628,-0.9628,-0.9628,-0.9628,-0.9628,-0.9628,-0.9628,-0.9628,-0.9628,-0.9628,-0.9628,-0.9628,-0.9628,-0.9673,-0.9847,-0.9884,-0.9977,-1.0298,-1.046,-1.0573,-1.0891,-1.0946,-1.1054,-1.1272,-1.1642,-1.1873,-1.2041,-1.2295,-1.2441,-1.2441,-1.2441,-1.2441,-1.2441,-1.2441,-1.2441,-1.2441,-1.2441,-1.2441,-1.2441,-1.2441,-1.2441,-1.2441,-1.2441,-1.2441,-1.2441,-1.2441,-1.2441,-1.2441,-1.2441,-1.2441,0.0,0.0,0.0,-0.7807,0.0,0.0,0.0,0.0,-0.828,0.0,0.0,0.0,0.0,0.0,0.0,0.0,0.0,0.0,0.0,0.0,0.0,0.0,0.0,0.0,0.0,-1.1396,-1.1606,-1.0627,-1.1671,-1.2318,-1.2377,-1.2554,-1.2705,-1.2705,-1.1757,-1.0809,-0.9956,-0.9178,-0.9358,-1.0348,-1.0249,-1.0691,-1.1661,-1.0387,-0.9859,-0.9772,-0.8999,-0.8568,-0.8568,-0.8568,-0.8568,-0.8568,-0.8568,-0.8572,-0.8617,-0.8974,-0.921,-0.938,-0.9563,-0.9628,-0.9628,-0.9628,-0.9628,-0.9628,-0.9628,-0.9628,-0.9628,-0.9628,-0.9628,-0.9628,-0.9628,-0.9628,-0.9628,-0.9628,-0.9628,-0.9673,-0.9847,-0.9884,-0.9941,-1.0136,-1.0168,-1.0221,-1.0412,-1.0654,-1.0975,-1.1616,-1.167,-1.172,-1.207,-1.2318,-1.2441,-1.2441,-1.2441,-1.2441,-1.2441,-1.2441,-1.2441,-1.2441,-1.2441,-1.2441,-1.2441,-1.2441,-1.2441,-1.2441,-1.2441,-1.2441,-1.2441,-1.2441,-1.2441,-1.2441,-1.2441,-1.2441,-0.775,-0.7854,-0.7956,-0.8285,-0.8253,-0.8222,-0.8372,-0.8515,-0.8475,-0.8475,-0.8325,0.0,0.0,0.0,0.0,0.0,0.0,0.0,0.0,0.0,-1.2264,0.0,0.0,0.0,0.0,-1.1479,-1.1032,-0.9466,-1.1073,-1.1873,-1.1375,-1.2117,-1.2853,-1.3561,-1.2705,-1.183,-1.102,-1.0262,-1.0095,-1.0538,-1.0456,-1.093,-1.176,-1.0474,-0.9859,-0.9859,-0.8999,-0.8568,-0.8568,-0.8568,-0.8568,-0.8568,-0.8568,-0.8568,-0.8597,-0.8828,-0.9031,-0.9226,-0.9522,-0.9547,-0.9466,-0.9587,-0.9628,-0.9628,-0.9628,-0.9628,-0.9628,-0.9628,-0.9628,-0.9628,-0.9628,-0.9628,-0.9628,-0.9628,-0.9628,-0.9644,-0.9701,-0.9713,-0.9766,-0.9945,-1.0188,-1.0408,-1.0724,-1.0884,-1.1097,-1.1358,-1.1442,-1.1631,-1.2023,-1.22,-1.229,-1.2422,-1.2441,-1.2441,-1.2441,-1.2441,-1.2441,-1.2441,-1.2441,-1.2441,-1.2441,-1.2441,-1.2441,-1.2441,-1.2441,-1.2441,-1.2441,-1.2441,-1.2441,-1.2441,-1.2441,-1.2441,-0.7915,-0.8021,-0.8288,-0.8564,-0.8472,-0.8384,-0.8564,-0.8568,-0.8548,-0.8483,-0.8426,-0.8292,0.0,0.0,0.0,0.0,0.0,0.0,0.0,-1.2003,0.0,-1.2305,-1.1855,0.0,0.0,-1.1593,-1.1059,-0.9236,-1.05,-1.1323,-1.1244,-1.1653,-1.2588,-1.4075,-1.3222,-1.2347,-1.1542,-1.1232,-1.1109,-1.1196,-1.1554,-1.2118,-1.2874,-1.1646,-1.0794,-1.0376,-0.9428,-0.8911,-0.8568,-0.8568,-0.8568,-0.8568,-0.8568,-0.8568,-0.8589,-0.8755,-0.8974,-0.9222,-0.9449,-0.9453,-0.9372,-0.9494,-0.9531,-0.9543,-0.9608,-0.9628,-0.964,-0.9701,-0.9673,-0.9644,-0.9701,-0.9673,-0.9628,-0.9628,-0.9628,-0.9628,-0.9628,-0.9628,-0.9661,-0.977,-1.0,-1.0315,-1.0732,-1.0835,-1.1015,-1.1349,-1.134,-1.153,-1.1803,-1.2049,-1.2191,-1.2318,-1.2398,-1.2441,-1.2441,-1.2441,-1.2441,-1.2441,-1.2441,-1.2441,-1.2441,-1.2441,-1.2479,-1.2554,-1.2479,-1.2479,-1.2554,-1.2479,-1.2441,-1.2441,-1.2441,-1.2441]}]]